[[{"header":{"parameterUnit":"m.s-1","parameterCategory":1,"la1":30.6,"la2":29.2853,"lo1":-89.7004,"lo2":-87.6739,"dy":0.0162,"dx":0.0183,"nx":112,"ny":82,"refTime":"2024-08-14T06:00:00:Z","depth":0,"parameterNumber":2,"parameterNumberName":"U-component_of_WINDS"},"data":[0.0,0.0,0.0,0.0,0.0,0.0,0.0,0.0,0.0,0.0,0.0,0.0,0.0,0.0,0.0,0.0,0.0,0.0,0.0,0.0,0.0,0.0,0.0,0.0,0.0,0.0,0.0,0.0,0.0,0.0,0.0,0.0,0.0,0.0,0.0,0.0,0.0,0.0,0.0,0.0,0.0,0.0,0.0,0.0,0.0,0.0,0.0,0.0,0.0,0.0,0.0,0.0,0.0,0.0,0.0,0.0,0.0,0.0,0.0,0.0,0.0,0.0,0.0,0.0,0.0,0.0,0.0,0.0,0.0,0.0,0.0,0.0,0.0,0.0,0.0,0.0,0.0,0.0,0.0,0.0,0.0,0.0,0.0,0.0,0.0,0.0,0.0,0.0,0.0,0.0,0.0,0.8234,0.7355,0.6719,0.6719,0.5071,0.4088,0.4194,0.0,0.0,0.0,0.0,0.0,0.0,0.0,0.0,0.0,0.0,0.0,0.0,0.0,0.0,0.0,0.0,0.0,0.0,0.0,0.0,0.0,0.0,0.0,0.0,0.0,0.0,0.0,0.0,0.0,0.0,0.0,0.0,0.0,0.0,0.0,0.0,0.0,0.0,0.0,0.0,0.0,0.0,0.0,0.0,0.0,0.0,0.0,0.0,0.0,0.0,0.0,0.0,0.0,0.0,0.0,0.0,0.0,0.0,0.0,0.0,0.0,0.0,0.0,0.0,0.0,0.0,0.0,0.0,0.0,0.0,0.0,0.0,0.0,0.0,0.0,0.0,0.0,0.0,0.0,0.0,0.0,0.0,0.0,0.0,0.0,0.0,0.0,0.0,0.0,0.0,0.0,0.0,0.0,0.0,0.0,0.0,0.0,0.0,0.0,0.0,0.0,0.0,0.0,0.0,0.7609,0.8469,0.7448,0.6719,0.6719,0.4968,0.4022,0.4278,0.0,0.0,0.0,0.0,0.0,0.0,0.0,0.0,0.0,0.0,0.0,0.0,0.0,0.0,0.0,0.0,0.0,0.0,0.0,0.0,0.0,0.0,0.0,0.0,0.0,0.0,0.0,0.0,0.0,0.0,0.0,0.0,0.0,0.0,0.0,0.0,0.0,0.0,0.0,0.0,0.0,0.0,0.0,0.0,0.0,0.0,0.0,0.0,0.0,0.0,0.0,0.0,0.0,0.0,0.0,0.0,0.0,0.0,0.0,0.0,0.0,0.0,0.0,0.0,0.0,0.0,0.0,0.0,0.0,0.0,0.0,0.0,0.0,0.0,0.0,0.0,0.0,0.0,0.0,0.0,0.0,0.0,0.0,0.0,0.0,0.0,0.0,0.0,0.0,0.0,0.0,0.0,0.0,0.0,0.0,0.0,0.0,0.0,0.0,0.0,0.0,0.0,0.0,0.7387,0.7798,0.8332,0.7383,0.6654,0.6527,0.4945,0.398,0.4196,0.305,0.0,0.0,0.0,0.0,0.0,0.0,0.0,0.0,0.0,0.0,0.0,0.0,0.0,0.0,0.0,0.0,0.0,0.0,0.0,0.0,0.0,0.0,0.0,0.0,0.0,0.0,0.0,0.0,0.0,0.0,0.0,0.0,0.0,0.0,0.0,0.0,0.0,0.0,0.0,0.0,0.0,0.0,0.0,0.0,0.0,0.0,0.0,0.0,0.0,0.0,0.0,0.0,0.0,0.0,0.0,0.0,0.0,0.0,0.0,0.0,0.0,0.0,0.0,0.0,0.0,0.0,0.0,0.0,0.0,0.0,0.0,0.0,0.0,0.0,0.0,0.0,0.0,0.0,0.0,0.0,0.0,0.0,0.0,0.0,0.0,0.0,0.0,0.0,0.0,0.0,0.0,0.0,0.0,0.0,0.0,0.0,0.0,0.0,0.0,0.0,0.0,0.0,0.7471,0.7665,0.7975,0.7223,0.6527,0.6199,0.4702,0.3949,0.42,0.312,0.0,0.0,0.0,0.0,0.0,0.0,0.0,0.0,0.0,0.0,0.0,0.0,0.0,0.0,0.0,0.0,0.0,0.0,0.0,0.0,0.0,0.0,0.0,0.0,0.0,0.0,0.0,0.0,0.0,0.0,0.0,0.0,0.0,0.0,0.0,0.0,0.0,0.0,0.0,0.0,0.0,0.0,0.0,0.0,0.0,0.0,0.0,0.0,0.0,0.0,0.0,0.0,0.0,0.0,0.0,0.0,0.0,0.0,0.0,0.0,0.0,0.0,0.0,0.0,0.0,0.0,0.0,0.0,0.0,0.0,0.0,0.0,0.0,0.0,0.0,0.0,0.0,0.0,0.0,0.0,0.0,0.0,0.0,0.0,0.0,0.0,0.0,0.0,0.0,0.0,0.0,0.0,0.0,0.0,0.0,0.0,0.0,0.0,0.0,0.0,0.0,0.0,0.7329,0.7249,0.7519,0.685,0.6133,0.5408,0.4288,0.3874,0.4498,0.3269,0.0,0.0,0.0,0.0,0.0,0.0,0.0,0.0,0.0,0.0,0.0,0.0,0.0,0.0,0.0,0.0,0.0,0.0,0.0,0.0,0.0,0.0,0.0,0.0,0.0,0.0,0.0,0.0,0.0,0.0,0.0,0.0,0.0,0.0,0.0,0.0,0.0,0.0,0.0,0.0,0.0,0.0,0.0,0.0,0.0,0.0,0.0,0.0,0.0,0.0,0.0,0.0,0.0,0.0,0.0,0.0,0.0,0.0,0.0,0.0,0.0,0.0,0.0,0.0,0.0,0.0,0.0,0.0,0.0,0.0,0.0,0.0,0.0,0.0,0.0,0.0,0.0,0.0,0.0,0.0,0.0,0.0,0.0,0.0,0.0,0.0,0.0,0.0,0.0,0.0,0.0,0.0,0.0,0.0,0.0,0.0,0.0,0.0,0.0,0.0,0.0,0.0,0.6231,0.628,0.0,0.6133,0.5606,0.5342,0.4426,0.3832,0.3712,0.0,0.0,0.0,0.0,0.0,0.0,0.0,0.0,0.0,0.0,0.0,0.0,0.0,0.0,0.0,0.0,0.0,0.0,0.0,0.0,0.0,0.0,0.0,0.0,0.0,0.0,0.0,0.0,0.0,0.0,0.0,0.0,0.0,0.0,0.0,0.0,0.0,0.0,0.0,0.0,0.0,0.0,0.0,0.0,0.0,0.0,0.0,0.0,0.0,0.0,0.0,0.0,0.0,0.0,0.0,0.0,0.0,0.0,0.0,0.0,0.0,0.0,0.0,0.0,0.0,0.0,0.0,0.0,0.0,0.0,0.0,0.0,0.0,0.0,0.0,0.0,0.0,0.0,0.0,0.0,0.0,0.0,0.0,0.0,0.0,0.0,0.0,0.0,0.0,0.0,0.0,0.0,0.0,0.0,0.0,0.0,0.0,0.0,0.0,0.0,0.0,0.0,0.5382,0.5477,0.562,0.0,0.5888,0.5491,0.5024,0.4454,0.3778,0.2888,0.0,0.0,0.0,0.0,0.0,0.0,0.0,0.0,0.0,0.0,0.0,0.0,0.0,0.0,0.0,0.0,0.0,0.0,0.0,0.0,0.0,0.0,0.0,0.0,0.0,0.0,0.0,0.0,0.0,0.0,0.0,0.0,0.0,0.0,0.0,0.0,0.0,0.0,0.0,0.0,0.0,0.0,0.0,0.0,0.0,0.0,0.0,0.0,0.0,0.0,0.0,0.0,0.0,0.0,0.0,0.0,0.0,0.0,0.0,0.0,0.0,0.0,0.0,0.0,0.0,0.0,0.0,0.0,0.0,0.0,0.0,0.0,0.0,0.0,0.0,0.0,0.0,0.0,0.0,0.0,0.0,0.0,0.0,0.0,0.0,0.0,0.0,0.0,0.0,0.0,0.0,0.0,0.0,0.0,0.0,0.0,0.0,0.0,0.0,0.0,0.0,0.0,0.5048,0.5162,0.5293,0.5602,0.6058,0.58,0.4381,0.4306,0.3658,0.0,0.0,0.0,0.0,0.0,0.0,0.0,0.0,0.0,0.0,0.0,0.0,0.0,0.0,0.0,0.0,0.0,0.0,0.0,0.0,0.0,0.0,0.0,0.0,0.0,0.0,0.0,0.0,0.0,0.0,0.0,0.0,0.0,0.0,0.0,0.0,0.0,0.0,0.0,0.0,0.0,0.0,0.0,0.0,0.0,0.0,0.0,0.0,0.0,0.0,0.0,0.0,0.0,0.0,0.0,0.0,0.0,0.0,0.0,0.0,0.0,0.0,0.0,0.0,0.0,0.0,0.0,0.0,0.0,0.0,0.0,0.0,0.0,0.0,0.0,0.0,0.0,0.0,0.0,0.0,0.0,0.0,0.0,0.0,0.0,0.0,0.0,0.0,0.0,0.0,0.0,0.0,0.0,0.0,0.0,0.0,0.0,0.0,0.0,0.0,0.0,0.0,0.0,0.0,0.4216,0.3977,0.3266,0.3286,0.3222,0.2753,0.3713,0.3678,0.2179,0.0,0.0,0.0,0.0,0.0,0.0,0.0,0.0,0.0,0.0,0.0,0.0,0.0,0.0,0.0,0.0,0.0,0.0,0.0,0.0,0.0,0.0,0.0,0.0,0.0,0.0,0.0,0.0,0.0,0.0,0.0,0.0,0.0,0.0,0.0,0.0,0.0,0.0,0.0,0.0,0.0,0.0,0.0,0.0,0.0,0.0,0.0,0.0,0.0,0.0,0.0,0.0,0.0,0.0,0.0,0.0,0.0,0.0,0.0,0.0,0.0,0.0,0.0,0.0,0.0,0.0,0.0,0.0,0.0,0.0,0.0,0.0,0.0,0.0,0.0,0.0,0.0,0.0,0.0,0.0,0.0,0.0,0.0,0.0,0.0,0.0,0.0,0.0,0.0,0.0,0.0,0.0,0.0,0.0,0.0,0.0,0.0,0.0,0.0,0.0,0.0,0.0,0.3262,0.3599,0.3542,0.3009,0.1949,0.1276,0.1276,0.2044,0.2009,0.0634,0.0,0.0,0.0,0.0,0.0,0.0,0.0,0.0,0.0,0.0,0.0,0.0,0.0,0.0,0.0,0.0,0.0,0.0,0.0,0.0,0.0,0.0,0.0,0.0,0.0,0.0,0.0,0.0,0.0,0.0,0.0,0.0,0.0,0.0,0.0,0.0,0.0,0.0,0.0,0.0,0.0,0.0,0.0,0.0,0.0,0.0,0.0,0.0,0.0,0.0,0.0,0.0,0.0,0.0,0.0,0.0,0.0,0.0,0.0,0.0,0.0,0.0,0.0,0.0,0.0,0.0,0.0,0.0,0.0,0.0,0.0,0.0,0.0,0.0,0.0,0.0,0.0,0.0,0.0,0.0,0.0,0.0,0.0,0.0,0.0,0.0,0.0,0.0,0.0,0.0,0.0,0.0,0.0,0.0,0.0,0.0,0.0,0.0,0.0,0.0,0.0,0.0,0.2785,0.309,0.3418,0.3828,0.1347,-0.0404,-0.0404,-0.0256,-0.066,-0.1741,0.0,0.0,0.0,0.0,0.0,0.0,0.0,0.0,0.0,0.0,0.0,0.0,0.0,0.0,0.0,0.0,0.0,0.0,0.0,0.0,0.0,0.0,0.0,0.0,0.0,0.0,0.0,0.0,0.0,0.0,0.0,0.0,0.0,0.0,0.0,0.0,0.0,0.0,0.0,0.0,0.0,0.0,0.0,0.0,0.0,0.0,0.0,0.0,0.0,0.0,0.0,0.0,0.0,0.0,0.0,0.0,0.0,0.0,0.0,0.0,-0.3601,0.0,0.0,0.0,0.0,0.0,0.0,0.0,0.0,0.0,0.0,0.0,0.0,0.0,0.0,0.0,0.0,0.0,0.0,0.0,0.0,0.0,0.0,0.0,0.0,0.0,0.0,0.0,0.0,0.0,0.0,0.0,0.0,0.0,0.0,0.0,0.0,0.0,0.0,0.0,0.0,0.0,0.2217,0.1391,0.0821,0.0938,-0.1683,-0.3374,-0.3374,-0.2171,-0.15,-0.1798,0.0,0.0,0.0,0.0,0.0,0.0,0.0,0.0,0.0,0.0,0.0,0.0,0.0,0.0,0.0,0.0,0.0,0.0,0.0,0.0,0.0,0.0,0.0,0.0,0.0,0.0,0.0,0.0,0.0,0.0,0.0,0.0,0.0,0.0,0.0,0.0,0.0,0.0,0.0,0.0,0.0,0.0,0.0,0.0,0.0,0.0,0.0,0.0,0.0,0.0,0.0,0.0,0.0,0.0,0.0,0.0,0.0,0.0,0.0,0.0,0.0,-0.495,0.0,0.0,0.0,0.0,0.0,0.0,0.0,0.0,0.0,0.0,0.0,0.0,0.0,0.0,0.0,0.0,0.0,0.0,0.0,0.0,0.0,0.0,0.0,0.0,0.0,0.0,0.0,0.0,0.0,0.0,0.0,0.0,0.0,0.0,0.0,0.0,0.0,0.0,0.0,0.0,0.0641,-0.0952,-0.1797,-0.1071,-0.2354,-0.3504,-0.4252,-0.3496,-0.2903,-0.2767,-0.3159,0.0,0.0,0.0,0.0,0.0,0.0,0.0,0.0,0.0,0.0,0.0,0.0,0.0,0.0,0.0,0.0,0.0,0.0,0.0,0.0,0.0,0.0,0.0,0.0,0.0,0.0,0.0,0.0,0.0,0.0,0.0,0.0,0.0,0.0,0.0,0.0,0.0,0.0,0.0,0.0,0.0,0.0,0.0,0.0,0.0,0.0,0.0,0.0,0.0,0.0,0.0,0.0,0.0,0.0,0.0,-0.7548,-0.8645,-0.916,-0.9108,-0.8281,-0.7846,-0.7531,0.0,0.0,0.0,0.0,0.0,0.0,0.0,0.0,0.0,0.0,0.0,0.0,0.0,0.0,0.0,0.0,0.0,0.0,0.0,0.0,0.0,0.0,0.0,0.0,0.0,-0.4317,-0.4316,0.0,0.0,0.0,0.0,0.0,0.0,0.0,0.0,0.0,0.0,0.0,0.0,-0.1174,-0.3073,-0.3863,-0.2629,-0.249,-0.2954,-0.4175,-0.4265,-0.4152,-0.3859,-0.3718,-0.3536,0.0,0.0,0.0,0.0,0.0,0.0,0.0,0.0,0.0,0.0,0.0,0.0,0.0,0.0,0.0,0.0,0.0,0.0,0.0,0.0,0.0,0.0,0.0,0.0,0.0,0.0,0.0,0.0,0.0,0.0,0.0,0.0,0.1102,0.1221,0.0,0.0,0.0,0.0,0.0,0.0,0.0,0.0,0.0,0.0,0.0,0.0,0.0,0.0,-0.3918,-0.6447,-0.7673,-0.7501,-0.9256,-1.0127,-1.0184,-1.0349,-1.0428,-1.0502,-1.1051,0.0,-0.8077,-0.7812,0.0,0.0,0.0,0.0,0.0,0.0,0.0,0.0,0.0,0.0,0.0,0.0,0.0,0.0,0.0,0.0,0.0,0.0,0.0,0.0,0.0,0.0,-0.5929,-0.5708,-0.5864,-0.5925,0.0,-0.4128,-0.2932,-0.2517,0.0,0.0,0.0,0.0,0.0,0.0,0.0,0.0,-0.2392,-0.3465,-0.4221,-0.4028,-0.4026,-0.4097,-0.43,-0.4189,-0.4113,-0.4033,-0.3852,-0.3707,-0.3575,-0.3334,0.0,0.0,0.0,0.0,0.0,0.0,0.0,0.0,0.0,0.0,0.0,0.0,0.0,0.0,0.0,0.0,0.0,0.0,0.0,0.0,0.0,0.0,0.0,0.0,0.0,0.0,0.0,0.0,0.0,0.1228,0.122,0.1471,0.1448,0.1431,0.0,0.0,0.0,0.0,0.0,0.0,0.0,0.0,0.0,-0.3584,-0.4824,-0.5778,-0.644,-0.8179,-0.9159,-0.9382,-1.0768,-1.137,-1.1494,-1.2025,-1.229,-1.229,-1.2641,-1.2063,-1.0858,-1.0047,-0.9576,-0.9244,0.0,0.0,0.0,0.0,0.0,0.0,-0.799,0.0,0.0,0.0,0.0,0.0,0.0,0.0,0.0,0.0,0.0,0.0,0.0,0.0,0.0,-0.6383,-0.6458,-0.6471,-0.6335,-0.5635,-0.4748,0.0,-0.3785,-0.3429,-0.2062,0.0,0.0,0.0,0.0,0.0,-0.3712,-0.4177,-0.4516,-0.4407,-0.4431,-0.4371,-0.4306,-0.4251,-0.4191,-0.4121,-0.4018,-0.3873,-0.3743,-0.3576,-0.3409,0.0,0.0,0.0,0.0,0.0,0.0,0.0,0.0,0.0,0.0,0.0,0.0,0.0,0.0,0.0,0.0,0.0,0.0,0.0,0.0,0.0,0.0,0.0,0.0,0.0,0.0,0.0,0.0,0.0954,0.0985,0.1244,0.1122,0.1036,0.0,0.0,0.0,0.0,0.0,0.0,-0.1467,-0.2833,-0.4073,-0.4833,-0.6105,-0.739,-0.853,-0.9443,-1.028,-1.095,-1.1863,-1.2316,-1.2484,-1.3144,-1.3513,-1.3513,-1.3513,-1.3405,-1.3133,-1.1992,-1.1447,-1.1267,-1.0834,-1.0509,0.0,-1.0439,-1.0112,-0.9591,-1.0095,-1.0179,-0.9927,-0.9827,0.0,-0.8538,-0.6802,0.0,0.0,0.0,0.0,-0.5911,-0.6325,0.0,-0.6495,-0.6753,-0.6814,-0.6803,-0.6766,-0.6668,-0.6277,0.0,-0.4978,-0.476,-0.3754,0.0,0.0,0.0,0.0,-0.4619,-0.4707,-0.4836,-0.4853,-0.4782,-0.4717,-0.4643,-0.4484,-0.4451,-0.4326,-0.4232,-0.4164,-0.4056,-0.3808,-0.3719,-0.3615,-0.3547,0.0,0.0,0.0,0.0,0.0,0.0,0.0,0.0,0.0,0.0,0.0,0.0,0.0,0.0,0.0,0.0,0.0,0.0,0.0,0.0,0.0,0.0,0.0,0.0,0.0,0.0,0.0,0.0,0.0,0.0055,-0.006,0.0,0.0,0.0,0.0,0.0463,-0.093,-0.2066,-0.2677,-0.4455,-0.5903,-0.6701,-0.7163,-0.7935,-0.912,-1.0136,-1.1064,-1.2,-1.2933,-1.3411,-1.3423,-1.3513,-1.3513,-1.3513,-1.3513,-1.3507,-1.3453,-1.2868,-1.2553,-1.2455,-1.145,-1.1187,-1.1301,-1.1385,-1.1387,-1.1498,-1.2289,-1.2547,-1.2535,-1.2523,-1.1665,-1.0225,-0.8129,-0.7414,0.0,0.0,-0.6312,-0.6502,-0.6814,-0.6895,-0.6932,-0.7082,-0.7115,-0.7082,-0.6946,-0.6912,-0.6766,0.0,-0.5973,-0.5509,-0.4789,0.0,0.0,-0.4175,-0.491,-0.5484,-0.5263,-0.5294,-0.5349,-0.5399,-0.525,-0.5089,-0.5083,-0.4763,-0.4558,-0.455,-0.4422,-0.4181,-0.3936,-0.3859,-0.3748,-0.339,-0.315,0.0,0.0,0.0,0.0,0.0,0.0,0.0,0.0,0.0,0.0,0.0,0.0,0.0,0.0,0.0,0.0,0.0,0.0,0.0,0.0,0.0,0.0,0.0,0.0,0.0,0.0,0.0,0.0,-0.1344,-0.1688,0.0,0.0,-0.2008,-0.2071,-0.2442,-0.3591,-0.4381,-0.4794,-0.607,-0.6966,-0.7353,-0.8099,-0.9161,-1.0373,-1.1318,-1.2427,-1.3531,-1.3826,-1.4014,-1.4014,-1.4014,-1.4014,-1.4014,-1.4014,-1.4296,-1.4746,-1.4542,-1.3923,-1.3161,-1.2802,-1.2679,-1.2778,-1.2786,-1.2815,-1.2833,-1.3105,-1.3224,-1.32,-1.3025,-1.2255,-1.1308,-1.0383,-0.9771,-0.914,-0.8174,-0.7947,-0.791,-0.7232,-0.7065,-0.7078,-0.7129,-0.7139,-0.7126,-0.7075,-0.7065,-0.699,-0.6739,-0.6522,-0.6193,-0.5635,-0.5615,-0.5475,-0.4992,-0.529,-0.5533,-0.543,-0.5439,-0.5478,-0.5513,-0.5421,-0.5287,-0.5108,-0.498,-0.4812,-0.464,-0.4505,-0.4325,-0.4008,-0.3938,-0.384,-0.3523,-0.336,-0.3099,0.0,0.0,0.0,0.0,0.0,0.0,0.0,0.0,0.0,0.0,0.0,0.0,0.0,0.0,0.0,0.0,0.0,0.0,0.0,0.0,0.0,0.0,0.0,0.0,0.0,0.0,-0.2599,-0.2375,-0.2957,-0.3334,-0.3426,-0.3552,-0.3754,-0.4175,-0.5173,-0.5801,-0.6012,-0.6974,-0.775,-0.823,-0.8946,-1.007,-1.1532,-1.2215,-1.3166,-1.4394,-1.4298,-1.4394,-1.4394,-1.4298,-1.449,-1.4675,-1.4675,-1.5057,-1.5818,-1.5818,-1.5123,-1.4142,-1.4596,-1.4504,-1.4142,-1.432,-1.4136,-1.3779,-1.3779,-1.3719,-1.3622,-1.3441,-1.2962,-1.2316,-1.1872,-1.1394,-1.0855,-0.9732,-0.9161,-0.8782,-0.8039,-0.7524,-0.7217,-0.7217,-0.7177,-0.7139,-0.7139,-0.7139,-0.7112,-0.7017,-0.6878,-0.6668,-0.6315,-0.626,-0.6129,-0.5788,-0.5751,-0.5857,-0.5812,-0.5813,-0.5835,-0.5743,-0.5685,-0.5561,-0.5323,-0.5215,-0.4947,-0.4705,-0.4544,-0.4356,-0.4062,-0.3954,-0.3875,-0.3752,-0.3528,-0.3274,-0.2985,0.0,0.0,0.0,0.0,0.0,0.0,0.0,0.0,0.0,0.0,0.0,0.0,0.0,0.0,0.0,0.0,0.0,0.0,0.0,0.0,0.0,0.0,0.0,-0.2835,-0.299,-0.3197,-0.3205,-0.3816,-0.4298,-0.4187,-0.4347,-0.4552,-0.4561,-0.5564,-0.6233,-0.6261,-0.7254,-0.8394,-0.944,-0.9612,-1.0681,-1.2635,-1.2727,-1.3414,-1.4688,-1.4394,-1.44,-1.4694,-1.4394,-1.4675,-1.5432,-1.5439,-1.5913,-1.6588,-1.6588,-1.6109,-1.5622,-1.6734,-1.6459,-1.5432,-1.5981,-1.5317,-1.4298,-1.4298,-1.4129,-1.3918,-1.3918,-1.3749,-1.335,-1.2415,-1.2135,-1.1951,-1.1027,-1.0014,-0.9274,-0.9177,-0.8313,-0.7468,-0.738,-0.7258,-0.7146,-0.7146,-0.7143,-0.7139,-0.7139,-0.7031,-0.6888,-0.6732,-0.6709,-0.6654,-0.6502,-0.6478,0.0,-0.6285,-0.6268,-0.6345,-0.6338,-0.6125,-0.5976,-0.582,-0.5401,-0.503,-0.4824,-0.4451,-0.4244,-0.4241,-0.3938,-0.3872,-0.3978,-0.3617,-0.3335,-0.3224,0.0,0.0,0.0,0.0,0.0,0.0,0.0,0.0,0.0,0.0,0.0,0.0,0.0,0.0,0.0,0.0,0.0,0.0,0.0,0.0,0.0,0.0,-0.6222,-0.4648,-0.5003,-0.5547,-0.5837,-0.6084,-0.6331,-0.6443,-0.6638,-0.6685,-0.6725,-0.7133,-0.7699,-0.8497,-0.8851,-0.9628,-1.0697,-1.1434,-1.2145,-1.2727,-1.3511,-1.4004,-1.4394,-1.4298,-1.4298,-1.4394,-1.4867,-1.5248,-1.5439,-1.6008,-1.6393,-1.6588,-1.6588,-1.6763,-1.703,-1.6183,-1.5337,-1.458,-1.4765,-1.4573,-1.4298,-1.4298,-1.425,-1.4189,-1.4189,-1.4141,-1.3986,-1.3791,-1.369,-1.3466,-1.2339,-1.1827,-1.1224,-0.9579,-0.8955,-0.8548,-0.7722,-0.7421,-0.7309,-0.7309,-0.7221,-0.7139,-0.7139,-0.7109,-0.7037,-0.6892,-0.6865,-0.6814,-0.6661,0.0,0.0,-0.6434,-0.6413,-0.6376,-0.6271,-0.6224,-0.6056,-0.5754,-0.5643,-0.5405,0.0,-0.4712,-0.4626,-0.4398,-0.4185,-0.4033,-0.3998,-0.3868,-0.3744,0.0,0.0,0.0,0.0,0.0,0.0,0.0,0.0,0.0,0.0,0.0,0.0,0.0,0.0,0.0,0.0,0.0,0.0,0.0,0.0,0.0,0.0,-0.7093,-0.759,-0.6659,-0.6857,-0.717,-0.7155,-0.7187,-0.7299,-0.7451,-0.76,-0.7689,-0.7689,-0.8204,-0.887,-0.9449,-0.9938,-1.0779,-1.1755,-1.2436,-1.2926,-1.3414,-1.41,-1.4586,-1.4968,-1.4968,-1.5057,-1.5432,-1.5724,-1.6103,0.0,-1.6857,-1.7239,-1.752,-1.752,-1.7606,0.0,0.0,0.0,0.0,0.0,-1.4298,-1.4298,-1.4298,-1.4298,-1.4298,-1.4298,-1.4298,-1.4298,-1.4298,-1.4298,-1.4172,-1.344,-1.2919,-1.231,-1.1034,-1.0279,-0.9656,-0.8627,-0.8221,-0.7996,-0.7475,-0.7299,-0.7217,-0.7153,0.0,0.0,-0.7031,-0.7017,-0.6966,-0.6817,-0.6797,-0.6742,0.0,-0.6512,-0.6441,-0.6359,-0.6295,-0.6196,-0.5888,-0.5815,0.0,0.0,0.0,-0.4636,-0.4374,-0.443,0.0,0.0,0.0,0.0,0.0,0.0,0.0,0.0,-0.3748,-0.3773,0.0,0.0,0.0,0.0,0.0,0.0,0.0,0.0,0.0,0.0,0.0,0.0,0.0,0.0,0.0,0.0,-0.8273,-0.848,-0.8404,-0.8463,-0.8309,-0.7545,-0.7411,-0.7475,-0.7611,-0.7846,-0.8028,-0.8028,-0.9127,-0.9801,0.0,0.0,0.0,0.0,0.0,-1.3414,-1.4394,-1.4777,-1.5255,-1.6015,-1.6015,-1.6386,-1.7037,-1.6857,-1.7044,-1.7692,-1.7785,-1.8164,-1.8643,-1.8643,-1.8257,-1.7505,-1.721,-1.6842,-1.6298,-1.4867,-1.4298,0.0,0.0,0.0,0.0,-1.4298,-1.4298,-1.4298,-1.4298,-1.4298,-1.4298,-1.4298,-1.3607,-1.2829,-1.2727,-1.199,-1.0891,-0.9844,-0.9518,-0.9064,-0.7996,-0.7678,-0.7531,-0.7371,-0.7255,-0.7163,-0.7143,-0.7139,-0.7099,-0.697,-0.6953,0.0,-0.6746,-0.6607,-0.6519,-0.6502,0.0,0.0,-0.6016,-0.5925,-0.5691,-0.5338,-0.4945,-0.4556,-0.4317,-0.4699,-0.4822,-0.442,-0.4558,-0.461,-0.456,-0.4588,-0.472,-0.486,-0.4298,-0.4221,0.0,0.0,0.0,0.0,0.0,0.0,0.0,0.0,0.0,0.0,0.0,0.0,0.0,0.0,0.0,-0.6987,-0.8495,-0.9208,-0.7948,-0.9125,-0.9492,-0.7733,-0.7655,-0.7736,-0.7767,-0.868,-0.9265,-0.9265,-1.0271,-1.1268,-1.2047,-1.2339,0.0,-1.4004,-1.4196,-1.458,-1.5153,-1.5798,-1.6452,-1.7023,0.0,0.0,-1.721,-1.7404,-1.7598,-1.7692,-1.835,-1.835,-1.7878,-1.7878,-1.7512,-1.677,-1.6001,-1.5717,-1.5534,-1.4675,-1.4298,-1.4298,-1.4298,-1.4298,-1.4298,-1.4298,-1.4298,-1.4298,-1.4298,-1.4298,0.0,-1.4298,-1.41,-1.3806,-1.2926,-1.2501,-1.2078,-1.1109,-1.0761,-1.0598,-1.0368,-0.9499,-0.8794,-0.8611,-0.7862,-0.7288,-0.7163,-0.7139,-0.7132,-0.7102,-0.7099,-0.7048,-0.6902,-0.6858,-0.6793,-0.6668,-0.6522,-0.6341,-0.6159,-0.6066,-0.5848,-0.549,-0.5461,-0.5216,-0.4851,-0.5161,-0.5177,-0.4683,-0.4917,-0.5065,-0.5045,-0.5336,-0.5449,-0.5354,-0.488,-0.48,0.0,0.0,0.0,0.0,0.0,0.0,0.0,0.0,0.0,0.0,0.0,-0.6979,0.0,0.0,-0.8708,-0.8574,-0.956,-1.0125,-0.9296,-1.0139,-1.0256,-0.8653,-0.9001,-0.9464,-0.9462,-1.004,-1.0489,-1.0583,-1.156,-1.2339,-1.2829,-1.3511,-1.4286,-1.5229,-1.5248,-1.5724,-1.6734,-1.6922,-1.7397,-1.7863,-1.7948,-1.8048,-1.8064,-1.8164,-1.8257,-1.8257,-1.8643,-1.8542,-1.8257,-1.8257,-1.8071,-1.7613,-1.685,-1.6285,-1.5913,-1.5153,-1.4867,-1.4771,-1.4388,-1.4298,-1.4298,-1.4298,-1.4298,-1.4298,-1.4298,-1.4298,-1.4298,-1.4298,-1.4298,-1.4196,-1.3613,-1.3511,-1.3221,-1.2242,-1.1864,-1.1657,-1.1162,-1.0495,-0.9992,-0.9797,-0.8869,-0.8151,-0.7975,-0.7542,-0.7139,-0.7139,-0.7139,-0.7112,-0.7044,-0.6973,-0.6898,-0.6824,-0.6678,-0.6586,-0.6427,-0.6237,-0.6002,-0.5705,-0.5704,-0.5557,-0.5277,-0.548,-0.5551,-0.5329,-0.5396,-0.5424,-0.5479,-0.5533,-0.5499,-0.5535,-0.5249,-0.5254,0.0,0.0,0.0,0.0,0.0,0.0,0.0,0.0,-0.7076,-0.8087,-0.8369,-0.8474,-0.8856,-0.9685,-1.0314,-1.0473,-1.0698,-1.0924,-1.0924,-1.126,-1.1109,-1.0171,-1.0628,-1.1082,-1.1156,-1.1463,-1.1658,-1.1858,-1.3017,-1.3698,-1.3511,-1.4771,-1.5724,-1.625,-1.619,-1.6842,-1.8218,-1.8234,-1.8427,-1.8888,-1.9072,-1.908,-1.9104,-1.892,-1.8827,-1.8827,-1.8827,-1.8827,-1.8827,-1.8827,-1.8827,-1.8735,-1.8164,-1.7512,-1.6864,-1.6008,-1.5629,-1.5534,-1.4962,-1.4675,-1.4484,-1.4484,-1.4394,-1.4298,-1.4298,-1.4298,-1.4298,-1.4298,-1.4298,-1.4298,-1.4298,-1.4298,-1.41,-1.3221,-1.3022,-1.2775,-1.1813,-1.1487,-1.1238,-1.112,-0.9929,-0.8976,-0.8906,-0.7975,-0.7177,-0.7146,-0.7139,-0.7139,-0.7139,-0.7041,-0.697,-0.697,-0.6834,-0.6732,-0.6702,-0.6481,-0.6291,-0.601,-0.5969,-0.5905,-0.5683,-0.5828,-0.5937,-0.594,-0.5792,-0.5833,-0.591,-0.5739,-0.5636,-0.567,-0.5673,-0.5586,-0.6762,-0.7536,0.0,-0.9015,-0.9155,-0.9729,0.0,0.0,-1.11,-1.1928,-1.1616,-1.1292,-1.1305,-1.1034,-1.0858,-1.0811,-1.0995,-1.1137,-1.1137,-1.1935,-1.2522,-1.2302,-1.1623,-1.1146,-1.117,-1.2242,-1.2926,-1.2926,-1.4924,-1.5798,-1.4885,-1.6278,-1.6828,-1.6445,-1.7117,-1.7956,-1.9055,-1.9704,-2.0249,-2.0718,-2.0283,-2.0102,-2.011,-1.9196,-1.8827,-1.8827,-1.8827,-1.8827,-1.8827,-1.8827,-1.8827,-1.8827,-1.8735,-1.8643,-1.8357,-1.6958,-1.6487,-1.6487,-1.6393,-1.5913,-1.5242,-1.5242,-1.4867,-1.4298,-1.4298,-1.4298,-1.4298,-1.4298,-1.4298,-1.4298,-1.4298,-1.4298,-1.4298,-1.41,-1.41,-1.4094,-1.3968,-1.3177,-1.2427,-1.2304,-1.0716,-0.9267,-0.8952,-0.8072,-0.7299,-0.7163,-0.7139,-0.7139,-0.7139,-0.7126,-0.7115,-0.7115,-0.699,-0.6848,-0.6712,-0.6671,-0.6644,-0.6627,-0.6607,-0.6515,-0.6348,-0.6348,-0.6283,-0.6071,-0.6233,-0.6392,-0.6468,-0.6468,-0.6365,-0.6319,-0.6148,-0.5888,-0.8974,0.0,0.0,0.0,-1.093,-1.1431,-1.2469,-1.2027,-1.1595,-1.2333,-1.2296,-1.2042,-1.151,-1.1682,-1.1804,0.0,-1.1599,-1.2047,-1.2047,-1.2926,-1.3555,-1.3412,-1.3329,-1.3221,-1.3221,-1.3709,-1.4376,-1.5216,-1.5704,-1.6278,-1.7016,-1.721,-1.7677,-1.8495,-1.8696,-1.9445,-2.095,-2.1059,-2.109,-2.1214,-2.1027,-2.0661,-2.0087,-1.9421,-1.9026,-1.8827,-1.8827,-1.8827,-1.8827,-1.8827,-1.8827,-1.8827,-1.8827,-1.8827,-1.8643,-1.7606,-1.7232,-1.7138,-1.6197,-1.5724,-1.5343,-1.4867,-1.458,-1.4298,-1.4298,-1.4298,-1.4298,-1.4298,-1.4298,-1.4298,-1.4298,-1.4298,-1.4298,-1.4298,-1.4298,-1.4298,-1.4298,-1.3908,-1.3584,-1.3576,-1.2289,-1.0995,-1.0254,-0.9216,-0.818,-0.7385,-0.7197,-0.7139,-0.7139,-0.7139,-0.7139,-0.7139,-0.7088,-0.6993,-0.6848,-0.6834,-0.6797,-0.6705,-0.6702,-0.6698,-0.6615,-0.6615,-0.6572,-0.6577,-0.6574,-0.656,-0.6705,-0.6524,-0.6464,-0.6432,-0.6248,-0.6198,-1.0107,0.0,0.0,-1.1612,-1.2143,-1.2626,-1.2958,-1.2505,-1.2143,-1.2736,-1.2908,-1.2731,-1.2026,-1.2539,0.0,-1.2057,-1.2592,-1.3119,-1.3119,-1.3747,-1.4147,-1.4127,-1.4407,-1.4797,-1.5248,-1.5343,-1.5717,-1.6835,-1.6835,-1.7296,-1.8495,-1.8419,-1.8928,-2.0137,-2.0146,-2.0885,-2.2492,-2.2317,-2.2089,-2.1796,-2.1882,-2.1396,-2.0337,-1.9814,-1.9368,-1.9113,-1.9113,-1.9066,-1.8978,-1.8978,-1.8915,-1.8827,-1.8827,-1.8827,-1.8735,-1.8164,-1.7971,-1.7785,-1.6466,-1.5906,-1.5629,-1.4867,-1.449,-1.4298,-1.4298,-1.4298,-1.4298,-1.4298,-1.4298,-1.4298,-1.4298,-1.4298,-1.4298,-1.4298,-1.4298,-1.4298,-1.4298,-1.4298,-1.4298,-1.4298,-1.3374,-1.2273,-1.1537,-1.0175,-0.8905,-0.8004,-0.7517,-0.7234,-0.7149,-0.7139,-0.7139,-0.7139,-0.7139,-0.7099,-0.6997,-0.6987,-0.6939,-0.6827,-0.682,-0.682,-0.682,-0.682,-0.6875,-0.6987,-0.681,-0.6773,-0.6881,-0.6649,-0.6579,-0.6582,-0.6542,-0.6441,0.0,0.0,-1.163,-1.2155,-1.2699,-1.3236,-1.3755,-1.387,-1.3854,-1.4226,-1.4087,-1.3812,-1.3818,-1.3824,-1.3824,-1.3824,-1.4034,-1.4292,-1.4292,-1.4075,-1.4102,-1.4644,-1.4452,-1.4952,0.0,-1.6842,-1.6842,-1.6936,-1.8964,-1.9795,-1.888,-2.0076,-2.0893,-2.0907,-2.1296,-2.1964,-2.2838,-2.3672,-2.3579,-2.2857,-2.3196,-2.2623,-2.1318,-2.0337,-1.9844,-1.9836,-1.9836,-1.9646,-1.9352,-1.9352,-1.9145,-1.8827,-1.8827,-1.8827,-1.8827,-1.8735,-1.8735,-1.8635,-1.7878,-1.7138,-1.6393,-1.5629,-1.4867,-1.4298,-1.4298,-1.4298,-1.4298,-1.4298,-1.4298,-1.4298,-1.4298,-1.4298,-1.4298,-1.4298,-1.4298,-1.4298,-1.4298,-1.4298,-1.4298,-1.4298,-1.3409,-1.2651,-1.2525,-1.0763,-0.9362,-0.9194,-0.8236,-0.7478,-0.718,-0.7139,-0.7139,-0.7139,-0.7139,-0.7139,-0.7136,-0.7132,-0.7132,-0.7129,-0.7126,-0.7126,-0.7126,-0.7126,-0.7129,-0.7132,-0.7044,-0.7048,-0.7054,-0.7024,-0.7005,-0.7008,-0.687,-0.6905,0.0,0.0,-1.1943,-1.2889,-1.3381,-1.3731,-1.4087,-1.4165,-1.4141,-1.4057,-1.3827,-1.3592,-1.3423,-1.3387,-1.3441,-1.3622,-1.387,-1.4099,-1.4268,-1.4417,-1.4697,-1.5338,-1.5785,0.0,0.0,0.0,0.0,-1.9047,-1.9247,-1.9704,-2.0628,-2.0881,-2.1173,-2.1859,-2.2231,-2.3027,-2.4089,-2.4373,-2.4317,-2.3906,-2.2823,-2.1717,-2.0712,-2.0408,-2.0083,-1.9868,-1.9868,-1.9805,-1.9677,-1.9463,-1.9304,-1.9161,-1.8923,-1.8827,-1.8827,-1.8827,-1.8827,-1.8735,-1.7978,-1.7232,-1.6487,-1.5629,-1.4867,-1.4298,-1.4298,-1.4298,-1.4298,-1.4298,-1.4298,-1.4298,-1.4298,-1.4298,-1.4298,-1.4298,-1.4298,-1.4298,-1.4298,-1.4298,-1.4298,-1.4298,-1.4004,-1.3488,-1.2726,-1.2032,-1.1087,-0.956,-0.8314,-0.7411,-0.7309,-0.7204,-0.7139,-0.7139,-0.7139,-0.7139,-0.7139,-0.7139,-0.7139,-0.7139,-0.7139,-0.7139,-0.7139,-0.7139,-0.7139,-0.7139,-0.7241,-0.7292,-0.7292,-0.7356,-0.7433,-0.7436,-0.7295,-0.7286,-1.2644,-1.3058,-1.3349,-1.4,-1.4477,-1.4841,-1.4734,-1.4601,-1.4339,-1.3701,-1.3338,-1.2976,-1.262,-1.2554,-1.2705,-1.3151,-1.3621,-1.405,-1.4232,-1.4968,-1.5618,-1.5982,-1.6793,0.0,0.0,0.0,0.0,-2.0158,-1.9985,-2.0417,-2.1843,-2.1633,-2.1808,-2.2656,-2.3298,-2.4003,-2.489,-2.5464,-2.5496,-2.4875,-2.3311,-2.1996,-2.0877,-2.1078,-2.0848,-2.0241,-2.0241,-2.017,-2.0035,-1.9828,-1.9598,-1.9352,-1.9113,-1.8939,-1.8827,-1.8827,-1.8827,-1.8735,-1.7978,-1.7412,-1.6857,-1.5717,-1.5057,-1.4675,-1.4394,-1.4298,-1.4298,-1.4298,-1.4298,-1.4298,-1.4298,-1.4298,-1.4298,-1.4298,-1.4298,-1.4298,-1.4298,-1.4298,-1.4298,-1.4298,-1.4298,-1.41,-1.3414,-1.2926,-1.1996,-0.9833,-0.8717,-0.7969,-0.755,-0.7366,-0.7282,-0.7227,-0.7221,-0.72,-0.7146,-0.7139,-0.7139,-0.7139,-0.7139,-0.7139,-0.7139,-0.7193,-0.7221,-0.7221,-0.7373,-0.7451,-0.7455,-0.7604,-0.7675,-0.7678,-0.7634,-0.7602,-1.2997,-1.4012,-1.5381,-1.5417,-1.6008,-1.6386,-1.5609,-1.5184,-1.4624,-1.3346,-1.262,-1.2071,0.0,0.0,-1.1763,-1.2536,-1.3515,-1.4282,-1.4374,-1.5837,-1.6861,0.0,0.0,0.0,0.0,0.0,0.0,-2.04,0.0,-2.1933,-2.2309,-2.2364,-2.2833,-2.3616,-2.4412,-2.4986,-2.5382,-2.6829,-2.701,-2.5741,-2.4698,-2.3329,-2.1827,-2.2325,-2.1928,-2.1019,-2.0925,-2.0734,-2.0416,-2.04,-2.0011,-1.9423,-1.9383,-1.9161,-1.8851,-1.8835,-1.8827,-1.8735,-1.7971,-1.7692,-1.7404,-1.5906,-1.5439,-1.5248,-1.4484,-1.4298,-1.4298,-1.4298,-1.4298,-1.4298,-1.4298,-1.4298,-1.4298,-1.4298,-1.4298,-1.4298,-1.4298,-1.4298,-1.4298,-1.4298,-1.4298,-1.4298,-1.4298,-1.3414,-1.195,-0.9998,-0.9462,-0.8909,-0.7722,-0.7604,-0.7543,-0.7397,-0.7383,-0.7322,-0.7177,-0.7163,-0.7163,-0.7163,-0.7163,-0.7163,-0.7163,-0.7305,-0.7383,-0.7383,-0.7533,-0.7611,-0.7611,-0.7753,-0.7824,-0.7828,-0.797,-0.8038,-1.448,-1.4689,-1.4965,-1.5285,-1.5534,-1.5758,-1.581,-1.5084,-1.4141,-1.3112,-1.1942,-1.0966,-1.0441,0.0,0.0,-1.2023,-1.3439,0.0,-1.5063,-1.6216,0.0,0.0,0.0,-1.9803,-2.1661,-2.1798,0.0,0.0,-2.2162,-2.249,-2.3128,-2.3727,-2.4448,-2.5238,-2.5734,-2.6335,-2.702,-2.74,-2.7189,-2.6502,-2.547,-2.4599,-2.38,-2.292,-2.2325,-2.203,-2.1224,-2.0869,-2.0766,-2.0504,-2.0289,-2.0083,-1.9574,-1.9312,-1.9201,-1.8931,-1.8827,-1.8735,-1.8542,-1.8164,-1.7505,-1.6574,-1.5913,-1.5248,-1.4484,-1.4298,-1.4298,-1.4298,-1.4298,-1.4298,-1.4298,-1.4298,-1.4298,-1.4298,-1.4298,-1.4298,-1.4298,-1.4298,-1.4298,-1.4298,-1.4298,-1.4298,-1.4298,-1.2829,-1.1365,-1.0877,-0.9371,-0.8217,-0.7777,-0.7665,-0.7584,-0.7546,-0.7543,-0.7526,-0.7485,-0.7482,-0.7482,-0.7482,-0.7482,-0.7482,-0.7482,-0.7519,-0.7543,-0.7543,-0.7685,-0.7756,-0.7756,-0.7909,-0.798,-0.798,-0.8021,-0.8038,-1.5715,-1.6123,-1.6459,-1.6466,-1.6556,-1.6487,-1.5984,-1.5106,-1.3906,-1.2221,-1.1153,0.0,-0.9506,0.0,0.0,0.0,0.0,0.0,-1.5139,-1.713,-1.8611,0.0,-2.0129,0.0,-2.2208,-2.2492,-2.2694,0.0,-2.301,-2.3407,-2.3948,-2.441,-2.5137,-2.6084,-2.6421,-2.703,-2.8081,-2.7788,-2.7295,-2.6607,-2.6157,-2.5382,-2.4285,-2.3511,-2.292,-2.2426,0.0,-2.0925,-2.0909,-2.071,-2.0535,-2.0337,-1.9797,-1.9495,-1.9328,-1.8962,-1.8827,-1.8827,-1.8827,-1.8542,-1.8071,-1.7326,-1.6756,-1.6278,-1.5534,-1.5057,-1.4771,-1.4771,-1.458,-1.4298,-1.4298,-1.4298,-1.4298,-1.4298,-1.4298,-1.4298,-1.4298,-1.4298,-1.4298,-1.4298,-1.4298,-1.4298,-1.4298,-1.3318,-1.2247,-1.1365,-1.0194,-0.9083,-0.8017,-0.7841,-0.7767,-0.7699,-0.7692,-0.7665,-0.7604,-0.76,-0.76,-0.76,-0.76,-0.76,-0.76,-0.7658,-0.7692,-0.7692,-0.7838,-0.7913,-0.7913,-0.7997,-0.8038,-0.8038,-0.8038,-0.8038,-1.6807,-1.7613,-1.8542,-1.7878,-1.7873,-1.7681,-1.605,-1.5046,-1.3726,-1.1162,0.0,-0.972,-0.8783,-0.9138,-0.9904,-1.0888,0.0,-1.4747,-1.5211,-1.8078,-1.9968,-1.9587,-2.1086,-2.2272,-2.2474,-2.2729,-2.3052,-2.3202,-2.3946,-2.4539,-2.485,-2.5012,-2.5589,-2.6733,-2.6839,-2.741,-2.8757,-2.807,-2.74,-2.6713,-2.6935,-2.6157,-2.4571,-2.4285,-2.3601,-2.2619,0.0,0.0,-2.0925,-2.0925,-2.0742,-2.0424,-2.0019,-1.9693,-1.9391,-1.8978,-1.8827,-1.8827,-1.8827,-1.8827,-1.8635,-1.7971,-1.7692,-1.7598,-1.6864,-1.6015,-1.5432,-1.5432,-1.4867,-1.4298,-1.4298,-1.4298,-1.4298,-1.4298,-1.4298,-1.4298,-1.4298,-1.4298,-1.4298,-1.4298,-1.4298,-1.4298,-1.4298,-1.4196,-1.3414,-1.1463,-1.1072,-1.0293,-0.8237,-0.8038,-0.7987,-0.7855,-0.7841,-0.779,-0.7668,-0.7658,-0.7658,-0.7658,-0.7658,-0.7658,-0.7658,-0.7777,-0.7841,-0.7841,-0.797,-0.8038,-0.8038,-0.8038,-0.8038,-0.8038,-0.8038,-0.8038,-1.7397,-1.7512,-1.7878,-1.7692,-1.7341,-1.6817,-1.6207,-1.4551,0.0,0.0,0.0,-0.8674,-0.8274,-0.9061,0.0,-1.0688,0.0,0.0,0.0,0.0,-1.9692,0.0,0.0,0.0,0.0,0.0,0.0,0.0,0.0,0.0,-2.5728,-2.6617,-2.7516,-2.8362,-2.8373,-2.856,-2.8757,-2.8653,-2.856,-2.8362,-2.7987,-2.761,-2.721,-2.5061,-2.3989,-2.3692,0.0,0.0,-2.0925,-2.0925,-2.0885,-2.0766,-2.0114,-1.9828,-1.9701,-1.9066,-1.8827,-1.8827,-1.8827,-1.8827,-1.8635,-1.7971,-1.7692,-1.7598,-1.6864,-1.6015,-1.5432,-1.5432,-1.4867,-1.4298,-1.4298,-1.4298,-1.4298,-1.4298,-1.4298,-1.4298,-1.4298,-1.4298,-1.4298,-1.4298,-1.4298,-1.4298,-1.4298,-1.3607,-1.2538,-1.1365,-1.0489,-0.941,-0.8137,-0.8038,-0.8028,-0.8004,-0.7997,-0.7991,-0.7967,-0.7963,-0.7963,-0.7963,-0.7963,-0.7963,-0.7963,-0.7987,-0.7997,-0.7997,-0.8024,-0.8038,-0.8038,-0.8038,-0.8038,-0.8038,-0.8038,-0.8038,-1.8126,-1.8164,-1.8257,-1.8257,-1.7625,-1.6722,-1.5636,0.0,0.0,0.0,0.0,-0.8586,-0.8443,0.0,0.0,0.0,0.0,0.0,0.0,0.0,0.0,0.0,0.0,0.0,0.0,0.0,0.0,0.0,0.0,0.0,-2.6816,-2.7672,-2.8175,-2.8175,-2.856,-2.8757,-2.8757,-2.8757,-2.8757,-2.8581,-2.829,-2.8102,-2.7715,-2.5954,-2.507,-2.4796,0.0,0.0,-2.1725,-2.1725,-2.142,-2.0869,-2.0345,-2.0027,-1.9805,-1.9296,-1.8994,-1.8827,-1.8827,-1.8827,-1.8735,-1.8357,-1.8257,-1.8164,-1.7893,-1.6951,-1.6008,-1.6008,-1.5153,-1.4298,-1.4298,-1.4298,-1.4298,-1.4298,-1.4298,-1.4298,-1.4298,-1.4298,-1.4298,-1.4298,-1.4298,-1.4298,-1.4298,-1.3902,-1.3216,-1.2145,-1.1072,-1.0096,-0.892,-0.8333,-0.8038,-0.8038,-0.8038,-0.8038,-0.8038,-0.8038,-0.8038,-0.8038,-0.8038,-0.8038,-0.8038,-0.8038,-0.8038,-0.8038,-0.8038,-0.8038,-0.8038,-0.8038,-0.8038,-0.8038,-0.8038,-0.8038,-1.8545,-1.8772,-1.8827,-1.8827,-1.793,-1.6627,-1.5006,-1.3386,0.0,0.0,-0.8977,-0.871,-0.8734,0.0,0.0,0.0,0.0,0.0,0.0,0.0,0.0,0.0,0.0,0.0,0.0,0.0,0.0,0.0,0.0,0.0,0.0,-2.8466,-2.8466,-2.7882,-2.8456,-2.8757,-2.8757,-2.8757,-2.8664,-2.8488,-2.8395,-2.8113,-2.7631,-2.6542,-2.5964,-2.5596,0.0,0.0,0.0,-2.2526,-2.1827,-2.0877,-2.0448,-2.0106,-1.9812,-1.9407,-1.9074,-1.8827,-1.8827,-1.8827,-1.8827,-1.8827,-1.8827,-1.8827,-1.8827,-1.78,-1.6588,-1.6588,-1.554,-1.4298,-1.4298,-1.4298,-1.4298,-1.4298,-1.4298,-1.4298,-1.4298,-1.4298,-1.4298,-1.4298,-1.4298,-1.4298,-1.4298,-1.4298,-1.3902,-1.2538,-1.1755,-1.0685,-0.941,-0.8531,-0.8038,-0.8038,-0.8038,-0.8038,-0.8038,-0.8038,-0.8038,-0.8038,-0.8038,-0.8038,-0.8038,-0.8038,-0.8038,-0.8038,-0.8038,-0.8038,-0.8038,-0.8038,-0.8038,-0.8038,-0.8038,-0.8038,-1.8335,-1.8581,-1.8827,-1.8827,-1.7556,-1.6015,-1.4895,0.0,0.0,-0.9628,-0.8852,-0.8416,-0.8749,-0.9096,0.0,0.0,0.0,0.0,0.0,0.0,0.0,0.0,0.0,0.0,0.0,0.0,0.0,0.0,0.0,0.0,0.0,-2.8746,-2.8757,-2.8653,-2.8746,-2.8757,-2.8757,-2.8757,-2.8757,-2.8757,-2.8488,-2.829,-2.7893,-2.6638,-2.5964,-2.5596,0.0,0.0,0.0,-2.2526,-2.1827,-2.0853,-2.0178,-1.9892,-1.9781,-1.9121,-1.8851,-1.8827,-1.8827,-1.8827,-1.8827,-1.8827,-1.8827,-1.8827,-1.8827,-1.78,-1.6588,-1.6588,-1.554,-1.4298,-1.4298,-1.4298,-1.4298,-1.4298,-1.4298,-1.4298,-1.4298,-1.4298,-1.4298,-1.4298,-1.4298,-1.4298,-1.4298,-1.4298,-1.3613,-1.1658,-1.1268,-1.0485,-0.8432,-0.8038,-0.8038,-0.8038,-0.8038,-0.8038,-0.8038,-0.8038,-0.8038,-0.8038,-0.8038,-0.8038,-0.8038,-0.8038,-0.8038,-0.8038,-0.8038,-0.8038,-0.8038,-0.8038,-0.8038,-0.8038,-0.8038,-0.8038,-1.8128,-1.8557,-1.8772,-1.8565,-1.735,-1.5872,-1.4609,0.0,-1.0693,-0.962,-0.8993,-0.878,-0.9113,-0.9454,-0.9895,0.0,-1.1335,-1.2392,-1.4388,0.0,0.0,0.0,0.0,0.0,0.0,0.0,0.0,0.0,0.0,0.0,0.0,-2.8757,-2.8757,-2.8757,-2.8757,-2.8757,-2.8757,-2.8757,-2.8757,-2.8757,-2.8664,-2.8477,-2.8196,-2.7515,-2.7136,-2.686,0.0,0.0,0.0,-2.3502,-2.2409,-2.0893,-2.0607,-2.0241,-1.9828,-1.955,-1.9185,-1.8827,-1.8827,-1.8827,-1.8827,-1.8827,-1.8827,-1.8735,-1.8257,-1.7419,-1.6487,-1.6008,-1.5153,-1.4298,-1.4298,-1.4298,-1.4298,-1.4298,-1.4298,-1.4298,-1.4298,-1.4298,-1.4298,-1.4298,-1.4298,-1.4298,-1.4298,-1.4298,-1.4004,-1.3221,-1.2538,-1.156,-1.0096,-0.9312,-0.8726,-0.8038,-0.8038,-0.8038,-0.8038,-0.8038,-0.8038,-0.8038,-0.8038,-0.8038,-0.8038,-0.8038,-0.8038,-0.8038,-0.8038,-0.8038,-0.8038,-0.8038,-0.8038,-0.8038,-0.8038,-0.8038,-1.7421,-1.8017,-1.8311,-1.8057,-1.6945,-1.5562,0.0,-1.2337,-1.0597,-0.9731,-0.9109,-0.8899,-0.9423,-0.966,-0.998,-1.074,-1.091,-1.163,-1.3504,-1.4675,0.0,0.0,0.0,0.0,0.0,0.0,0.0,0.0,0.0,0.0,0.0,-2.8757,-2.8757,-2.8757,-2.8757,-2.8757,-2.8757,-2.8757,-2.8757,-2.8757,-2.8757,-2.8664,-2.8395,-2.8196,-2.7914,0.0,0.0,0.0,0.0,-2.4088,-2.2802,-2.0901,-2.0694,-2.0305,-1.9836,-1.9638,-1.9248,-1.8827,-1.8827,-1.8827,-1.8827,-1.8827,-1.8827,-1.8643,-1.7699,-1.7044,-1.6393,-1.5629,-1.4867,-1.4298,-1.4298,-1.4298,-1.4298,-1.4298,-1.4298,-1.4298,-1.4298,-1.4298,-1.4298,-1.4298,-1.4298,-1.4298,-1.4298,-1.4298,-1.4202,-1.3902,-1.3216,-1.2339,-1.1365,-1.0583,-0.9801,-0.9019,-0.892,-0.8726,-0.8038,-0.8333,-0.8333,-0.8038,-0.8336,-0.8432,-0.8432,-0.8137,-0.8137,-0.8432,-0.8137,-0.8038,-0.8038,-0.8038,-0.8038,-0.8038,-0.8038,-0.8038,-1.6039,-1.6754,-1.7294,-1.7294,-1.623,-1.4911,0.0,-1.1972,-1.0367,-0.9994,-0.9044,-0.8648,-0.9691,-0.9588,-0.9562,-1.0364,-1.1374,-1.2464,-1.3483,-1.53,0.0,0.0,0.0,0.0,0.0,0.0,0.0,0.0,0.0,0.0,0.0,0.0,-2.8757,-2.8757,-2.8757,-2.8757,-2.8757,-2.8757,-2.8757,-2.8757,-2.8757,-2.8664,-2.8395,-2.8395,0.0,0.0,0.0,0.0,0.0,-2.4088,-2.2802,-2.0853,-2.0154,-1.9868,-1.9781,-1.909,-1.8835,-1.8827,-1.8827,-1.8827,-1.8827,-1.8827,-1.8827,-1.855,-1.7052,-1.6588,-1.6393,-1.5629,-1.4867,-1.4298,-1.4298,-1.4298,-1.4298,-1.4298,-1.4298,-1.4298,-1.4298,-1.4298,-1.4298,-1.4298,-1.4298,-1.4298,-1.4298,-1.4298,-1.3908,-1.2926,-1.2732,-1.2339,-1.1365,-1.117,-1.1175,-1.117,-1.117,-1.0293,-0.8134,-0.9019,-0.9118,-0.8038,-0.9019,-0.9608,-0.9608,-0.8528,-0.8531,-0.9608,-0.8528,-0.8038,-0.8038,-0.8038,-0.8038,-0.8038,-0.8038,-0.8038,-1.4522,-1.5118,-1.5419,-1.5173,-1.4426,-1.3537,-1.2703,-1.1257,-0.9966,-0.9562,-0.9046,-0.8734,-0.9009,-0.917,-0.9626,-1.0895,-1.138,0.0,0.0,0.0,0.0,0.0,0.0,0.0,0.0,0.0,0.0,0.0,0.0,0.0,0.0,0.0,-2.8757,-2.8757,-2.8757,-2.8757,-2.8757,-2.8757,-2.8757,-2.8757,-2.8757,-2.8757,-2.8664,-2.8488,0.0,0.0,0.0,0.0,0.0,-2.4482,-2.3302,-2.1878,-2.07,-2.0075,-1.9812,-1.9368,-1.9042,-1.8827,-1.8827,-1.8827,-1.8827,-1.8827,-1.8827,-1.8542,-1.7052,-1.6588,-1.6298,-1.5057,-1.4484,-1.4298,-1.4298,-1.4298,-1.4298,-1.4298,-1.4298,-1.4298,-1.4298,-1.4298,-1.4298,-1.4298,-1.4298,-1.4298,-1.4298,-1.4298,-1.4196,-1.3806,-1.3806,-1.3414,-1.2339,-1.2242,-1.195,-1.1268,-1.117,-1.0979,-1.0194,-1.0489,-1.0583,-1.0194,-1.0489,-1.0685,-1.0685,-1.0391,-1.0391,-1.0685,-1.0391,-0.9801,-0.9118,-0.9801,-0.9805,-0.9118,-0.8333,-0.8038,-1.2933,-1.3613,-1.3937,-1.3783,-1.3306,-1.2671,-1.1821,-1.0635,-0.9591,-0.9234,-0.8754,-0.848,-0.8693,-0.9001,-0.956,-1.0595,-1.1039,0.0,0.0,0.0,0.0,0.0,0.0,0.0,0.0,0.0,0.0,0.0,0.0,0.0,0.0,0.0,-2.8757,-2.8757,-2.8757,-2.8757,-2.8757,-2.8757,-2.8757,-2.8757,-2.8757,-2.8757,-2.8757,0.0,0.0,0.0,0.0,0.0,0.0,-2.508,-2.4097,-2.2959,-2.146,-2.0736,-2.0377,-1.9525,-1.9026,-1.8827,-1.8827,-1.8827,-1.8827,-1.8827,-1.845,-1.78,-1.6864,-1.6204,-1.5534,-1.4586,-1.4298,-1.4298,-1.4298,-1.4298,-1.4298,-1.4298,-1.4298,-1.4298,-1.4298,-1.4298,-1.4298,-1.4298,-1.4298,-1.4298,-1.4298,-1.4298,-1.4298,-1.4298,-1.4298,-1.41,-1.3414,-1.3318,-1.3022,-1.2441,-1.2344,-1.2344,-1.2344,-1.195,-1.156,-1.1268,-1.156,-1.1755,-1.1755,-1.1365,-1.1365,-1.1755,-1.1365,-1.0877,-1.0194,-1.0877,-1.0685,-0.9608,-0.892,-0.8432,0.0,-1.2185,-1.2641,-1.283,-1.2583,-1.2083,-1.1106,-1.0089,0.0,-0.8941,-0.8233,-0.7913,-0.8706,-0.8985,-0.9358,-0.9948,0.0,0.0,0.0,0.0,0.0,0.0,0.0,0.0,0.0,0.0,0.0,0.0,0.0,0.0,0.0,0.0,0.0,-2.8757,-2.8757,-2.8757,-2.8757,-2.8757,-2.8757,-2.8757,-2.8757,-2.8757,-2.8757,0.0,0.0,0.0,0.0,0.0,0.0,-2.5877,-2.5089,-2.3916,-2.2189,-2.1509,-2.1207,-1.9479,-1.8851,-1.8827,-1.8827,-1.8827,-1.8827,-1.8827,-1.78,-1.6588,-1.6588,-1.5534,-1.4298,-1.4298,-1.4298,-1.4298,-1.4298,-1.4298,-1.4298,-1.4298,-1.4298,-1.4298,-1.4298,-1.4298,-1.4298,-1.4298,-1.4298,-1.4298,-1.4298,-1.4298,-1.4298,-1.4298,-1.4298,-1.4298,-1.4298,-1.4298,-1.4298,-1.4298,-1.4298,-1.4298,-1.4298,-1.3414,-1.2436,-1.1463,-1.2339,-1.2829,-1.2829,-1.195,-1.1853,-1.2829,-1.1853,-1.1365,-1.1463,-1.1268,-1.0681,-0.9801,-0.9702,-0.9217,-0.9455,0.0,-1.0179,-1.0272,-1.0158,-1.0039,0.0,-0.9167,-0.8602,-0.8486,0.0,0.0,-0.8924,-0.8884,0.0,0.0,0.0,0.0,0.0,0.0,0.0,0.0,0.0,0.0,0.0,0.0,0.0,0.0,0.0,0.0,0.0,0.0,0.0,-2.8839,-2.8757,-2.8757,-2.8757,-2.8757,-2.8757,-2.8757,-2.8757,-2.8757,-2.8757,0.0,0.0,0.0,0.0,0.0,-2.741,-2.6167,-2.5089,-2.3943,-2.2486,-2.1256,-2.0192,-1.9486,-1.9066,-1.8827,-1.8827,-1.8827,-1.8827,-1.8827,-1.78,-1.6588,-1.6588,-1.5534,-1.4298,-1.4298,-1.4298,-1.4298,-1.4298,-1.4298,-1.4298,-1.4298,-1.4298,-1.4298,-1.4298,-1.4298,-1.4298,-1.4298,-1.4298,-1.4298,-1.4298,-1.4298,-1.4298,-1.4298,-1.4298,-1.4298,-1.4298,-1.4298,-1.4298,-1.4298,-1.4298,-1.4298,-1.4298,-1.41,-1.3806,-1.3613,-1.3806,-1.3902,-1.3902,-1.3709,-1.3709,-1.3908,-1.2926,-1.2732,-1.3613,-1.195,-1.1463,-1.195,-1.117,-1.0685,-0.8481,-0.9081,-0.9704,-0.9842,-0.989,-0.9754,-0.9486,-0.8753,0.0,0.0,0.0,0.0,0.0,0.0,0.0,0.0,0.0,0.0,0.0,0.0,0.0,0.0,0.0,0.0,0.0,0.0,0.0,0.0,0.0,0.0,0.0,0.0,0.0,0.0,-2.8309,-2.8528,-2.8757,-2.8757,-2.8757,-2.8757,-2.8757,-2.8757,-2.8757,0.0,0.0,0.0,0.0,0.0,-2.7893,-2.6849,-2.5663,-2.4466,-2.2997,-2.1648,-2.0227,-1.9429,-1.8994,-1.8827,-1.8827,-1.8827,-1.8827,-1.8827,-1.78,-1.6588,-1.6588,-1.5534,-1.4298,-1.4298,-1.4298,-1.4298,-1.4298,-1.4298,-1.4298,-1.4298,-1.4298,-1.4298,-1.4298,-1.4298,-1.4298,-1.4298,-1.4298,-1.4298,-1.4298,-1.4298,-1.4298,-1.4298,-1.4298,-1.4298,-1.4298,-1.4298,-1.4298,-1.4298,-1.4298,-1.4298,-1.4298,-1.4298,-1.4298,-1.4298,-1.4298,-1.4298,-1.4298,-1.4298,-1.4298,-1.4298,-1.3709,-1.3709,-1.4298,-1.3125,-1.2635,-1.2727,-1.2145,-1.1658,-0.8116,-0.905,-1.0089,-1.0179,-1.0311,-1.0195,-0.9483,0.0,0.0,0.0,0.0,0.0,0.0,0.0,0.0,0.0,0.0,0.0,0.0,0.0,0.0,0.0,0.0,0.0,0.0,0.0,0.0,0.0,0.0,0.0,0.0,0.0,0.0,-2.7315,-2.7719,-2.8123,-2.8528,-2.868,-2.8757,-2.8757,-2.8757,-2.8757,-2.8757,-2.8757,0.0,0.0,0.0,0.0,-2.7893,-2.7263,-2.6144,-2.4811,-2.3335,-2.1893,-2.05,-1.9289,-1.8875,-1.8827,-1.8827,-1.8827,-1.8827,-1.8827,-1.78,-1.6588,-1.6588,-1.5534,-1.4298,-1.4298,-1.4298,-1.4298,-1.4298,-1.4298,-1.4298,-1.4298,-1.4298,-1.4298,-1.4298,-1.4298,-1.4298,-1.4298,-1.4298,-1.4298,-1.4298,-1.4298,-1.4298,-1.4298,-1.4298,-1.4298,-1.4298,-1.4298,-1.4298,-1.4298,-1.4298,-1.4298,-1.4298,-1.4298,-1.4298,-1.4298,-1.4298,-1.4298,-1.4298,-1.4298,-1.4298,-1.4298,-1.4298,-1.4298,-1.4298,-1.4298,-1.3806,-1.2926,-1.2926,-1.2533,-0.8295,-0.9148,-0.9775,-0.9136,-0.9432,-0.9735,-0.9054,0.0,0.0,0.0,0.0,0.0,0.0,0.0,0.0,0.0,0.0,0.0,0.0,0.0,0.0,0.0,0.0,0.0,0.0,0.0,0.0,0.0,0.0,0.0,0.0,0.0,0.0,-2.7304,-2.7381,-2.7457,-2.7534,-2.8342,-2.8757,-2.8757,-2.8757,-2.8757,-2.8757,-2.8757,-2.8664,0.0,0.0,-2.7904,-2.7505,-2.6064,-2.4908,-2.3734,-2.2292,-2.0889,-1.9636,-1.9399,-1.909,-1.8827,-1.8827,-1.8827,-1.8827,-1.8827,-1.78,-1.6588,-1.6588,-1.5534,-1.4298,-1.4298,-1.4298,-1.4298,-1.4298,-1.4298,-1.4298,-1.4298,-1.4298,-1.4298,-1.4298,-1.4298,-1.4298,-1.4298,-1.4298,-1.4298,-1.4298,-1.4298,-1.4298,-1.4298,-1.4298,-1.4298,-1.4298,-1.4298,-1.4298,-1.4298,-1.4298,-1.4298,-1.4298,-1.4298,-1.4298,-1.4298,-1.4298,-1.4298,-1.4298,-1.4298,-1.4298,-1.4298,-1.4298,-1.4298,-1.4298,-1.4298,-1.4202,-1.4004,-1.4004,-1.4004,-0.7739,-0.8617,-0.9326,-0.8645,-0.9252,-0.9784,-0.8987,0.0,0.0,0.0,0.0,0.0,0.0,0.0,0.0,0.0,0.0,0.0,0.0,0.0,0.0,0.0,0.0,0.0,0.0,0.0,0.0,0.0,0.0,0.0,0.0,0.0,0.0,0.0,-2.6802,-2.6944,-2.6944,-2.7632,-2.7981,-2.7981,-2.7981,-2.7981,-2.7981,-2.7981,-2.7891,-2.7618,0.0,-2.707,-2.6783,-2.5438,-2.4085,-2.2823,-2.1611,-2.0295,-1.9082,-1.9082,-1.897,-1.8827,-1.8827,-1.8827,-1.8827,-1.8827,-1.8079,-1.7138,-1.6676,-1.5818,-1.4771,-1.4394,-1.4298,-1.4298,-1.4298,-1.4298,-1.4298,-1.4298,-1.4298,-1.4298,-1.4298,-1.4298,-1.4298,-1.4298,-1.4298,-1.4298,-1.4298,-1.4298,-1.4298,-1.4298,-1.4298,-1.4298,-1.4298,-1.4298,-1.4298,-1.4298,-1.4298,-1.4298,-1.4298,-1.4298,-1.4298,-1.4298,-1.4298,-1.4298,-1.4298,-1.4298,-1.4298,-1.4298,-1.4298,-1.4298,-1.4298,-1.4298,-1.4298,-1.4298,-1.4298,-1.4298,-0.7371,-0.8194,-0.8875,-0.84,0.0,-0.9839,-0.9036,0.0,0.0,0.0,0.0,0.0,0.0,0.0,0.0,0.0,0.0,0.0,0.0,0.0,0.0,0.0,0.0,0.0,0.0,0.0,0.0,0.0,0.0,0.0,0.0,0.0,0.0,0.0,-2.6267,-2.6463,-2.6463,-2.6802,-2.7086,-2.7315,-2.7315,-2.7315,-2.7315,-2.7315,-2.7138,-2.6872,-2.6704,-2.6346,-2.5785,-2.4572,-2.3221,-2.1915,-2.0804,-1.9785,-1.8827,-1.8827,-1.8827,-1.8827,-1.8827,-1.8827,-1.8827,-1.8827,-1.8257,-1.7598,-1.6864,-1.6015,-1.5248,-1.4484,-1.4298,-1.4298,-1.4298,-1.4298,-1.4298,-1.4298,-1.4298,-1.4298,-1.4298,-1.4298,-1.4298,-1.4298,-1.4298,-1.4298,-1.4298,-1.4298,-1.4298,-1.4298,-1.4298,-1.4298,-1.4298,-1.4298,-1.4298,-1.4298,-1.4298,-1.4298,-1.4298,-1.4298,-1.4298,-1.4298,-1.4298,-1.4298,-1.4298,-1.4298,-1.4298,-1.4298,-1.4298,-1.4298,-1.4298,-1.4298,-1.4298,-1.4298,-1.4298,-1.4298,-0.7922,-0.8425,-0.8653,-0.8312,-0.9004,0.0,-0.908,-0.9285,0.0,0.0,0.0,0.0,0.0,0.0,0.0,0.0,0.0,0.0,0.0,0.0,0.0,0.0,0.0,0.0,0.0,0.0,0.0,0.0,0.0,0.0,0.0,0.0,0.0,0.0,0.0,-2.595,-2.595,-2.5983,-2.6441,-2.7315,-2.7315,-2.7315,-2.7315,-2.7315,-2.705,-2.6615,-2.6615,-2.5875,-2.4549,-2.3145,-2.1951,-2.0864,-1.9527,-1.8843,-1.8827,-1.8827,-1.8827,-1.8827,-1.8827,-1.8827,-1.8827,-1.8827,-1.8257,-1.7598,-1.6864,-1.6015,-1.5248,-1.4484,-1.4298,-1.4298,-1.4298,-1.4298,-1.4298,-1.4298,-1.4298,-1.4298,-1.4298,-1.4298,-1.4298,-1.4298,-1.4298,-1.4298,-1.4298,-1.4298,-1.4298,-1.4298,-1.4298,-1.4298,-1.4298,-1.4298,-1.4298,-1.4298,-1.4298,-1.4298,-1.4298,-1.4298,-1.4298,-1.4298,-1.4298,-1.4298,-1.4298,-1.4298,-1.4298,-1.4298,-1.4298,-1.4298,-1.4298,-1.4298,-1.4298,-1.4298,-1.4298,-1.4298,-0.7331,-0.7764,-0.792,-0.7842,-0.8346,0.0,0.0,0.0,0.0,0.0,0.0,0.0,0.0,0.0,0.0,0.0,0.0,0.0,0.0,0.0,0.0,0.0,0.0,0.0,0.0,0.0,0.0,0.0,0.0,0.0,0.0,0.0,0.0,0.0,0.0,-2.5895,-2.5895,-2.5895,-2.6081,-2.6431,-2.6431,-2.6431,-2.6431,-2.6431,-2.6174,-2.5732,-2.5732,-2.4928,-2.3574,-2.2429,-2.1373,-2.0446,-1.9236,-1.8827,-1.8827,-1.8827,-1.8827,-1.8827,-1.8827,-1.8827,-1.8827,-1.8827,-1.8635,-1.8164,-1.6958,-1.6393,-1.5913,-1.4682,-1.4298,-1.4298,-1.4298,-1.4298,-1.4298,-1.4298,-1.4298,-1.4298,-1.4298,-1.4298,-1.4298,-1.4298,-1.4298,-1.4298,-1.4298,-1.4298,-1.4298,-1.4298,-1.4298,-1.4298,-1.4298,-1.4298,-1.4298,-1.4298,-1.4298,-1.4298,-1.4298,-1.4298,-1.4298,-1.4298,-1.4298,-1.4298,-1.4298,-1.4298,-1.4298,-1.4298,-1.4298,-1.4298,-1.4298,-1.4298,-1.4298,-1.4298,-1.4298,-1.4298,-0.6937,-0.7352,-0.7584,0.0,0.0,0.0,-0.8862,0.0,0.0,0.0,0.0,0.0,0.0,0.0,0.0,0.0,0.0,0.0,0.0,0.0,0.0,0.0,0.0,0.0,0.0,0.0,0.0,0.0,0.0,0.0,0.0,0.0,0.0,0.0,0.0,0.0,-2.5895,-2.5895,-2.5895,-2.5895,-2.5895,-2.5895,-2.5895,-2.5812,-2.5549,-2.52,-2.484,-2.3877,-2.257,-2.1686,-2.0709,-1.972,-1.9096,-1.8827,-1.8827,-1.8827,-1.8827,-1.8827,-1.8827,-1.8827,-1.8827,-1.8827,-1.8827,-1.8542,-1.7052,-1.6588,-1.6298,-1.4771,-1.4298,-1.4298,-1.4298,-1.4298,-1.4298,-1.4298,-1.4298,-1.4298,-1.4298,-1.4298,-1.4298,-1.4298,-1.4298,-1.4298,-1.4298,-1.4298,-1.4298,-1.4298,-1.4298,-1.4298,-1.4298,-1.4298,-1.4298,-1.4298,-1.4298,-1.4298,-1.4298,-1.4298,-1.4298,-1.4298,-1.4298,-1.4298,-1.4298,-1.4298,-1.4298,-1.4298,-1.4298,-1.4298,-1.4298,-1.4298,-1.4298,-1.4298,-1.4298,-1.4298,-0.6961,-0.7327,0.0,0.0,0.0,0.0,0.0,0.0,0.0,0.0,0.0,0.0,0.0,0.0,0.0,0.0,0.0,0.0,0.0,0.0,0.0,0.0,0.0,0.0,0.0,0.0,0.0,0.0,0.0,0.0,0.0,0.0,0.0,0.0,0.0,0.0,-2.5906,-2.5895,-2.5895,-2.5895,-2.5895,-2.5895,-2.5895,-2.5644,-2.5464,-2.5115,-2.3963,-2.2736,-2.1606,-2.0701,-1.972,-1.8827,-1.8827,-1.8827,-1.8827,-1.8827,-1.8827,-1.8827,-1.8827,-1.8827,-1.8827,-1.8827,-1.8827,-1.855,-1.7052,-1.6588,-1.6298,-1.4777,-1.4298,-1.4298,-1.4298,-1.4298,-1.4298,-1.4298,-1.4298,-1.4298,-1.4298,-1.4298,-1.4298,-1.4298,-1.4298,-1.4298,-1.4298,-1.4298,-1.4298,-1.4298,-1.4298,-1.4298,-1.4298,-1.4298,-1.4298,-1.4298,-1.4298,-1.4298,-1.4298,-1.4298,-1.4298,-1.4298,-1.4298,-1.4298,-1.4298,-1.4298,-1.4298,-1.4298,-1.4298,-1.4298,-1.4298,-1.4298,-1.4298,-1.4298,-1.4298,-1.4298,-0.6877,0.0,0.0,0.0,0.0,0.0,0.0,0.0,0.0,0.0,0.0,0.0,0.0,0.0,0.0,0.0,0.0,0.0,0.0,0.0,0.0,0.0,0.0,0.0,0.0,0.0,0.0,0.0,0.0,0.0,0.0,0.0,0.0,0.0,0.0,0.0,-2.5654,-2.5644,-2.5728,-2.5895,-2.5738,-2.5728,-2.5895,-2.5644,-2.5464,-2.5115,-2.3963,-2.2736,-2.1606,-1.9903,-1.9096,-1.8827,-1.8827,-1.8827,-1.8827,-1.8827,-1.8827,-1.8827,-1.8827,-1.8827,-1.8827,-1.8827,-1.8827,-1.8643,-1.7699,-1.7044,-1.6393,-1.5343,-1.4675,-1.4298,-1.4298,-1.4298,-1.4298,-1.4298,-1.4298,-1.4298,-1.4298,-1.4298,-1.4298,-1.4298,-1.4298,-1.4298,-1.4298,-1.4298,-1.4298,-1.4298,-1.4298,-1.4298,-1.4298,-1.4298,-1.4298,-1.4298,-1.4298,-1.4298,-1.4298,-1.4298,-1.4298,-1.4298,-1.4298,-1.4298,-1.4298,-1.4298,-1.4298,-1.4298,-1.4298,-1.4298,-1.4298,-1.4298,-1.4298,-1.4298,-1.4298,-1.4298,-0.7364,0.0,0.0,0.0,0.0,0.0,0.0,0.0,0.0,0.0,0.0,0.0,0.0,0.0,0.0,0.0,0.0,0.0,0.0,0.0,0.0,0.0,0.0,0.0,0.0,0.0,0.0,0.0,0.0,0.0,0.0,0.0,0.0,0.0,0.0,0.0,-2.4861,-2.5211,-2.5559,-2.5812,-2.5559,-2.5559,-2.5728,-2.5559,-2.5115,-2.4584,-2.2902,-2.1587,-2.0439,-1.9271,-1.8827,-1.8827,-1.8827,-1.8827,-1.8827,-1.8827,-1.8827,-1.8827,-1.8827,-1.8827,-1.8827,-1.8827,-1.8827,-1.8635,-1.7606,-1.6951,-1.6393,-1.5248,-1.4675,-1.4298,-1.4298,-1.4298,-1.4298,-1.4298,-1.4298,-1.4298,-1.4298,-1.4298,-1.4298,-1.4298,-1.4298,-1.4298,-1.4298,-1.4298,-1.4298,-1.4298,-1.4298,-1.4298,-1.4298,-1.4298,-1.4298,-1.4298,-1.4298,-1.4298,-1.4298,-1.4298,-1.4298,-1.4298,-1.4298,-1.4298,-1.4298,-1.4298,-1.4298,-1.4298,-1.4298,-1.4298,-1.4298,-1.4298,-1.4298,-1.4298,-1.4298,-1.4298,0.0,0.0,0.0,0.0,0.0,0.0,0.0,0.0,0.0,0.0,0.0,0.0,0.0,0.0,0.0,0.0,0.0,0.0,0.0,0.0,0.0,0.0,0.0,0.0,0.0,0.0,0.0,0.0,0.0,0.0,0.0,0.0,0.0,0.0,0.0,0.0,-2.379,-2.4669,-2.5285,0.0,-2.5285,-2.5295,-2.5559,-2.5295,-2.4584,-2.3444,-2.123,-1.972,-1.8827,-1.8827,-1.8827,-1.8827,-1.8827,-1.8827,-1.8827,-1.8827,-1.8827,-1.8827,-1.8827,-1.8827,-1.8827,-1.8735,-1.8735,-1.845,-1.7052,-1.6588,-1.6204,-1.4771,-1.4394,-1.4298,-1.4298,-1.4298,-1.4298,-1.4298,-1.4298,-1.4298,-1.4298,-1.4298,-1.4298,-1.4298,-1.4298,-1.4298,-1.4298,-1.4298,-1.4298,-1.4298,-1.4298,-1.4298,-1.4298,-1.4298,-1.4298,-1.4298,-1.4298,-1.4298,-1.4298,-1.4298,-1.4298,-1.4298,-1.4298,-1.4298,-1.4298,-1.4298,-1.4298,-1.4298,-1.4298,-1.4298,-1.4298,-1.4298,-1.4298,-1.4298,-1.4298,-1.4298,0.0,-0.689,0.0,0.0,0.0,0.0,0.0,0.0,0.0,0.0,0.0,0.0,0.0,0.0,0.0,0.0,0.0,0.0,0.0,0.0,0.0,0.0,0.0,0.0,0.0,0.0,0.0,0.0,0.0,0.0,0.0,0.0,0.0,0.0,0.0,-2.2561,-2.3521,-2.4498,-2.5031,0.0,-2.5031,-2.5115,-2.5285,-2.5031,-2.3983,-2.2041,-2.0881,-1.972,-1.8827,-1.8827,-1.8827,-1.8827,-1.8827,-1.8827,-1.8827,-1.8827,-1.8827,-1.8827,-1.8827,-1.8827,-1.8727,-1.8164,-1.7971,-1.7792,-1.6864,-1.6204,-1.5629,-1.5248,-1.4771,-1.4298,-1.4298,-1.4298,-1.4298,-1.4298,-1.4298,-1.4298,-1.4298,-1.4298,-1.4298,-1.4298,-1.4298,-1.4298,-1.4298,-1.4298,-1.4298,-1.4298,-1.4298,-1.4298,-1.4298,-1.4298,-1.4298,-1.4298,-1.4298,-1.4298,-1.4298,-1.4298,-1.4298,-1.4298,-1.4298,-1.4298,-1.4298,-1.4298,-1.4298,-1.4298,-1.4298,-1.4298,-1.4298,-1.4298,-1.4298,-1.4298,-1.4298,-1.4298,0.0,0.0,0.0,0.0,0.0,0.0,0.0,0.0,0.0,0.0,0.0,0.0,0.0,0.0,0.0,0.0,0.0,0.0,0.0,0.0,0.0,0.0,0.0,0.0,0.0,0.0,0.0,0.0,0.0,0.0,0.0,0.0,0.0,0.0,-2.061,-2.1409,-2.1933,-2.3357,-2.4145,-2.4317,-2.4605,-2.4509,-2.4145,-2.3714,-2.2561,-2.097,-1.9994,-1.9271,-1.8827,-1.8827,-1.8827,-1.8827,-1.8827,-1.8827,-1.8827,-1.8827,-1.8827,-1.8827,-1.8827,-1.8827,-1.8735,-1.835,-1.7978,-1.7598,-1.6864,-1.6015,-1.5343,-1.4962,-1.458,-1.4298,-1.4298,-1.4298,-1.4298,-1.4298,-1.4298,-1.4298,-1.4298,-1.4298,-1.4298,-1.4298,-1.4298,-1.4298,-1.4298,-1.4298,-1.4298,-1.4298,-1.4298,-1.4298,-1.4298,-1.4298,-1.4298,-1.4298,-1.4298,-1.4298,-1.4298,-1.4298,-1.4298,-1.4298,-1.4298,-1.4298,-1.4298,-1.4298,-1.4298,-1.4298,-1.4298,-1.4298,-1.4298,-1.4298,-1.4298,-1.4298,-1.4298,-1.4298,0.0,0.0,0.0,0.0,0.0,0.0,0.0,0.0,0.0,0.0,0.0,0.0,0.0,0.0,0.0,0.0,0.0,0.0,0.0,0.0,0.0,0.0,0.0,0.0,0.0,0.0,0.0,0.0,0.0,0.0,0.0,0.0,-1.8827,-1.8827,-1.9812,-2.0339,-2.0339,-2.212,-2.3173,-2.3347,-2.3993,-2.3734,-2.2833,-2.2031,-2.123,-2.0249,-1.9279,-1.8827,-1.8827,-1.8827,-1.8827,-1.8827,-1.8827,-1.8827,-1.8827,-1.8827,-1.8827,-1.8827,-1.8827,-1.8827,-1.8735,-1.8635,-1.8164,-1.7505,-1.6669,-1.5913,-1.5248,-1.4484,-1.4298,-1.4298,-1.4298,-1.4298,-1.4298,-1.4298,-1.4298,-1.4298,-1.4298,-1.4298,-1.4298,-1.4298,-1.4298,-1.4298,-1.4298,-1.4298,-1.4298,-1.4298,-1.4298,-1.4298,-1.4298,-1.4298,-1.4298,-1.4298,-1.4298,-1.4298,-1.4298,-1.4298,-1.4298,-1.4298,-1.4298,-1.4298,-1.4298,-1.4298,-1.4298,-1.4298,-1.4298,-1.4298,-1.4298,-1.4298,-1.4298,-1.4298,-1.4298,-1.4298,0.0,0.0,0.0,0.0,0.0,0.0,0.0,0.0,0.0,0.0,0.0,0.0,0.0,0.0,0.0,0.0,0.0,0.0,0.0,0.0,0.0,0.0,0.0,0.0,0.0,0.0,0.0,0.0,0.0,0.0,0.0,-1.8827,-1.8827,-1.8827,-1.9812,-2.0339,-2.0339,-2.212,-2.3096,-2.3183,-2.327,-2.2833,-2.1872,-2.097,-2.043,-2.0249,-1.9279,-1.8827,-1.8827,-1.8827,-1.8827,-1.8827,-1.8827,-1.8827,-1.8827,-1.8827,-1.8827,-1.8827,-1.8827,-1.8827,-1.8735,-1.8064,-1.7785,-1.7412,-1.6001,-1.5534,-1.5248,-1.4484,-1.4298,-1.4298,-1.4298,-1.4298,-1.4298,-1.4298,-1.4298,-1.4298,-1.4298,-1.4298,-1.4298,-1.4298,-1.4298,-1.4298,-1.4298,-1.4298,-1.4298,-1.4298,-1.4298,-1.4298,-1.4298,-1.4298,-1.4298,-1.4298,-1.4298,-1.4298,-1.4298,-1.4298,-1.4298,-1.4298,-1.4298,-1.4298,-1.4298,-1.4298,-1.4298,-1.4298,-1.4298,-1.4298,-1.4298,-1.4298,-1.4298,-1.4298,-1.4298,-1.4298,-0.4814,0.0,0.0,0.0,0.0,0.0,0.0,0.0,0.0,0.0,0.0,0.0,0.0,0.0,0.0,0.0,0.0,0.0,0.0,0.0,0.0,0.0,0.0,0.0,0.0,0.0,0.0,0.0,0.0,0.0,-1.8827,-1.8827,-1.8827,-1.8827,-1.9271,-1.972,-2.0249,-2.1686,-2.2843,-2.3907,-2.3367,-2.257,-2.1695,-2.0709,-1.9985,-1.9455,-1.9004,-1.8827,-1.8827,-1.8827,-1.8827,-1.8827,-1.8827,-1.8827,-1.8827,-1.8827,-1.8827,-1.8827,-1.8827,-1.8827,-1.8735,-1.845,-1.8071,-1.7591,-1.6842,-1.6379,-1.5913,-1.5153,-1.4962,-1.4867,-1.4394,-1.4298,-1.4298,-1.4298,-1.4298,-1.4298,-1.4298,-1.4298,-1.4298,-1.4298,-1.4298,-1.4298,-1.4298,-1.4298,-1.4298,-1.4298,-1.4298,-1.4298,-1.4298,-1.4298,-1.4298,-1.4298,-1.4298,-1.4298,-1.4298,-1.4298,-1.4298,-1.4298,-1.4298,-1.4298,-1.4298,-1.4298,-1.4298,-1.4298,-1.4298,-1.4298,-1.4298,-1.4298,-1.4298,-1.4298,-1.4298,-1.4298,0.0,0.0,-0.6182,0.0,0.0,0.0,0.0,0.0,0.0,0.0,0.0,0.0,0.0,0.0,0.0,0.0,0.0,0.0,0.0,0.0,0.0,0.0,0.0,0.0,0.0,0.0,0.0,0.0,0.0,0.0,-1.8684,-1.8692,-1.8732,-1.8827,-1.9004,-1.9538,-2.0249,-2.1507,-2.2755,-2.409,-2.3193,-2.2217,-2.1329,-2.0348,-1.9538,-1.8827,-1.8827,-1.8827,-1.8827,-1.8827,-1.8827,-1.8827,-1.8827,-1.8827,-1.8827,-1.8827,-1.8827,-1.8827,-1.8827,-1.8827,-1.8827,-1.8827,-1.845,-1.7971,-1.7785,-1.7318,-1.6763,-1.5913,-1.5724,-1.5629,-1.5057,-1.4771,-1.4675,-1.4867,-1.4586,-1.4298,-1.4298,-1.4298,-1.4298,-1.4298,-1.4298,-1.4298,-1.4298,-1.4298,-1.4298,-1.4298,-1.4298,-1.4298,-1.4298,-1.4298,-1.4298,-1.4298,-1.4298,-1.4298,-1.4298,-1.4298,-1.4298,-1.4298,-1.4298,-1.4298,-1.4298,-1.4298,-1.4298,-1.4298,-1.4298,-1.4298,-1.4298,-1.4298,-1.4298,-1.4298,-1.4298,-1.4298,0.0,-0.4707,0.0,-0.6108,0.0,0.0,0.0,0.0,0.0,0.0,0.0,0.0,0.0,0.0,0.0,0.0,0.0,0.0,0.0,0.0,0.0,0.0,0.0,0.0,0.0,0.0,0.0,0.0,0.0,0.0,-1.8311,-1.8327,-1.8478,-1.8819,-1.972,-2.0257,-2.0339,-2.212,-2.3096,-2.3183,-2.2217,-2.1248,-2.0339,-1.9363,-1.8827,-1.8827,-1.8827,-1.8827,-1.8827,-1.8827,-1.8827,-1.8827,-1.8827,-1.8827,-1.8827,-1.8827,-1.8827,-1.8827,-1.8827,-1.8827,-1.8827,-1.8827,-1.8735,-1.8635,-1.7878,-1.7692,-1.7505,-1.677,-1.6581,-1.6487,-1.6487,-1.5913,-1.5534,-1.6298,-1.5343,-1.4298,-1.4298,-1.4298,-1.4298,-1.4298,-1.4298,-1.4298,-1.4298,-1.4298,-1.4298,-1.4298,-1.4298,-1.4298,-1.4298,-1.4298,-1.4298,-1.4298,-1.4298,-1.4298,-1.4298,-1.4298,-1.4298,-1.4298,-1.4298,-1.4298,-1.4298,-1.4298,-1.4298,-1.4298,-1.4298,-1.4298,-1.4298,-1.4298,-1.4298,-1.4298,-1.4298,-1.4298,0.0,0.0,0.0,-0.5646,0.0,0.0,0.0,0.0,0.0,0.0,0.0,0.0,0.0,0.0,0.0,0.0,0.0,0.0,0.0,0.0,0.0,0.0,0.0,0.0,0.0,0.0,0.0,0.0,0.0,0.0,-1.7954,-1.7962,-1.812,-1.8478,-1.9371,-2.0625,-2.212,-2.3367,-2.3724,-2.3096,-2.2129,-2.1248,-2.0257,-1.9279,-1.8827,-1.8827,-1.8827,-1.8827,-1.8827,-1.8827,-1.8827,-1.8827,-1.8827,-1.8827,-1.8827,-1.8827,-1.8827,-1.8827,-1.8827,-1.8827,-1.8827,-1.8827,-1.8827,-1.8735,-1.845,-1.845,-1.8257,-1.7512,-1.7326,-1.7232,-1.6676,-1.6393,-1.6204,-1.6487,-1.6386,-1.6096,-1.5818,-1.5825,-1.5825,-1.5825,-1.5825,-1.5825,-1.5825,-1.5825,-1.5825,-1.5825,-1.5343,-1.5057,-1.5057,-1.458,-1.4298,-1.4298,-1.4298,-1.4298,-1.4298,-1.4298,-1.4298,-1.4298,-1.4298,-1.4298,-1.4298,-1.4298,-1.4298,-1.4298,-1.4298,-1.4298,-1.4298,-1.4298,-1.4298,-1.4298,-1.4298,-1.4298,-0.3405,0.0,0.0,0.0,0.0,0.0,0.0,0.0,0.0,0.0,0.0,0.0,0.0,0.0,0.0,0.0,0.0,0.0,0.0,0.0,0.0,0.0,0.0,0.0,0.0,0.0,0.0,0.0,0.0,0.0,-1.7596,-1.7604,-1.8102,-1.8971,-2.0062,-2.1469,-2.3332,-2.4104,-2.4003,-2.3096,-2.2482,-2.1507,-2.0249,-1.9629,-1.9096,-1.8827,-1.8827,-1.8827,-1.8827,-1.8827,-1.8827,-1.8827,-1.8827,-1.8827,-1.8827,-1.8827,-1.8827,-1.8827,-1.8827,-1.8827,-1.8827,-1.8827,-1.8827,-1.8827,-1.8827,-1.8827,-1.8735,-1.8164,-1.8071,-1.7978,-1.7426,-1.7333,-1.7239,-1.6676,-1.7239,-1.7606,-1.7044,-1.677,-1.6588,-1.6588,-1.6588,-1.6588,-1.6588,-1.6588,-1.6588,-1.6588,-1.6109,-1.5724,-1.5439,-1.4962,-1.458,-1.4298,-1.4298,-1.4298,-1.4298,-1.4298,-1.4298,-1.4298,-1.4298,-1.4298,-1.4298,-1.4298,-1.4298,-1.4298,-1.4298,-1.4298,-1.4298,-1.4298,-1.4298,-1.4298,-1.4298,-1.4298,0.0,0.0,0.0,0.0,0.0,0.0,0.0,0.0,0.0,0.0,0.0,0.0,0.0,0.0,0.0,0.0,0.0,0.0,0.0,0.0,0.0,0.0,0.0,0.0,0.0,0.0,0.0,0.0,0.0,-1.6889,-1.7247,-1.7355,-1.8338,-2.0448,-2.1702,-2.2874,-2.3857,-2.4302,-2.3983,-2.3076,-2.3086,-2.212,-2.0339,-2.0339,-1.972,-1.8827,-1.8827,-1.8827,-1.8827,-1.8827,-1.8827,-1.8827,-1.8827,-1.8827,-1.8827,-1.8827,-1.8827,-1.8827,-1.8827,-1.8827,-1.8827,-1.8827,-1.8827,-1.8827,-1.8827,-1.8827,-1.8827,-1.8827,-1.8827,-1.8827,-1.8827,-1.8827,-1.8458,-1.7052,-1.78,-1.8635,-1.7878,-1.7138,-1.6676,-1.6676,-1.6676,-1.6676,-1.6676,-1.6676,-1.6676,-1.6676,-1.6676,-1.6393,-1.5527,-1.5432,-1.5153,-1.4394,-1.4298,-1.4298,-1.4298,-1.4298,-1.4298,-1.4298,-1.4298,-1.4298,-1.4298,-1.4298,-1.4298,-1.4298,-1.4298,-1.4298,-1.4298,-1.4298,-1.4298,-1.4298,-1.4298,-1.4298,-0.3413,0.0,0.0,0.0,0.0,0.0,0.0,0.0,0.0,0.0,0.0,0.0,0.0,0.0,0.0,0.0,0.0,0.0,0.0,0.0,0.0,0.0,0.0,0.0,0.0,0.0,0.0,0.0,-1.6566,-1.6778,-1.6881,-1.7696,-1.878,-2.0117,-2.1253,-2.2416,-2.3381,-2.3836,-2.3612,-2.2627,-2.2949,-2.212,-2.0339,-2.0339,-1.972,-1.8827,-1.8827,-1.8827,-1.8827,-1.8827,-1.8827,-1.8827,-1.8827,-1.8827,-1.8827,-1.8827,-1.8827,-1.8827,-1.8827,-1.8827,-1.8827,-1.8827,-1.8827,-1.8827,-1.8827,-1.8827,-1.8827,-1.8827,-1.8827,-1.8827,-1.8827,-1.8827,-1.8735,-1.8265,-1.8542,-1.8735,-1.8542,-1.8357,-1.8172,-1.8172,-1.8172,-1.8172,-1.8172,-1.8172,-1.8172,-1.8172,-1.7699,-1.7318,-1.7124,-1.6574,-1.6008,-1.5153,-1.5057,-1.4867,-1.4394,-1.4298,-1.4298,-1.4298,-1.4298,-1.4298,-1.4298,-1.4298,-1.4298,-1.4298,-1.4298,-1.4298,-1.4298,-1.4298,-1.4298,-1.4298,-1.4298,-1.4106,-0.4166,0.0,0.0,0.0,0.0,0.0,0.0,0.0,0.0,0.0,0.0,0.0,0.0,0.0,0.0,0.0,0.0,0.0,0.0,0.0,0.0,0.0,0.0,0.0,0.0,0.0,0.0,0.0,-1.6516,-1.6734,-1.7196,-1.8293,-1.93,-2.0184,-2.1409,-2.2302,-2.2894,-2.336,-2.332,-2.2709,-2.3243,-2.2399,-2.0553,-2.081,-2.0076,-1.8827,-1.8827,-1.8827,-1.8827,-1.8827,-1.8827,-1.8827,-1.8827,-1.8827,-1.8827,-1.8827,-1.8827,-1.8827,-1.8827,-1.8827,-1.8827,-1.8827,-1.8827,-1.8827,-1.8827,-1.8827,-1.8827,-1.8827,-1.8827,-1.8827,-1.8827,-1.8827,-1.8827,-1.8827,-1.8827,-1.8827,-1.8827,-1.8827,-1.8827,-1.8827,-1.8827,-1.8827,-1.8827,-1.8827,-1.8827,-1.8827,-1.845,-1.8064,-1.7785,-1.7318,-1.6763,-1.6008,-1.5629,-1.5343,-1.5248,-1.4962,-1.4771,-1.4771,-1.4771,-1.458,-1.4298,-1.4298,-1.4298,-1.4298,-1.4298,-1.4298,-1.4298,-1.4298,-1.4298,-1.4298,-1.4298,-1.4106,-0.5148,-0.4983,0.0,0.0,0.0,0.0,-0.5694,-0.5826,0.0,0.0,0.0,0.0,0.0,0.0,0.0,0.0,0.0,0.0,0.0,0.0,0.0,0.0,0.0,0.0,0.0,0.0,-1.5769,-1.6118,-1.6261,-1.6804,-1.792,-1.8921,-1.9737,-2.0459,-2.1724,-2.2418,-2.2418,-2.2884,-2.3111,-2.3122,-2.3588,-2.2844,-2.1112,-2.1526,-2.0819,-1.9039,-1.8988,-1.9004,-1.892,-1.8827,-1.8827,-1.8827,-1.8827,-1.8827,-1.8827,-1.8827,-1.8827,-1.8827,-1.8827,-1.8827,-1.8827,-1.8827,-1.8827,-1.8827,-1.8827,-1.8827,-1.8827,-1.8827,-1.8827,-1.8827,-1.8827,-1.8827,-1.8827,-1.8827,-1.8827,-1.8827,-1.8827,-1.8827,-1.8827,-1.8827,-1.8827,-1.8827,-1.8827,-1.8827,-1.8827,-1.8827,-1.8827,-1.8542,-1.7878,-1.7785,-1.7505,-1.677,-1.6103,-1.5913,-1.6588,-1.5913,-1.5534,-1.5534,-1.5432,-1.5153,-1.449,-1.4292,-1.4298,-1.4298,-1.4298,-1.4298,-1.4298,-1.4298,-1.4298,-1.4298,-1.4298,-1.4298,-0.5967,-0.588,-0.596,-0.5242,0.0,0.0,0.0,-0.5292,0.0,0.0,0.0,0.0,0.0,0.0,0.0,0.0,0.0,0.0,0.0,0.0,0.0,0.0,0.0,0.0,0.0,0.0,-1.5419,-1.5753,-1.6727,-1.7388,-1.7613,-1.9325,-2.0304,-2.0459,-2.1409,-2.1942,-2.1942,-2.2397,-2.2635,-2.2635,-2.3101,-2.2716,-2.1601,-2.2034,-2.1624,-2.0518,-2.021,-1.9985,-1.9894,-1.9096,-1.8827,-1.8827,-1.8827,-1.8827,-1.8827,-1.8827,-1.8827,-1.8827,-1.8827,-1.8827,-1.8827,-1.8827,-1.8827,-1.8827,-1.8827,-1.8827,-1.8827,-1.8827,-1.8827,-1.8827,-1.8827,-1.8827,-1.8827,-1.8827,-1.8827,-1.8827,-1.8827,-1.8827,-1.8827,-1.8827,-1.8827,-1.8827,-1.8827,-1.8827,-1.8827,-1.8827,-1.8827,-1.8735,-1.8635,-1.8542,-1.8265,-1.7598,-1.7311,-1.7037,-1.6676,-1.6487,-1.6393,-1.6393,-1.5724,-1.5337,-1.5153,-1.4586,-1.4298,-1.4298,-1.4298,-1.4298,-1.4298,-1.4298,-1.4298,-1.4298,-1.4298,-1.4112,0.0,0.0,-0.686,-0.659,0.0,0.0,0.0,0.0,0.0,0.0,0.0,0.0,0.0,0.0,0.0,0.0,0.0,0.0,0.0,0.0,0.0,0.0,0.0,0.0,0.0,0.0,-1.4893,-1.542,-1.6497,-1.7311,-1.7769,-1.9297,-2.0377,-2.0767,-2.1445,-2.1807,-2.1807,-2.2035,-2.2149,-2.2159,-2.2625,-2.2342,-2.1442,-2.1851,-2.1646,-2.0925,-2.0244,-2.0078,-2.0249,-1.918,-1.8827,-1.8827,-1.8827,-1.8827,-1.8827,-1.8827,-1.8827,-1.8827,-1.8827,-1.8827,-1.8827,-1.8827,-1.8827,-1.8827,-1.8827,-1.8827,-1.8827,-1.8827,-1.8827,-1.8827,-1.8827,-1.8827,-1.8827,-1.8827,-1.8827,-1.8827,-1.8827,-1.8827,-1.8827,-1.8827,-1.8827,-1.8827,-1.8827,-1.8827,-1.8827,-1.8827,-1.8827,-1.8827,-1.8827,-1.8827,-1.8635,-1.8257,-1.7878,-1.7692,-1.7707,-1.7326,-1.7138,-1.7138,-1.6756,-1.6379,-1.6008,-1.5248,-1.4675,-1.4298,-1.4298,-1.4298,-1.4298,-1.4298,-1.4298,-1.4298,-1.4298,-1.4202,0.0,0.0,0.0,0.0,0.0,-0.7261,0.0,0.0,0.0,-0.6624,0.0,0.0,0.0,0.0,0.0,0.0,0.0,0.0,0.0,0.0,0.0,0.0,0.0,0.0,0.0,0.0,-1.4252,-1.5064,-1.6148,-1.7178,-1.8063,-1.9358,-2.0436,-2.1114,-2.1569,-2.1807,-2.1807,-2.1807,-2.1807,-2.1807,-2.218,-2.1964,-2.1263,-2.1656,-2.1627,-2.1287,-2.0488,-2.0377,-2.0587,-1.9687,-1.9363,-1.9271,-1.8912,-1.892,-1.9096,-1.9096,-1.9096,-1.9096,-1.9271,-1.9096,-1.8827,-1.9004,-1.892,-1.8827,-1.8827,-1.8827,-1.8827,-1.8827,-1.8827,-1.8827,-1.8827,-1.8827,-1.8827,-1.8827,-1.8827,-1.8827,-1.8827,-1.8827,-1.8827,-1.8827,-1.8827,-1.8827,-1.8827,-1.8827,-1.8827,-1.8827,-1.8827,-1.8827,-1.8827,-1.8827,-1.8827,-1.8827,-1.8257,-1.8164,-1.8735,-1.8257,-1.7878,-1.7878,-1.7785,-1.7412,-1.6864,-1.6008,-1.5343,-1.4771,-1.4586,-1.4484,-1.4484,-1.4388,-1.4298,-1.4298,-1.4298,-1.4298,0.0,0.0,0.0,0.0,-0.7963,0.0,0.0,0.0,-0.7605,-0.7252,0.0,0.0,0.0,0.0,0.0,0.0,0.0,0.0,0.0,0.0,0.0,0.0,0.0,0.0,0.0,0.0,0.0,-1.4586,-1.5872,-1.7033,-1.793,-1.9909,-2.104,-2.1114,-2.1569,-2.1807,-2.1807,-2.1807,-2.1807,-2.1807,-2.1859,-2.1803,-2.1747,-2.22,-2.2357,-2.228,-2.2119,-2.213,-2.2121,-2.1627,-2.1338,-2.1159,-1.9455,-1.9363,-2.0167,-2.0167,-2.0167,-2.0257,-2.106,-2.0257,-1.8912,-1.9812,-1.9538,-1.8827,-1.8827,-1.8827,-1.8827,-1.8827,-1.8827,-1.8827,-1.8827,-1.8827,-1.8827,-1.8827,-1.8827,-1.8827,-1.8827,-1.8827,-1.8827,-1.8827,-1.8827,-1.8827,-1.8827,-1.8827,-1.8827,-1.8827,-1.8827,-1.8827,-1.8827,-1.8827,-1.8827,-1.8827,-1.8735,-1.8735,-1.8827,-1.8735,-1.8643,-1.8643,-1.8071,-1.7692,-1.7598,-1.6857,-1.6393,-1.6298,-1.5629,-1.5248,-1.5248,-1.458,-1.4298,-1.4298,-1.4298,-1.4298,0.0,0.0,0.0,0.0,0.0,0.0,0.0,0.0,-0.7906,0.0,0.0,0.0,0.0,0.0,0.0,0.0,0.0,0.0,0.0,0.0,0.0,0.0,0.0,0.0,0.0,0.0,0.0,0.0,0.0,-1.6185,-1.7168,-1.8975,-2.0172,-2.07,-2.1166,-2.1538,-2.1807,-2.1807,-2.1807,-2.1807,-2.1807,-2.1807,-2.1818,-2.2004,-2.2242,-2.2433,-2.1897,-2.1919,-2.2376,-2.1612,-2.1475,-2.1606,-2.0799,-2.0709,-2.115,-2.115,-2.115,-2.1159,-2.1606,-2.1159,-2.0529,-2.0979,-2.0799,-2.0439,-2.0439,-2.0076,-1.9629,-1.9629,-1.9271,-1.8827,-1.8827,-1.8827,-1.8827,-1.8827,-1.8827,-1.8827,-1.8827,-1.8827,-1.8827,-1.8827,-1.8827,-1.8827,-1.8827,-1.8827,-1.8827,-1.8827,-1.8827,-1.8827,-1.8827,-1.8827,-1.8827,-1.8827,-1.8827,-1.8827,-1.8827,-1.8827,-1.8827,-1.8827,-1.8542,-1.8164,-1.7692,-1.7412,-1.7044,-1.6588,-1.6298,-1.5913,-1.5432,-1.5057,-1.4675,-1.4298,-1.4298,-1.4298,-1.0039,0.0,0.0,0.0,0.0,0.0,0.0,0.0,0.0,0.0,0.0,0.0,0.0,0.0,0.0,0.0,0.0,0.0,0.0,0.0,0.0,0.0,0.0,0.0,0.0,0.0,0.0,0.0,0.0,0.0,-1.6454,-1.8053,-1.9241,-2.0027,-2.0741,-2.128,-2.1611,-2.1745,-2.1807,-2.1807,-2.1807,-2.1807,-2.1807,-2.1807,-2.1994,-2.2315,-2.1719,-2.1878,-2.2379,-2.1939,-2.1958,-2.2339,-2.2454,-2.2492,-2.2403,-2.2227,-2.2041,-2.2129,-2.2403,-2.2315,-2.2041,-2.1784,-2.1695,-2.1695,-2.1695,-2.1248,-2.061,-2.0339,-1.9812,-1.9188,-1.8827,-1.8827,-1.8827,-1.8827,-1.8827,-1.8827,-1.8827,-1.8827,-1.8827,-1.8827,-1.8827,-1.8827,-1.8827,-1.8827,-1.8827,-1.8827,-1.8827,-1.8827,-1.8827,-1.8827,-1.8827,-1.8827,-1.8827,-1.8827,-1.8827,-1.8827,-1.8827,-1.8827,-1.8827,-1.8542,-1.8064,-1.7971,-1.7792,-1.7239,-1.6958,-1.6574,-1.5994,-1.5818,-1.5343,-1.458,-1.4394,-1.4298,0.0,0.0,0.0,-0.9209,0.0,0.0,0.0,0.0,-1.0326,0.0,0.0,0.0,0.0,0.0,0.0,-0.9221,0.0,0.0,0.0,0.0,0.0,0.0,0.0,0.0,0.0,0.0,0.0,0.0,0.0,0.0,-1.6322,-1.7678,-1.862,-1.9106,-2.042,-2.1124,-2.1135,-2.158,-2.1807,-2.1807,-2.1807,-2.1807,-2.1807,-2.1807,-2.1818,-2.1859,-2.2304,-2.2433,-2.2525,-2.3423,-2.3804,-2.3856,-2.4289,-2.4454,-2.4272,-2.3367,-2.3096,-2.3193,-2.41,-2.382,-2.2921,-2.1961,-2.1695,-2.1695,-2.1695,-2.1695,-2.1427,-2.052,-2.0249,-1.9985,-1.9004,-1.8827,-1.8827,-1.8827,-1.8827,-1.8827,-1.8827,-1.8827,-1.8827,-1.8827,-1.8827,-1.8827,-1.8827,-1.8827,-1.8827,-1.8827,-1.8827,-1.8827,-1.8827,-1.8827,-1.8827,-1.8827,-1.8827,-1.8827,-1.8827,-1.8827,-1.8827,-1.8827,-1.8827,-1.8827,-1.8735,-1.8735,-1.8735,-1.8735,-1.8064,-1.7692,-1.7591,-1.6951,-1.6109,-1.5343,-1.4675,-1.4298,0.0,0.0,-1.2161,-1.0927,0.0,0.0,0.0,0.0,0.0,0.0,0.0,0.0,0.0,0.0,-0.9647,-0.9667,-0.932,0.0,0.0,0.0,0.0,0.0,0.0,0.0,0.0,0.0,0.0,0.0,0.0,0.0,0.0,-1.6922,-1.7978,-1.9044,-2.01,-2.0803,-2.1114,-2.158,-2.1807,-2.1807,-2.1807,-2.1807,-2.1807,-2.1807,-2.1807,-2.1818,-2.1973,-2.2211,-2.2522,-2.2832,-2.3329,-2.3888,-2.4043,-2.4281,-2.4454,-2.4176,-2.4003,-2.409,-2.4368,-2.4272,-2.4003,-2.3647,-2.356,-2.356,-2.356,-2.3105,-2.257,-2.2208,-2.1676,-2.1159,-2.0799,-2.0257,-1.9812,-1.9812,-1.9271,-1.8827,-1.8827,-1.8827,-1.8827,-1.8827,-1.8827,-1.8827,-1.8827,-1.8827,-1.8827,-1.8827,-1.8827,-1.8827,-1.8827,-1.8827,-1.8827,-1.8827,-1.8827,-1.8827,-1.8827,-1.8827,-1.8827,-1.8827,-1.8827,-1.8827,-1.8827,-1.8827,-1.8827,-1.8827,-1.8542,-1.8164,-1.7692,-1.7412,-1.6951,-1.6204,-1.592,-1.5248,-1.2497,-1.276,0.0,-1.1941,-1.1728,0.0,-1.0499,0.0,0.0,0.0,0.0,0.0,0.0,0.0,0.0,-0.9873,-0.9479,0.0,0.0,0.0,0.0,0.0,0.0,0.0,0.0,0.0,-1.0962,-1.1949,0.0,0.0,0.0,0.0,-1.7284,-1.8319,-1.9551,-2.041,-2.0866,-2.1331,-2.1642,-2.1807,-2.1807,-2.1807,-2.1807,-2.1807,-2.1807,-2.1807,-2.1807,-2.1973,-2.2263,-2.2428,-2.2853,-2.3422,-2.3753,-2.4053,-2.4322,-2.4478,-2.454,-2.454,-2.454,-2.454,-2.454,-2.454,-2.454,-2.454,-2.454,-2.409,-2.3551,-2.3183,-2.2658,-2.2129,-2.1784,-2.1239,-2.0701,-2.0339,-1.9803,-1.9279,-1.892,-1.8827,-1.8827,-1.8827,-1.8827,-1.8827,-1.8827,-1.8827,-1.8827,-1.8827,-1.8827,-1.8827,-1.8827,-1.8827,-1.8827,-1.8827,-1.8827,-1.8827,-1.8827,-1.8827,-1.8827,-1.8827,-1.8827,-1.8827,-1.8827,-1.8827,-1.8827,-1.8827,-1.8827,-1.8542,-1.8071,-1.8071,-1.7699,-1.6951,-1.6951,-1.6292]},{"header":{"parameterUnit":"m.s-1","parameterCategory":1,"la1":30.6,"la2":29.2853,"lo1":-89.7004,"lo2":-87.6739,"dy":0.0162,"dx":0.0183,"nx":112,"ny":82,"refTime":"2024-08-14T06:00:00:Z","depth":0,"parameterNumber":3,"parameterNumberName":"V-component_of_WINDS"},"data":[0.0,0.0,0.0,0.0,0.0,0.0,0.0,0.0,0.0,0.0,0.0,0.0,0.0,0.0,0.0,0.0,0.0,0.0,0.0,0.0,0.0,0.0,0.0,0.0,0.0,0.0,0.0,0.0,0.0,0.0,0.0,0.0,0.0,0.0,0.0,0.0,0.0,0.0,0.0,0.0,0.0,0.0,0.0,0.0,0.0,0.0,0.0,0.0,0.0,0.0,0.0,0.0,0.0,0.0,0.0,0.0,0.0,0.0,0.0,0.0,0.0,0.0,0.0,0.0,0.0,0.0,0.0,0.0,0.0,0.0,0.0,0.0,0.0,0.0,0.0,0.0,0.0,0.0,0.0,0.0,0.0,0.0,0.0,0.0,0.0,0.0,0.0,0.0,0.0,0.0,0.0,-2.4431,-2.7935,-2.9999,-2.9999,-2.9509,-2.7767,-2.4408,0.0,0.0,0.0,0.0,0.0,0.0,0.0,0.0,0.0,0.0,0.0,0.0,0.0,0.0,0.0,0.0,0.0,0.0,0.0,0.0,0.0,0.0,0.0,0.0,0.0,0.0,0.0,0.0,0.0,0.0,0.0,0.0,0.0,0.0,0.0,0.0,0.0,0.0,0.0,0.0,0.0,0.0,0.0,0.0,0.0,0.0,0.0,0.0,0.0,0.0,0.0,0.0,0.0,0.0,0.0,0.0,0.0,0.0,0.0,0.0,0.0,0.0,0.0,0.0,0.0,0.0,0.0,0.0,0.0,0.0,0.0,0.0,0.0,0.0,0.0,0.0,0.0,0.0,0.0,0.0,0.0,0.0,0.0,0.0,0.0,0.0,0.0,0.0,0.0,0.0,0.0,0.0,0.0,0.0,0.0,0.0,0.0,0.0,0.0,0.0,0.0,0.0,0.0,0.0,-2.134,-2.7065,-2.9061,-2.9999,-2.9999,-2.8912,-2.7323,-2.5226,0.0,0.0,0.0,0.0,0.0,0.0,0.0,0.0,0.0,0.0,0.0,0.0,0.0,0.0,0.0,0.0,0.0,0.0,0.0,0.0,0.0,0.0,0.0,0.0,0.0,0.0,0.0,0.0,0.0,0.0,0.0,0.0,0.0,0.0,0.0,0.0,0.0,0.0,0.0,0.0,0.0,0.0,0.0,0.0,0.0,0.0,0.0,0.0,0.0,0.0,0.0,0.0,0.0,0.0,0.0,0.0,0.0,0.0,0.0,0.0,0.0,0.0,0.0,0.0,0.0,0.0,0.0,0.0,0.0,0.0,0.0,0.0,0.0,0.0,0.0,0.0,0.0,0.0,0.0,0.0,0.0,0.0,0.0,0.0,0.0,0.0,0.0,0.0,0.0,0.0,0.0,0.0,0.0,0.0,0.0,0.0,0.0,0.0,0.0,0.0,0.0,0.0,0.0,-2.1005,-2.365,-2.7904,-2.9339,-3.0013,-3.0061,-2.8777,-2.7033,-2.4744,-2.0714,0.0,0.0,0.0,0.0,0.0,0.0,0.0,0.0,0.0,0.0,0.0,0.0,0.0,0.0,0.0,0.0,0.0,0.0,0.0,0.0,0.0,0.0,0.0,0.0,0.0,0.0,0.0,0.0,0.0,0.0,0.0,0.0,0.0,0.0,0.0,0.0,0.0,0.0,0.0,0.0,0.0,0.0,0.0,0.0,0.0,0.0,0.0,0.0,0.0,0.0,0.0,0.0,0.0,0.0,0.0,0.0,0.0,0.0,0.0,0.0,0.0,0.0,0.0,0.0,0.0,0.0,0.0,0.0,0.0,0.0,0.0,0.0,0.0,0.0,0.0,0.0,0.0,0.0,0.0,0.0,0.0,0.0,0.0,0.0,0.0,0.0,0.0,0.0,0.0,0.0,0.0,0.0,0.0,0.0,0.0,0.0,0.0,0.0,0.0,0.0,0.0,0.0,-2.4246,-2.6085,-2.8515,-2.952,-3.0061,-3.0131,-2.8482,-2.6425,-2.4129,-1.9696,0.0,0.0,0.0,0.0,0.0,0.0,0.0,0.0,0.0,0.0,0.0,0.0,0.0,0.0,0.0,0.0,0.0,0.0,0.0,0.0,0.0,0.0,0.0,0.0,0.0,0.0,0.0,0.0,0.0,0.0,0.0,0.0,0.0,0.0,0.0,0.0,0.0,0.0,0.0,0.0,0.0,0.0,0.0,0.0,0.0,0.0,0.0,0.0,0.0,0.0,0.0,0.0,0.0,0.0,0.0,0.0,0.0,0.0,0.0,0.0,0.0,0.0,0.0,0.0,0.0,0.0,0.0,0.0,0.0,0.0,0.0,0.0,0.0,0.0,0.0,0.0,0.0,0.0,0.0,0.0,0.0,0.0,0.0,0.0,0.0,0.0,0.0,0.0,0.0,0.0,0.0,0.0,0.0,0.0,0.0,0.0,0.0,0.0,0.0,0.0,0.0,0.0,-2.4942,-2.7781,-2.9607,-2.9969,-3.0144,-3.0283,-2.746,-2.5172,-2.3976,-1.8542,0.0,0.0,0.0,0.0,0.0,0.0,0.0,0.0,0.0,0.0,0.0,0.0,0.0,0.0,0.0,0.0,0.0,0.0,0.0,0.0,0.0,0.0,0.0,0.0,0.0,0.0,0.0,0.0,0.0,0.0,0.0,0.0,0.0,0.0,0.0,0.0,0.0,0.0,0.0,0.0,0.0,0.0,0.0,0.0,0.0,0.0,0.0,0.0,0.0,0.0,0.0,0.0,0.0,0.0,0.0,0.0,0.0,0.0,0.0,0.0,0.0,0.0,0.0,0.0,0.0,0.0,0.0,0.0,0.0,0.0,0.0,0.0,0.0,0.0,0.0,0.0,0.0,0.0,0.0,0.0,0.0,0.0,0.0,0.0,0.0,0.0,0.0,0.0,0.0,0.0,0.0,0.0,0.0,0.0,0.0,0.0,0.0,0.0,0.0,0.0,0.0,0.0,-2.4312,-2.6934,0.0,-3.0144,-3.0247,-3.0294,-2.8348,-2.6028,-2.3438,0.0,0.0,0.0,0.0,0.0,0.0,0.0,0.0,0.0,0.0,0.0,0.0,0.0,0.0,0.0,0.0,0.0,0.0,0.0,0.0,0.0,0.0,0.0,0.0,0.0,0.0,0.0,0.0,0.0,0.0,0.0,0.0,0.0,0.0,0.0,0.0,0.0,0.0,0.0,0.0,0.0,0.0,0.0,0.0,0.0,0.0,0.0,0.0,0.0,0.0,0.0,0.0,0.0,0.0,0.0,0.0,0.0,0.0,0.0,0.0,0.0,0.0,0.0,0.0,0.0,0.0,0.0,0.0,0.0,0.0,0.0,0.0,0.0,0.0,0.0,0.0,0.0,0.0,0.0,0.0,0.0,0.0,0.0,0.0,0.0,0.0,0.0,0.0,0.0,0.0,0.0,0.0,0.0,0.0,0.0,0.0,0.0,0.0,0.0,0.0,0.0,0.0,-2.1787,-2.4453,-2.7019,0.0,-3.0292,-3.0367,-3.0428,-2.8522,-2.6056,-2.3101,0.0,0.0,0.0,0.0,0.0,0.0,0.0,0.0,0.0,0.0,0.0,0.0,0.0,0.0,0.0,0.0,0.0,0.0,0.0,0.0,0.0,0.0,0.0,0.0,0.0,0.0,0.0,0.0,0.0,0.0,0.0,0.0,0.0,0.0,0.0,0.0,0.0,0.0,0.0,0.0,0.0,0.0,0.0,0.0,0.0,0.0,0.0,0.0,0.0,0.0,0.0,0.0,0.0,0.0,0.0,0.0,0.0,0.0,0.0,0.0,0.0,0.0,0.0,0.0,0.0,0.0,0.0,0.0,0.0,0.0,0.0,0.0,0.0,0.0,0.0,0.0,0.0,0.0,0.0,0.0,0.0,0.0,0.0,0.0,0.0,0.0,0.0,0.0,0.0,0.0,0.0,0.0,0.0,0.0,0.0,0.0,0.0,0.0,0.0,0.0,0.0,0.0,-2.2087,-2.5658,-2.8557,-3.0227,-3.0458,-3.0548,-3.0685,-2.7576,-2.4849,0.0,0.0,0.0,0.0,0.0,0.0,0.0,0.0,0.0,0.0,0.0,0.0,0.0,0.0,0.0,0.0,0.0,0.0,0.0,0.0,0.0,0.0,0.0,0.0,0.0,0.0,0.0,0.0,0.0,0.0,0.0,0.0,0.0,0.0,0.0,0.0,0.0,0.0,0.0,0.0,0.0,0.0,0.0,0.0,0.0,0.0,0.0,0.0,0.0,0.0,0.0,0.0,0.0,0.0,0.0,0.0,0.0,0.0,0.0,0.0,0.0,0.0,0.0,0.0,0.0,0.0,0.0,0.0,0.0,0.0,0.0,0.0,0.0,0.0,0.0,0.0,0.0,0.0,0.0,0.0,0.0,0.0,0.0,0.0,0.0,0.0,0.0,0.0,0.0,0.0,0.0,0.0,0.0,0.0,0.0,0.0,0.0,0.0,0.0,0.0,0.0,0.0,0.0,0.0,-2.5889,-2.875,-3.0431,-3.0625,-3.0651,-3.0697,-2.8686,-2.6169,-2.3159,0.0,0.0,0.0,0.0,0.0,0.0,0.0,0.0,0.0,0.0,0.0,0.0,0.0,0.0,0.0,0.0,0.0,0.0,0.0,0.0,0.0,0.0,0.0,0.0,0.0,0.0,0.0,0.0,0.0,0.0,0.0,0.0,0.0,0.0,0.0,0.0,0.0,0.0,0.0,0.0,0.0,0.0,0.0,0.0,0.0,0.0,0.0,0.0,0.0,0.0,0.0,0.0,0.0,0.0,0.0,0.0,0.0,0.0,0.0,0.0,0.0,0.0,0.0,0.0,0.0,0.0,0.0,0.0,0.0,0.0,0.0,0.0,0.0,0.0,0.0,0.0,0.0,0.0,0.0,0.0,0.0,0.0,0.0,0.0,0.0,0.0,0.0,0.0,0.0,0.0,0.0,0.0,0.0,0.0,0.0,0.0,0.0,0.0,0.0,0.0,0.0,0.0,-2.2499,-2.6022,-2.8846,-3.0555,-3.0759,-3.0774,-3.0774,-2.9225,-2.7035,-2.421,0.0,0.0,0.0,0.0,0.0,0.0,0.0,0.0,0.0,0.0,0.0,0.0,0.0,0.0,0.0,0.0,0.0,0.0,0.0,0.0,0.0,0.0,0.0,0.0,0.0,0.0,0.0,0.0,0.0,0.0,0.0,0.0,0.0,0.0,0.0,0.0,0.0,0.0,0.0,0.0,0.0,0.0,0.0,0.0,0.0,0.0,0.0,0.0,0.0,0.0,0.0,0.0,0.0,0.0,0.0,0.0,0.0,0.0,0.0,0.0,0.0,0.0,0.0,0.0,0.0,0.0,0.0,0.0,0.0,0.0,0.0,0.0,0.0,0.0,0.0,0.0,0.0,0.0,0.0,0.0,0.0,0.0,0.0,0.0,0.0,0.0,0.0,0.0,0.0,0.0,0.0,0.0,0.0,0.0,0.0,0.0,0.0,0.0,0.0,0.0,0.0,0.0,-2.2681,-2.6107,-2.888,-3.0621,-3.0849,-3.0896,-3.0896,-2.9296,-2.7512,-2.5703,0.0,0.0,0.0,0.0,0.0,0.0,0.0,0.0,0.0,0.0,0.0,0.0,0.0,0.0,0.0,0.0,0.0,0.0,0.0,0.0,0.0,0.0,0.0,0.0,0.0,0.0,0.0,0.0,0.0,0.0,0.0,0.0,0.0,0.0,0.0,0.0,0.0,0.0,0.0,0.0,0.0,0.0,0.0,0.0,0.0,0.0,0.0,0.0,0.0,0.0,0.0,0.0,0.0,0.0,0.0,0.0,0.0,0.0,0.0,0.0,-2.0685,0.0,0.0,0.0,0.0,0.0,0.0,0.0,0.0,0.0,0.0,0.0,0.0,0.0,0.0,0.0,0.0,0.0,0.0,0.0,0.0,0.0,0.0,0.0,0.0,0.0,0.0,0.0,0.0,0.0,0.0,0.0,0.0,0.0,0.0,0.0,0.0,0.0,0.0,0.0,0.0,0.0,-2.3568,-2.6546,-2.8953,-3.0689,-3.0833,-3.0812,-3.0812,-2.9216,-2.7479,-2.5718,0.0,0.0,0.0,0.0,0.0,0.0,0.0,0.0,0.0,0.0,0.0,0.0,0.0,0.0,0.0,0.0,0.0,0.0,0.0,0.0,0.0,0.0,0.0,0.0,0.0,0.0,0.0,0.0,0.0,0.0,0.0,0.0,0.0,0.0,0.0,0.0,0.0,0.0,0.0,0.0,0.0,0.0,0.0,0.0,0.0,0.0,0.0,0.0,0.0,0.0,0.0,0.0,0.0,0.0,0.0,0.0,0.0,0.0,0.0,0.0,0.0,-2.3288,0.0,0.0,0.0,0.0,0.0,0.0,0.0,0.0,0.0,0.0,0.0,0.0,0.0,0.0,0.0,0.0,0.0,0.0,0.0,0.0,0.0,0.0,0.0,0.0,0.0,0.0,0.0,0.0,0.0,0.0,0.0,0.0,0.0,0.0,0.0,0.0,0.0,0.0,0.0,0.0,-2.4484,-2.7268,-2.9379,-3.0665,-3.0769,-3.0758,-3.0742,-2.954,-2.821,-2.6889,-2.3992,0.0,0.0,0.0,0.0,0.0,0.0,0.0,0.0,0.0,0.0,0.0,0.0,0.0,0.0,0.0,0.0,0.0,0.0,0.0,0.0,0.0,0.0,0.0,0.0,0.0,0.0,0.0,0.0,0.0,0.0,0.0,0.0,0.0,0.0,0.0,0.0,0.0,0.0,0.0,0.0,0.0,0.0,0.0,0.0,0.0,0.0,0.0,0.0,0.0,0.0,0.0,0.0,0.0,0.0,0.0,-3.3356,-3.3129,-3.3031,-3.2842,-2.9362,-2.7821,-2.7625,0.0,0.0,0.0,0.0,0.0,0.0,0.0,0.0,0.0,0.0,0.0,0.0,0.0,0.0,0.0,0.0,0.0,0.0,0.0,0.0,0.0,0.0,0.0,0.0,0.0,-3.024,-2.8878,0.0,0.0,0.0,0.0,0.0,0.0,0.0,0.0,0.0,0.0,0.0,0.0,-2.5598,-2.8055,-2.9849,-3.0826,-3.0778,-3.0678,-3.0674,-2.9873,-2.908,-2.8352,-2.6044,-2.4018,0.0,0.0,0.0,0.0,0.0,0.0,0.0,0.0,0.0,0.0,0.0,0.0,0.0,0.0,0.0,0.0,0.0,0.0,0.0,0.0,0.0,0.0,0.0,0.0,0.0,0.0,0.0,0.0,0.0,0.0,0.0,0.0,-1.6819,-1.9278,0.0,0.0,0.0,0.0,0.0,0.0,0.0,0.0,0.0,0.0,0.0,0.0,0.0,0.0,-3.1909,-3.3168,-3.3908,-3.4187,-3.5472,-3.6208,-3.6415,-3.6389,-3.6366,-3.6325,-3.5589,0.0,-3.041,-2.941,0.0,0.0,0.0,0.0,0.0,0.0,0.0,0.0,0.0,0.0,0.0,0.0,0.0,0.0,0.0,0.0,0.0,0.0,0.0,0.0,0.0,0.0,-3.4058,-3.366,-3.4129,-3.4039,0.0,-2.8038,-2.4768,-2.3459,0.0,0.0,0.0,0.0,0.0,0.0,0.0,0.0,-2.7337,-2.8737,-3.0037,-3.1659,-3.1108,-3.0606,-3.0598,-2.9805,-2.9263,-2.9156,-2.7406,-2.5967,-2.5039,-2.2646,0.0,0.0,0.0,0.0,0.0,0.0,0.0,0.0,0.0,0.0,0.0,0.0,0.0,0.0,0.0,0.0,0.0,0.0,0.0,0.0,0.0,0.0,0.0,0.0,0.0,0.0,0.0,0.0,0.0,-1.7026,-1.9943,-2.1042,-2.1377,-2.1123,0.0,0.0,0.0,0.0,0.0,0.0,0.0,0.0,0.0,-3.1457,-3.2278,-3.3628,-3.5614,-3.6517,-3.7431,-3.8341,-3.8827,-3.9327,-3.9758,-3.9642,-3.9581,-3.9581,-3.9491,-3.826,-3.6077,-3.3384,-3.1323,-2.977,0.0,0.0,0.0,0.0,0.0,0.0,-3.1462,0.0,0.0,0.0,0.0,0.0,0.0,0.0,0.0,0.0,0.0,0.0,0.0,0.0,0.0,-3.6199,-3.6622,-3.6699,-3.593,-3.3672,-3.0848,0.0,-2.6508,-2.5197,-2.2444,0.0,0.0,0.0,0.0,0.0,-2.9179,-3.0694,-3.1632,-3.1865,-3.1526,-3.1101,-3.0636,-3.025,-2.9824,-2.9321,-2.8586,-2.7561,-2.6218,-2.4664,-2.2813,0.0,0.0,0.0,0.0,0.0,0.0,0.0,0.0,0.0,0.0,0.0,0.0,0.0,0.0,0.0,0.0,0.0,0.0,0.0,0.0,0.0,0.0,0.0,0.0,0.0,0.0,0.0,0.0,-1.986,-2.2557,-2.2779,-2.4466,-2.4978,0.0,0.0,0.0,0.0,0.0,0.0,-3.0531,-3.1592,-3.3169,-3.5512,-3.6485,-3.7581,-3.888,-3.9332,-4.011,-4.1227,-4.1034,-4.1247,-4.1809,-4.1688,-4.159,-4.159,-4.159,-4.1256,-4.042,-3.6909,-3.4971,-3.4167,-3.3343,-3.3078,0.0,-3.4143,-3.4139,-3.4005,-3.6095,-3.6396,-3.5797,-3.5136,0.0,-3.1864,-3.006,0.0,0.0,0.0,0.0,-3.3526,-3.5872,0.0,-3.6834,-3.8296,-3.8642,-3.8584,-3.8373,-3.7815,-3.6059,0.0,-3.0989,-3.0055,-2.671,0.0,0.0,0.0,0.0,-2.9583,-3.1032,-3.2355,-3.2965,-3.2482,-3.2037,-3.1535,-3.0927,-3.0695,-3.0298,-2.9641,-2.9631,-2.8857,-2.7097,-2.6459,-2.4935,-2.2397,0.0,0.0,0.0,0.0,0.0,0.0,0.0,0.0,0.0,0.0,0.0,0.0,0.0,0.0,0.0,0.0,0.0,0.0,0.0,0.0,0.0,0.0,0.0,0.0,0.0,0.0,0.0,0.0,0.0,-2.541,-2.7715,0.0,0.0,0.0,0.0,-3.0289,-3.0435,-3.1514,-3.4016,-3.5641,-3.727,-3.8999,-4.0623,-4.1792,-4.2449,-4.2218,-4.2025,-4.1849,-4.1651,-4.1582,-4.1619,-4.159,-4.159,-4.159,-4.159,-4.1571,-4.1404,-3.9602,-3.8349,-3.7497,-3.6876,-3.659,-3.6677,-3.753,-3.7835,-3.7904,-3.8681,-3.8906,-3.8868,-3.8831,-3.728,-3.5368,-3.4865,-3.4146,0.0,0.0,-3.5795,-3.6873,-3.8642,-3.9104,-3.9315,-4.0162,-4.0354,-4.0162,-3.9392,-3.92,-3.8373,0.0,-3.3872,-3.2485,-3.1572,0.0,0.0,-3.0181,-3.1,-3.1915,-3.2764,-3.2956,-3.3304,-3.4087,-3.2686,-3.1684,-3.1645,-3.0944,-3.0501,-3.0443,-3.0501,-2.9747,-2.8006,-2.7898,-2.6671,-2.4118,-2.2416,0.0,0.0,0.0,0.0,0.0,0.0,0.0,0.0,0.0,0.0,0.0,0.0,0.0,0.0,0.0,0.0,0.0,0.0,0.0,0.0,0.0,0.0,0.0,0.0,0.0,0.0,0.0,0.0,-2.9325,-3.0911,0.0,0.0,-3.1694,-3.2688,-3.3857,-3.4894,-3.6338,-3.8354,-3.9438,-4.0539,-4.17,-4.2159,-4.264,-4.3206,-4.2988,-4.2986,-4.3245,-4.3193,-4.3132,-4.3132,-4.3132,-4.3132,-4.3132,-4.3132,-4.3039,-4.2825,-4.2234,-4.1311,-4.0205,-3.9993,-3.9909,-3.9919,-4.0244,-4.0337,-4.0393,-4.0634,-4.0698,-4.0624,-4.0085,-3.9469,-3.8796,-3.8083,-3.8123,-3.844,-3.8457,-3.9063,-3.9768,-3.9996,-4.0065,-4.0142,-4.0431,-4.0489,-4.0412,-4.0123,-4.0065,-3.9642,-3.8219,-3.6988,-3.5578,-3.3672,-3.3557,-3.3164,-3.1521,-3.2482,-3.3511,-3.3805,-3.4338,-3.4588,-3.4326,-3.3747,-3.2918,-3.1799,-3.1444,-3.0818,-2.9718,-2.9699,-2.8936,-2.7226,-2.7157,-2.6481,-2.5066,-2.3906,-2.2049,0.0,0.0,0.0,0.0,0.0,0.0,0.0,0.0,0.0,0.0,0.0,0.0,0.0,0.0,0.0,0.0,0.0,0.0,0.0,0.0,0.0,0.0,0.0,0.0,0.0,0.0,-2.9711,-3.1963,-3.3797,-3.4625,-3.4027,-3.5271,-3.6487,-3.7365,-3.864,-4.0011,-4.1461,-4.2241,-4.2859,-4.3347,-4.3484,-4.3618,-4.38,-4.3676,-4.3745,-4.3974,-4.4005,-4.3974,-4.3974,-4.4005,-4.3942,-4.386,-4.386,-4.373,-4.3461,-4.3461,-4.3004,-4.2267,-4.2092,-4.2123,-4.2267,-4.2186,-4.2248,-4.2407,-4.2407,-4.2222,-4.1924,-4.1367,-4.111,-4.0921,-4.0401,-4.0741,-4.1232,-4.0929,-4.1321,-4.1762,-4.1355,-4.1094,-4.0931,-4.0931,-4.07,-4.0489,-4.0489,-4.0489,-4.0335,-3.9796,-3.9008,-3.7815,-3.5815,-3.5963,-3.5669,-3.3686,-3.4366,-3.5002,-3.4732,-3.5207,-3.5342,-3.4783,-3.4436,-3.3685,-3.2239,-3.1584,-3.0797,-2.9708,-2.91,-2.83,-2.7179,-2.6859,-2.6318,-2.5487,-2.4335,-2.2931,-2.1237,0.0,0.0,0.0,0.0,0.0,0.0,0.0,0.0,0.0,0.0,0.0,0.0,0.0,0.0,0.0,0.0,0.0,0.0,0.0,0.0,0.0,0.0,0.0,-2.8158,-3.1048,-3.3206,-3.3283,-3.6304,-3.7725,-3.6047,-3.8152,-3.9956,-4.082,-4.1563,-4.2337,-4.3181,-4.3936,-4.421,-4.3939,-4.4741,-4.4919,-4.443,-4.4383,-4.4221,-4.3897,-4.3974,-4.3992,-4.3915,-4.3974,-4.386,-4.3579,-4.3597,-4.3426,-4.3214,-4.3214,-4.3375,-4.3511,-4.3032,-4.3159,-4.3579,-4.3318,-4.3557,-4.4005,-4.4005,-4.3485,-4.2835,-4.2835,-4.2314,-4.1704,-4.1911,-4.1972,-4.2025,-4.2257,-4.2528,-4.2716,-4.2717,-4.2276,-4.1819,-4.1854,-4.1162,-4.0527,-4.0527,-4.0508,-4.0489,-4.0489,-3.9873,-3.9065,-3.818,-3.8046,-3.7738,-3.6873,-3.6738,0.0,-3.5641,-3.5545,-3.5532,-3.5493,-3.4737,-3.3891,-3.3006,-3.1434,-3.0466,-3.046,-2.8917,-2.7981,-2.7961,-2.7157,-2.6298,-2.5473,-2.3848,-2.3002,-2.2939,0.0,0.0,0.0,0.0,0.0,0.0,0.0,0.0,0.0,0.0,0.0,0.0,0.0,0.0,0.0,0.0,0.0,0.0,0.0,0.0,0.0,0.0,-3.1282,-3.1574,-3.3476,-3.5526,-3.7379,-3.8961,-3.997,-4.0111,-4.1326,-4.2208,-4.2459,-4.3204,-4.3662,-4.3713,-4.4499,-4.4817,-4.4554,-4.4613,-4.4546,-4.4383,-4.4192,-4.4079,-4.3974,-4.4005,-4.4005,-4.3974,-4.3795,-4.3664,-4.3597,-4.3391,-4.3268,-4.3214,-4.3214,-4.3105,-4.2958,-4.3284,-4.3612,-4.3892,-4.3809,-4.3873,-4.4005,-4.4005,-4.3856,-4.367,-4.367,-4.3522,-4.3367,-4.3409,-4.342,-4.3368,-4.3031,-4.3013,-4.3013,-4.2768,-4.2584,-4.2488,-4.2706,-4.2085,-4.145,-4.145,-4.095,-4.0489,-4.0489,-4.0315,-3.9912,-3.9084,-3.8931,-3.8642,-3.7777,0.0,0.0,-3.6488,-3.6372,-3.6161,-3.5565,-3.5295,-3.4789,-3.393,-3.2839,-3.1453,0.0,-2.8539,-2.7643,-2.7007,-2.6804,-2.659,-2.6359,-2.5884,-2.5054,0.0,0.0,0.0,0.0,0.0,0.0,0.0,0.0,0.0,0.0,0.0,0.0,0.0,0.0,0.0,0.0,0.0,0.0,0.0,0.0,0.0,0.0,-3.3016,-3.5327,-3.5931,-3.655,-3.7763,-4.0069,-4.0758,-4.1393,-4.2258,-4.3104,-4.3605,-4.3605,-4.4266,-4.4595,-4.4456,-4.4829,-4.4896,-4.465,-4.4465,-4.4346,-4.4221,-4.4048,-4.391,-4.3781,-4.3781,-4.373,-4.3579,-4.3495,-4.3356,0.0,-4.3069,-4.2938,-4.2824,-4.2824,-4.2768,0.0,0.0,0.0,0.0,0.0,-4.4005,-4.4005,-4.4005,-4.4005,-4.4005,-4.4005,-4.4005,-4.4005,-4.4005,-4.4005,-4.3943,-4.3621,-4.3615,-4.3649,-4.3445,-4.3228,-4.3111,-4.3369,-4.2792,-4.2119,-4.1857,-4.1393,-4.0931,-4.0566,0.0,0.0,-3.9873,-3.9796,-3.9508,-3.8661,-3.8546,-3.8238,0.0,-3.693,-3.6526,-3.6065,-3.5699,-3.5141,-3.4263,-3.3404,0.0,0.0,0.0,-2.8077,-2.7229,-2.72,0.0,0.0,0.0,0.0,0.0,0.0,0.0,0.0,-2.6671,-2.6845,0.0,0.0,0.0,0.0,0.0,0.0,0.0,0.0,0.0,0.0,0.0,0.0,0.0,0.0,0.0,0.0,-3.6936,-3.947,-4.0405,-3.9814,-3.9946,-4.1726,-4.2027,-4.2393,-4.3162,-4.3934,-4.4397,-4.4397,-4.4862,-4.514,0.0,0.0,0.0,0.0,0.0,-4.4221,-4.3974,-4.3846,-4.3682,-4.341,-4.341,-4.325,-4.2976,-4.3069,-4.2995,-4.2711,-4.2673,-4.2534,-4.2369,-4.2369,-4.2494,-4.2788,-4.2865,-4.3032,-4.3304,-4.3795,-4.4005,0.0,0.0,0.0,0.0,-4.4005,-4.4005,-4.4005,-4.4005,-4.4005,-4.4005,-4.4005,-4.4162,-4.4374,-4.4383,-4.3981,-4.3682,-4.395,-4.3382,-4.2641,-4.2119,-4.194,-4.1649,-4.0765,-4.0627,-4.0623,-4.0508,-4.0489,-4.0258,-3.9527,-3.9431,0.0,-3.8257,-3.7469,-3.6969,-3.6873,0.0,0.0,-3.4558,-3.3603,-3.2692,-3.19,-3.0362,-2.9178,-2.8463,-2.8462,-2.8818,-2.9574,-2.9612,-3.0394,-3.1942,-3.2135,-3.3063,-3.4582,-3.0578,-3.0037,0.0,0.0,0.0,0.0,0.0,0.0,0.0,0.0,0.0,0.0,0.0,0.0,0.0,0.0,0.0,-3.6803,-3.9127,-4.111,-4.2366,-4.2028,-4.1947,-4.2763,-4.3412,-4.3874,-4.4047,-4.4652,-4.5033,-4.5033,-4.4935,-4.4776,-4.4572,-4.4493,0.0,-4.4079,-4.4017,-4.3892,-4.3697,-4.3406,-4.3141,-4.294,0.0,0.0,-4.2865,-4.2808,-4.275,-4.2711,-4.2454,-4.2454,-4.2634,-4.2634,-4.2806,-4.3123,-4.3373,-4.3477,-4.3563,-4.386,-4.4005,-4.4005,-4.4005,-4.4005,-4.4005,-4.4005,-4.4005,-4.4005,-4.4005,-4.4005,0.0,-4.4005,-4.4048,-4.4121,-4.4346,-4.4325,-4.4301,-4.4554,-4.3976,-4.3312,-4.3187,-4.2846,-4.2279,-4.1399,-4.1409,-4.1335,-4.0623,-4.0489,-4.045,-4.0277,-4.0258,-3.9969,-3.9142,-3.8892,-3.8527,-3.7815,-3.6988,-3.6425,-3.6317,-3.4847,-3.3596,-3.2805,-3.178,-3.1168,-3.1069,-3.1692,-3.1788,-3.1332,-3.1948,-3.2439,-3.2778,-3.4176,-3.5403,-3.6366,-3.4185,-3.4156,0.0,0.0,0.0,0.0,0.0,0.0,0.0,0.0,0.0,0.0,0.0,-3.1482,0.0,0.0,-3.8099,-3.991,-4.1411,-4.2582,-4.327,-4.3482,-4.3555,-4.3503,-4.3752,-4.4053,-4.4513,-4.4827,-4.4985,-4.4943,-4.4701,-4.4493,-4.4374,-4.4192,-4.3968,-4.3609,-4.3664,-4.3495,-4.3032,-4.2959,-4.279,-4.2598,-4.2541,-4.2519,-4.2555,-4.2534,-4.2494,-4.2494,-4.2369,-4.2391,-4.2494,-4.2494,-4.2573,-4.2786,-4.305,-4.3267,-4.3426,-4.3697,-4.3795,-4.3828,-4.3955,-4.4005,-4.4005,-4.4005,-4.4005,-4.4005,-4.4005,-4.4005,-4.4005,-4.4005,-4.4005,-4.4017,-4.4181,-4.4192,-4.4279,-4.4519,-4.4278,-4.3888,-4.3553,-4.3297,-4.2854,-4.2017,-4.1724,-4.1452,-4.1029,-4.0694,-4.0489,-4.0489,-4.0489,-4.0335,-3.995,-3.9546,-3.9123,-3.87,-3.7873,-3.7353,-3.7401,-3.5828,-3.4481,-3.3641,-3.2769,-3.2338,-3.2405,-3.2748,-3.3171,-3.3643,-3.4067,-3.4735,-3.5596,-3.6477,-3.7351,-3.8175,-3.7348,-3.7386,0.0,0.0,0.0,0.0,0.0,0.0,0.0,0.0,-2.9194,-3.3048,-3.4527,-3.5988,-3.8747,-3.9956,-4.0988,-4.2397,-4.3308,-4.3815,-4.3815,-4.4335,-4.4554,-4.4056,-4.3847,-4.4037,-4.4743,-4.4726,-4.4676,-4.4643,-4.4299,-4.4114,-4.4192,-4.3828,-4.3495,-4.3176,-4.3303,-4.3032,-4.2404,-4.244,-4.2378,-4.2175,-4.2092,-4.211,-4.2163,-4.2246,-4.2287,-4.2287,-4.2287,-4.2287,-4.2287,-4.2287,-4.2287,-4.2328,-4.2534,-4.2806,-4.3087,-4.3391,-4.3529,-4.3563,-4.3763,-4.386,-4.3923,-4.3923,-4.3974,-4.4005,-4.4005,-4.4005,-4.4005,-4.4005,-4.4005,-4.4005,-4.4005,-4.4005,-4.4048,-4.4279,-4.4318,-4.4186,-4.3705,-4.363,-4.3453,-4.2616,-4.2167,-4.1781,-4.1456,-4.1029,-4.07,-4.0527,-4.0489,-4.0489,-4.0489,-3.9931,-3.9527,-3.9527,-3.8757,-3.818,-3.8007,-3.6757,-3.568,-3.4976,-3.4289,-3.3923,-3.3961,-3.3917,-3.4552,-3.5978,-3.6061,-3.6826,-3.8395,-3.8402,-3.8871,-3.9714,-3.9734,-3.9746,-2.3011,-2.4083,0.0,-2.8163,-2.8815,-3.0395,0.0,0.0,-3.5205,-3.7832,-3.9214,-4.004,-4.0421,-4.1912,-4.3147,-4.336,-4.4099,-4.4668,-4.4668,-4.4542,-4.4401,-4.4361,-4.4543,-4.4706,-4.48,-4.4519,-4.4346,-4.4346,-4.3652,-4.3406,-4.3851,-4.3249,-4.2996,-4.3123,-4.2903,-4.2559,-4.2056,-4.1778,-4.1516,-4.1328,-4.1587,-4.1675,-4.1692,-4.2121,-4.2287,-4.2287,-4.2287,-4.2287,-4.2287,-4.2287,-4.2287,-4.2287,-4.2328,-4.2369,-4.2472,-4.305,-4.3232,-4.3232,-4.3268,-4.3426,-4.3646,-4.3646,-4.3795,-4.4005,-4.4005,-4.4005,-4.4005,-4.4005,-4.4005,-4.4005,-4.4005,-4.4005,-4.4005,-4.4048,-4.4048,-4.403,-4.3967,-4.4129,-4.4062,-4.3265,-4.3383,-4.3137,-4.1666,-4.1527,-4.1393,-4.0623,-4.0489,-4.0489,-4.0489,-4.0412,-4.0354,-4.0354,-3.9642,-3.8834,-3.8065,-3.7834,-3.768,-3.7584,-3.7469,-3.7425,-3.7434,-3.7434,-3.7544,-3.7797,-3.7751,-3.8199,-3.9177,-3.9177,-3.9629,-4.0467,-4.0532,-4.061,-2.8462,0.0,0.0,0.0,-3.364,-3.5182,-3.8377,-3.8436,-3.8527,-4.0977,-4.1844,-4.2344,-4.2957,-4.3599,-4.4051,0.0,-4.4449,-4.4572,-4.4572,-4.4346,-4.3994,-4.3527,-4.3941,-4.4279,-4.4279,-4.4151,-4.3918,-4.3572,-4.344,-4.3249,-4.2922,-4.2865,-4.2675,-4.2284,-4.2239,-4.2179,-4.202,-4.2009,-4.23,-4.2783,-4.2875,-4.3075,-4.3324,-4.3113,-4.2733,-4.2287,-4.2287,-4.2287,-4.2287,-4.2287,-4.2287,-4.2287,-4.2287,-4.2287,-4.2369,-4.2768,-4.292,-4.2957,-4.3321,-4.3495,-4.3631,-4.3795,-4.3892,-4.4005,-4.4005,-4.4005,-4.4005,-4.4005,-4.4005,-4.4005,-4.4005,-4.4005,-4.4005,-4.4005,-4.4005,-4.4005,-4.4005,-4.4109,-4.4087,-4.3722,-4.3574,-4.3293,-4.2712,-4.2448,-4.2083,-4.1357,-4.0816,-4.0489,-4.0489,-4.0489,-4.0489,-4.0489,-4.02,-3.9662,-3.8834,-3.8757,-3.8546,-3.8027,-3.8007,-3.7988,-3.8003,-3.8003,-3.8248,-3.8782,-3.8763,-3.9201,-4.0068,-4.0058,-4.0246,-4.0607,-4.1189,-4.1473,-3.1812,0.0,0.0,-3.5739,-3.7373,-3.8859,-3.9881,-4.0271,-4.0993,-4.2997,-4.3231,-4.3324,-4.4113,-4.4091,0.0,-4.4226,-4.4279,-4.4289,-4.4289,-4.3935,-4.354,-4.3157,-4.3373,-4.3592,-4.3664,-4.3631,-4.3477,-4.3014,-4.3014,-4.281,-4.2284,-4.236,-4.2264,-4.1983,-4.2,-4.2118,-4.2302,-4.2417,-4.2888,-4.3715,-4.365,-4.3869,-4.437,-4.3985,-4.35,-4.2929,-4.2929,-4.2822,-4.2626,-4.2626,-4.2483,-4.2287,-4.2287,-4.2287,-4.2328,-4.2534,-4.2595,-4.2673,-4.3178,-4.3408,-4.3529,-4.3795,-4.3942,-4.4005,-4.4005,-4.4005,-4.4005,-4.4005,-4.4005,-4.4005,-4.4005,-4.4005,-4.4005,-4.4005,-4.4005,-4.4005,-4.4005,-4.4005,-4.4005,-4.4005,-4.3743,-4.3517,-4.3435,-4.3213,-4.2814,-4.2157,-4.1572,-4.1027,-4.0546,-4.0489,-4.0489,-4.0489,-4.0489,-4.0258,-3.9681,-3.9623,-3.9354,-3.8719,-3.8681,-3.8681,-3.8681,-3.8681,-3.8988,-3.9623,-3.9634,-3.9937,-4.0573,-4.0829,-4.0959,-4.0979,-4.1895,-4.2463,0.0,0.0,-3.5795,-3.7411,-3.9082,-4.0736,-4.2333,-4.2686,-4.2958,-4.3782,-4.3355,-4.2828,-4.2846,-4.2865,-4.2865,-4.2865,-4.3515,-4.3986,-4.3986,-4.3318,-4.3083,-4.3767,-4.3193,-4.2816,0.0,-4.3032,-4.3032,-4.2995,-4.2098,-4.1735,-4.2157,-4.1622,-4.1677,-4.263,-4.248,-4.2645,-4.318,-4.2706,-4.2757,-4.3214,-4.2944,-4.3227,-4.395,-4.437,-4.4571,-4.4553,-4.4553,-4.4125,-4.3465,-4.3465,-4.3001,-4.2287,-4.2287,-4.2287,-4.2287,-4.2328,-4.2328,-4.2351,-4.2634,-4.2957,-4.3268,-4.3529,-4.3795,-4.4005,-4.4005,-4.4005,-4.4005,-4.4005,-4.4005,-4.4005,-4.4005,-4.4005,-4.4005,-4.4005,-4.4005,-4.4005,-4.4005,-4.4005,-4.4005,-4.4005,-4.4202,-4.412,-4.3323,-4.3573,-4.3576,-4.2793,-4.2868,-4.2412,-4.0719,-4.0489,-4.0489,-4.0489,-4.0489,-4.0489,-4.0469,-4.045,-4.045,-4.0431,-4.0412,-4.0412,-4.0412,-4.0412,-4.0431,-4.045,-4.0466,-4.0485,-4.0523,-4.142,-4.1859,-4.1879,-4.2772,-4.3597,0.0,0.0,-3.8462,-3.9965,-4.1181,-4.2259,-4.3355,-4.3596,-4.3522,-4.3262,-4.2556,-4.1832,-4.1311,-4.12,-4.1367,-4.1924,-4.2686,-4.3392,-4.3912,-4.3719,-4.3296,-4.272,-4.2787,0.0,0.0,0.0,0.0,-4.2038,-4.199,-4.1778,-4.1373,-4.188,-4.2236,-4.2215,-4.2705,-4.308,-4.3458,-4.3299,-4.3644,-4.4492,-4.5035,-4.5276,-4.5186,-4.5303,-4.5106,-4.4624,-4.4624,-4.4482,-4.4196,-4.3714,-4.3358,-4.3036,-4.2501,-4.2287,-4.2287,-4.2287,-4.2287,-4.2328,-4.2613,-4.292,-4.3232,-4.3529,-4.3795,-4.4005,-4.4005,-4.4005,-4.4005,-4.4005,-4.4005,-4.4005,-4.4005,-4.4005,-4.4005,-4.4005,-4.4005,-4.4005,-4.4005,-4.4005,-4.4005,-4.4005,-4.4079,-4.4117,-4.4018,-4.4131,-4.4056,-4.3573,-4.2774,-4.2027,-4.145,-4.0854,-4.0489,-4.0489,-4.0489,-4.0489,-4.0489,-4.0489,-4.0489,-4.0489,-4.0489,-4.0489,-4.0489,-4.0489,-4.0489,-4.0489,-4.1066,-4.1354,-4.1354,-4.2255,-4.2698,-4.2717,-4.3593,-4.4129,-3.7516,-3.9026,-3.9896,-4.1841,-4.2649,-4.3102,-4.3717,-4.3638,-4.3169,-4.2166,-4.1051,-3.9937,-3.8841,-3.8637,-3.9101,-4.0476,-4.1308,-4.2298,-4.3801,-4.3472,-4.291,-4.2463,-4.2359,0.0,0.0,0.0,0.0,-4.1561,-4.1666,-4.163,-4.1298,-4.2002,-4.2571,-4.2834,-4.3133,-4.3527,-4.3994,-4.3664,-4.3939,-4.4875,-4.5751,-4.6116,-4.6077,-4.5985,-4.5747,-4.5463,-4.5463,-4.5302,-4.4999,-4.4535,-4.4018,-4.3465,-4.2929,-4.2537,-4.2287,-4.2287,-4.2287,-4.2328,-4.2613,-4.2826,-4.3069,-4.3477,-4.373,-4.386,-4.3974,-4.4005,-4.4005,-4.4005,-4.4005,-4.4005,-4.4005,-4.4005,-4.4005,-4.4005,-4.4005,-4.4005,-4.4005,-4.4005,-4.4005,-4.4005,-4.4005,-4.4048,-4.4221,-4.4346,-4.4384,-4.4353,-4.3331,-4.2482,-4.228,-4.1777,-4.1296,-4.0989,-4.095,-4.0835,-4.0527,-4.0489,-4.0489,-4.0489,-4.0489,-4.0489,-4.0489,-4.0796,-4.095,-4.095,-4.1816,-4.2258,-4.2277,-4.3124,-4.3528,-4.3547,-4.4427,-4.4829,-3.9704,-4.0124,-4.0331,-4.2941,-4.3391,-4.325,-4.3474,-4.2879,-4.1875,-4.0473,-3.8841,-3.7151,0.0,0.0,-3.6203,-3.8581,-3.9531,-4.0898,-4.359,-4.2642,-4.1995,0.0,0.0,0.0,0.0,0.0,0.0,-4.1595,0.0,-4.125,-4.1957,-4.2061,-4.2718,-4.4182,-4.3814,-4.3939,-4.4635,-4.3781,-4.3647,-4.4361,-4.5018,-4.5786,-4.6542,-4.6284,-4.6495,-4.6934,-4.6998,-4.6569,-4.5856,-4.582,-4.4946,-4.3625,-4.3536,-4.3036,-4.2341,-4.2305,-4.2287,-4.2328,-4.2595,-4.2711,-4.2808,-4.3408,-4.3597,-4.3664,-4.3923,-4.4005,-4.4005,-4.4005,-4.4005,-4.4005,-4.4005,-4.4005,-4.4005,-4.4005,-4.4005,-4.4005,-4.4005,-4.4005,-4.4005,-4.4005,-4.4005,-4.4005,-4.4005,-4.4221,-4.4599,-4.5096,-4.4513,-4.379,-4.3242,-4.3124,-4.2777,-4.195,-4.1873,-4.1527,-4.07,-4.0623,-4.0623,-4.0623,-4.0623,-4.0623,-4.0623,-4.1431,-4.1873,-4.1873,-4.272,-4.3162,-4.3162,-4.397,-4.4374,-4.4393,-4.5201,-4.5586,-4.0331,-4.177,-4.2853,-4.3465,-4.3563,-4.3296,-4.2569,-4.1442,-3.9933,-3.7811,-3.5692,-3.3751,-3.2135,0.0,0.0,-3.7002,-3.9309,0.0,-4.3439,-4.3084,0.0,0.0,0.0,-4.1753,-4.1834,-4.1873,0.0,0.0,-4.2123,-4.1638,-4.1511,-4.2586,-4.3212,-4.3276,-4.3687,-4.3829,-4.3663,-4.3426,-4.3512,-4.3889,-4.4563,-4.5072,-4.5477,-4.597,-4.6284,-4.6447,-4.6842,-4.6873,-4.6641,-4.6052,-4.557,-4.5106,-4.3964,-4.3375,-4.3126,-4.2519,-4.2287,-4.2328,-4.2391,-4.2534,-4.2788,-4.3178,-4.3426,-4.3664,-4.3923,-4.4005,-4.4005,-4.4005,-4.4005,-4.4005,-4.4005,-4.4005,-4.4005,-4.4005,-4.4005,-4.4005,-4.4005,-4.4005,-4.4005,-4.4005,-4.4005,-4.4005,-4.4005,-4.4374,-4.4751,-4.4872,-4.5051,-4.4879,-4.4105,-4.347,-4.3008,-4.2797,-4.2777,-4.2681,-4.245,-4.2431,-4.2431,-4.2431,-4.2431,-4.2431,-4.2431,-4.2643,-4.2777,-4.2777,-4.3585,-4.3989,-4.3989,-4.4855,-4.5259,-4.5259,-4.549,-4.5586,-4.1478,-4.2556,-4.3159,-4.3178,-4.285,-4.2123,-4.0578,-3.9097,-3.7192,-3.4273,-3.2391,0.0,-2.9256,0.0,0.0,0.0,0.0,0.0,-4.275,-4.2666,-4.2297,0.0,-4.1965,0.0,-4.1988,-4.2302,-4.2681,0.0,-4.2601,-4.2228,-4.2328,-4.3144,-4.3538,-4.3411,-4.3755,-4.368,-4.3035,-4.3202,-4.3469,-4.3848,-4.4186,-4.4635,-4.5197,-4.5649,-4.597,-4.6235,0.0,-4.6998,-4.6962,-4.6516,-4.6123,-4.5677,-4.4464,-4.3786,-4.3411,-4.259,-4.2287,-4.2287,-4.2287,-4.2391,-4.2573,-4.2882,-4.3087,-4.3249,-4.3563,-4.373,-4.3828,-4.3828,-4.3892,-4.4005,-4.4005,-4.4005,-4.4005,-4.4005,-4.4005,-4.4005,-4.4005,-4.4005,-4.4005,-4.4005,-4.4005,-4.4005,-4.4005,-4.425,-4.4538,-4.4751,-4.5052,-4.515,-4.4895,-4.447,-4.4047,-4.3662,-4.3624,-4.347,-4.3124,-4.3104,-4.3104,-4.3104,-4.3104,-4.3104,-4.3104,-4.3431,-4.3624,-4.3624,-4.4451,-4.4874,-4.4874,-4.5355,-4.5586,-4.5586,-4.5586,-4.5586,-4.2668,-4.2786,-4.2391,-4.2634,-4.1851,-4.0423,-3.8275,-3.6324,-3.3973,-3.0461,0.0,-2.803,-2.6636,-2.7917,-3.0256,-3.351,0.0,-3.8168,-4.1791,-4.1827,-4.163,-4.2005,-4.2061,-4.2109,-4.2268,-4.2973,-4.3354,-4.3407,-4.2978,-4.2935,-4.3478,-4.3542,-4.3659,-4.3839,-4.3798,-4.3443,-4.2634,-4.3019,-4.3426,-4.3806,-4.3739,-4.4186,-4.502,-4.5197,-4.558,-4.6119,0.0,0.0,-4.6998,-4.6998,-4.6587,-4.5873,-4.4963,-4.4232,-4.3554,-4.2626,-4.2287,-4.2287,-4.2287,-4.2287,-4.2351,-4.2595,-4.2711,-4.275,-4.3087,-4.341,-4.3579,-4.3579,-4.3795,-4.4005,-4.4005,-4.4005,-4.4005,-4.4005,-4.4005,-4.4005,-4.4005,-4.4005,-4.4005,-4.4005,-4.4005,-4.4005,-4.4005,-4.4017,-4.4221,-4.4726,-4.4825,-4.503,-4.555,-4.5586,-4.5297,-4.4547,-4.447,-4.4182,-4.3489,-4.3431,-4.3431,-4.3431,-4.3431,-4.3431,-4.3431,-4.4105,-4.447,-4.447,-4.5201,-4.5586,-4.5586,-4.5586,-4.5586,-4.5586,-4.5586,-4.5586,-4.279,-4.2806,-4.2634,-4.2711,-4.1609,-3.9859,-3.7273,-3.4074,0.0,0.0,0.0,-2.4838,-2.386,-2.613,0.0,-3.2651,0.0,0.0,0.0,0.0,-4.1286,0.0,0.0,0.0,0.0,0.0,0.0,0.0,0.0,0.0,-4.3032,-4.3223,-4.3191,-4.2851,-4.2867,-4.2743,-4.2634,-4.268,-4.2743,-4.2851,-4.3096,-4.3339,-4.3545,-4.4749,-4.5355,-4.5511,0.0,0.0,-4.6998,-4.6998,-4.6908,-4.6641,-4.5178,-4.4535,-4.425,-4.2822,-4.2287,-4.2287,-4.2287,-4.2287,-4.2351,-4.2595,-4.2711,-4.275,-4.3087,-4.341,-4.3579,-4.3579,-4.3795,-4.4005,-4.4005,-4.4005,-4.4005,-4.4005,-4.4005,-4.4005,-4.4005,-4.4005,-4.4005,-4.4005,-4.4005,-4.4005,-4.4005,-4.4162,-4.4457,-4.4751,-4.4985,-4.5243,-4.5568,-4.5586,-4.5528,-4.5393,-4.5355,-4.5316,-4.5182,-4.5163,-4.5163,-4.5163,-4.5163,-4.5163,-4.5163,-4.5297,-4.5355,-4.5355,-4.5509,-4.5586,-4.5586,-4.5586,-4.5586,-4.5586,-4.5586,-4.5586,-4.2444,-4.2534,-4.2494,-4.2494,-4.1022,-3.8689,-3.5327,0.0,0.0,0.0,0.0,-2.2813,-2.2887,0.0,0.0,0.0,0.0,0.0,0.0,0.0,0.0,0.0,0.0,0.0,0.0,0.0,0.0,0.0,0.0,0.0,-4.3123,-4.3021,-4.2974,-4.2974,-4.2743,-4.2634,-4.2634,-4.2634,-4.2634,-4.2775,-4.2945,-4.3068,-4.3295,-4.4282,-4.4766,-4.4964,0.0,0.0,-4.659,-4.659,-4.6731,-4.6873,-4.5695,-4.4981,-4.4482,-4.334,-4.2662,-4.2287,-4.2287,-4.2287,-4.2328,-4.2472,-4.2494,-4.2534,-4.267,-4.3032,-4.3391,-4.3391,-4.3697,-4.4005,-4.4005,-4.4005,-4.4005,-4.4005,-4.4005,-4.4005,-4.4005,-4.4005,-4.4005,-4.4005,-4.4005,-4.4005,-4.4005,-4.4091,-4.426,-4.4546,-4.4825,-4.5074,-4.5362,-4.5513,-4.5586,-4.5586,-4.5586,-4.5586,-4.5586,-4.5586,-4.5586,-4.5586,-4.5586,-4.5586,-4.5586,-4.5586,-4.5586,-4.5586,-4.5586,-4.5586,-4.5586,-4.5586,-4.5586,-4.5586,-4.5586,-4.5586,-4.1899,-4.2162,-4.2287,-4.2287,-4.0271,-3.7345,-3.3705,-3.0065,0.0,0.0,-2.1671,-2.1422,-2.2316,0.0,0.0,0.0,0.0,0.0,0.0,0.0,0.0,0.0,0.0,0.0,0.0,0.0,0.0,0.0,0.0,0.0,0.0,-4.2805,-4.2805,-4.3141,-4.2789,-4.2634,-4.2634,-4.2634,-4.2696,-4.2837,-4.2899,-4.3084,-4.3372,-4.3956,-4.4299,-4.4558,0.0,0.0,0.0,-4.6186,-4.6542,-4.689,-4.5927,-4.516,-4.45,-4.359,-4.284,-4.2287,-4.2287,-4.2287,-4.2287,-4.2287,-4.2287,-4.2287,-4.2287,-4.2709,-4.3214,-4.3214,-4.3582,-4.4005,-4.4005,-4.4005,-4.4005,-4.4005,-4.4005,-4.4005,-4.4005,-4.4005,-4.4005,-4.4005,-4.4005,-4.4005,-4.4005,-4.4005,-4.4091,-4.4457,-4.465,-4.4938,-4.5243,-4.5476,-4.5586,-4.5586,-4.5586,-4.5586,-4.5586,-4.5586,-4.5586,-4.5586,-4.5586,-4.5586,-4.5586,-4.5586,-4.5586,-4.5586,-4.5586,-4.5586,-4.5586,-4.5586,-4.5586,-4.5586,-4.5586,-4.5586,-4.1181,-4.1734,-4.2287,-4.2287,-3.9432,-3.5971,-3.3455,0.0,0.0,-2.1753,-2.0728,-2.0572,-2.1385,-2.2235,0.0,0.0,0.0,0.0,0.0,0.0,0.0,0.0,0.0,0.0,0.0,0.0,0.0,0.0,0.0,0.0,0.0,-4.2618,-4.2634,-4.268,-4.2618,-4.2634,-4.2634,-4.2634,-4.2634,-4.2634,-4.2837,-4.2945,-4.3157,-4.3898,-4.4299,-4.4558,0.0,0.0,0.0,-4.6186,-4.6542,-4.6837,-4.532,-4.4678,-4.4428,-4.2947,-4.2341,-4.2287,-4.2287,-4.2287,-4.2287,-4.2287,-4.2287,-4.2287,-4.2287,-4.2709,-4.3214,-4.3214,-4.3582,-4.4005,-4.4005,-4.4005,-4.4005,-4.4005,-4.4005,-4.4005,-4.4005,-4.4005,-4.4005,-4.4005,-4.4005,-4.4005,-4.4005,-4.4005,-4.4181,-4.4676,-4.4776,-4.4966,-4.5495,-4.5586,-4.5586,-4.5586,-4.5586,-4.5586,-4.5586,-4.5586,-4.5586,-4.5586,-4.5586,-4.5586,-4.5586,-4.5586,-4.5586,-4.5586,-4.5586,-4.5586,-4.5586,-4.5586,-4.5586,-4.5586,-4.5586,-4.5586,-4.0717,-4.168,-4.2162,-4.1698,-3.8968,-3.565,-3.2813,0.0,-2.4016,-2.1607,-2.056,-2.0313,-2.1084,-2.1872,-2.3171,0.0,-2.5761,-2.7192,-3.1391,0.0,0.0,0.0,0.0,0.0,0.0,0.0,0.0,0.0,0.0,0.0,0.0,-4.2634,-4.2634,-4.2634,-4.2634,-4.2634,-4.2634,-4.2634,-4.2634,-4.2634,-4.2696,-4.2821,-4.3007,-4.3399,-4.3638,-4.3831,0.0,0.0,0.0,-4.5631,-4.62,-4.6926,-4.6284,-4.5463,-4.4535,-4.3911,-4.309,-4.2287,-4.2287,-4.2287,-4.2287,-4.2287,-4.2287,-4.2328,-4.2494,-4.2844,-4.3232,-4.3391,-4.3697,-4.4005,-4.4005,-4.4005,-4.4005,-4.4005,-4.4005,-4.4005,-4.4005,-4.4005,-4.4005,-4.4005,-4.4005,-4.4005,-4.4005,-4.4005,-4.4079,-4.4279,-4.4457,-4.4701,-4.5074,-4.5263,-4.5419,-4.5586,-4.5586,-4.5586,-4.5586,-4.5586,-4.5586,-4.5586,-4.5586,-4.5586,-4.5586,-4.5586,-4.5586,-4.5586,-4.5586,-4.5586,-4.5586,-4.5586,-4.5586,-4.5586,-4.5586,-4.5586,-3.9129,-4.0467,-4.1127,-4.0556,-3.8058,-3.4954,0.0,-2.771,-2.3802,-2.1857,-2.0702,-2.0346,-2.1289,-2.1953,-2.2815,-2.4123,-2.4219,-2.5372,-2.8959,-3.0088,0.0,0.0,0.0,0.0,0.0,0.0,0.0,0.0,0.0,0.0,0.0,-4.2634,-4.2634,-4.2634,-4.2634,-4.2634,-4.2634,-4.2634,-4.2634,-4.2634,-4.2634,-4.2696,-4.2899,-4.3007,-4.319,0.0,0.0,0.0,0.0,-4.5303,-4.5985,-4.6944,-4.648,-4.5606,-4.4553,-4.4107,-4.3233,-4.2287,-4.2287,-4.2287,-4.2287,-4.2287,-4.2287,-4.2369,-4.2729,-4.2995,-4.3268,-4.3529,-4.3795,-4.4005,-4.4005,-4.4005,-4.4005,-4.4005,-4.4005,-4.4005,-4.4005,-4.4005,-4.4005,-4.4005,-4.4005,-4.4005,-4.4005,-4.4005,-4.4036,-4.4091,-4.426,-4.4493,-4.4751,-4.4943,-4.514,-4.5342,-4.5362,-4.5419,-4.5586,-4.5513,-4.5513,-4.5586,-4.5532,-4.5495,-4.5495,-4.5568,-4.5568,-4.5495,-4.5568,-4.5586,-4.5586,-4.5586,-4.5586,-4.5586,-4.5586,-4.5586,-3.6024,-3.763,-3.8843,-3.8843,-3.6453,-3.3491,0.0,-2.6889,-2.3285,-2.2446,-2.1177,-2.0623,-2.2025,-2.2452,-2.2803,-2.3414,-2.4672,-2.6729,-3.0107,-3.137,0.0,0.0,0.0,0.0,0.0,0.0,0.0,0.0,0.0,0.0,0.0,0.0,-4.2634,-4.2634,-4.2634,-4.2634,-4.2634,-4.2634,-4.2634,-4.2634,-4.2634,-4.2696,-4.2899,-4.2899,0.0,0.0,0.0,0.0,0.0,-4.5303,-4.5985,-4.6837,-4.5267,-4.4624,-4.4428,-4.2876,-4.2305,-4.2287,-4.2287,-4.2287,-4.2287,-4.2287,-4.2287,-4.2409,-4.3013,-4.3214,-4.3268,-4.3529,-4.3795,-4.4005,-4.4005,-4.4005,-4.4005,-4.4005,-4.4005,-4.4005,-4.4005,-4.4005,-4.4005,-4.4005,-4.4005,-4.4005,-4.4005,-4.4005,-4.4109,-4.4346,-4.4402,-4.4493,-4.4751,-4.48,-4.4819,-4.48,-4.48,-4.503,-4.5549,-4.5342,-4.5322,-4.5586,-4.5342,-4.5201,-4.5201,-4.5457,-4.5476,-4.5201,-4.5457,-4.5586,-4.5586,-4.5586,-4.5586,-4.5586,-4.5586,-4.5586,-3.2616,-3.3955,-3.4633,-3.4079,-3.2402,-3.0404,-2.853,-2.5283,-2.265,-2.2527,-2.1706,-2.1349,-2.2439,-2.3131,-2.4127,-2.5823,-2.6487,0.0,0.0,0.0,0.0,0.0,0.0,0.0,0.0,0.0,0.0,0.0,0.0,0.0,0.0,0.0,-4.2634,-4.2634,-4.2634,-4.2634,-4.2634,-4.2634,-4.2634,-4.2634,-4.2634,-4.2634,-4.2696,-4.2837,0.0,0.0,0.0,0.0,0.0,-4.5091,-4.5734,-4.6389,-4.5685,-4.5088,-4.45,-4.35,-4.2769,-4.2287,-4.2287,-4.2287,-4.2287,-4.2287,-4.2287,-4.2391,-4.3013,-4.3214,-4.3304,-4.373,-4.3923,-4.4005,-4.4005,-4.4005,-4.4005,-4.4005,-4.4005,-4.4005,-4.4005,-4.4005,-4.4005,-4.4005,-4.4005,-4.4005,-4.4005,-4.4005,-4.4017,-4.4121,-4.4121,-4.4221,-4.4493,-4.4519,-4.4599,-4.4776,-4.48,-4.4868,-4.5052,-4.4985,-4.4943,-4.5052,-4.4985,-4.4938,-4.4938,-4.5007,-4.5007,-4.4938,-4.5007,-4.514,-4.5322,-4.514,-4.5159,-4.5322,-4.5513,-4.5586,-2.9048,-3.0755,-3.1487,-3.0957,-2.9886,-2.8459,-2.655,-2.417,-2.2324,-2.2157,-2.1804,-2.1807,-2.2647,-2.3449,-2.4426,-2.5737,-2.6165,0.0,0.0,0.0,0.0,0.0,0.0,0.0,0.0,0.0,0.0,0.0,0.0,0.0,0.0,0.0,-4.2634,-4.2634,-4.2634,-4.2634,-4.2634,-4.2634,-4.2634,-4.2634,-4.2634,-4.2634,-4.2634,0.0,0.0,0.0,0.0,0.0,0.0,-4.4783,-4.532,-4.5798,-4.5247,-4.4723,-4.4201,-4.3344,-4.2733,-4.2287,-4.2287,-4.2287,-4.2287,-4.2287,-4.2432,-4.2709,-4.3087,-4.3339,-4.3563,-4.391,-4.4005,-4.4005,-4.4005,-4.4005,-4.4005,-4.4005,-4.4005,-4.4005,-4.4005,-4.4005,-4.4005,-4.4005,-4.4005,-4.4005,-4.4005,-4.4005,-4.4005,-4.4005,-4.4005,-4.4048,-4.4221,-4.425,-4.4318,-4.4484,-4.4511,-4.4511,-4.4511,-4.4599,-4.4701,-4.4776,-4.4701,-4.465,-4.465,-4.4751,-4.4751,-4.465,-4.4751,-4.4872,-4.5052,-4.4872,-4.4938,-4.5201,-4.5362,-4.5495,0.0,-2.7692,-2.8899,-2.8816,-2.8263,-2.7139,-2.4944,-2.3343,0.0,-2.1453,-2.1589,-2.204,-2.283,-2.356,-2.4065,-2.4165,0.0,0.0,0.0,0.0,0.0,0.0,0.0,0.0,0.0,0.0,0.0,0.0,0.0,0.0,0.0,0.0,0.0,-4.2634,-4.2634,-4.2634,-4.2634,-4.2634,-4.2634,-4.2634,-4.2634,-4.2634,-4.2634,0.0,0.0,0.0,0.0,0.0,0.0,-4.4373,-4.4801,-4.5217,-4.4261,-4.3857,-4.3722,-4.2743,-4.2341,-4.2287,-4.2287,-4.2287,-4.2287,-4.2287,-4.2709,-4.3214,-4.3214,-4.3563,-4.4005,-4.4005,-4.4005,-4.4005,-4.4005,-4.4005,-4.4005,-4.4005,-4.4005,-4.4005,-4.4005,-4.4005,-4.4005,-4.4005,-4.4005,-4.4005,-4.4005,-4.4005,-4.4005,-4.4005,-4.4005,-4.4005,-4.4005,-4.4005,-4.4005,-4.4005,-4.4005,-4.4005,-4.4005,-4.4221,-4.4465,-4.4726,-4.4493,-4.4374,-4.4374,-4.4599,-4.4624,-4.4374,-4.4624,-4.4751,-4.4726,-4.4776,-4.4919,-4.514,-4.5161,-4.5302,-2.136,0.0,-2.3133,-2.3071,-2.295,-2.2682,0.0,-2.1337,-2.0896,-2.1407,0.0,0.0,-2.4354,-2.441,0.0,0.0,0.0,0.0,0.0,0.0,0.0,0.0,0.0,0.0,0.0,0.0,0.0,0.0,0.0,0.0,0.0,0.0,0.0,-4.2555,-4.2634,-4.2634,-4.2634,-4.2634,-4.2634,-4.2634,-4.2634,-4.2634,-4.2634,0.0,0.0,0.0,0.0,0.0,-4.3443,-4.4202,-4.4801,-4.5269,-4.4855,-4.4565,-4.4307,-4.3511,-4.2822,-4.2287,-4.2287,-4.2287,-4.2287,-4.2287,-4.2709,-4.3214,-4.3214,-4.3563,-4.4005,-4.4005,-4.4005,-4.4005,-4.4005,-4.4005,-4.4005,-4.4005,-4.4005,-4.4005,-4.4005,-4.4005,-4.4005,-4.4005,-4.4005,-4.4005,-4.4005,-4.4005,-4.4005,-4.4005,-4.4005,-4.4005,-4.4005,-4.4005,-4.4005,-4.4005,-4.4005,-4.4005,-4.4005,-4.4048,-4.4121,-4.4181,-4.4121,-4.4091,-4.4091,-4.4151,-4.4151,-4.4109,-4.4346,-4.4402,-4.4181,-4.4599,-4.4726,-4.4599,-4.48,-4.4938,-1.9505,-2.0885,-2.2317,-2.2236,-2.2214,-2.2168,-2.1816,-2.1003,0.0,0.0,0.0,0.0,0.0,0.0,0.0,0.0,0.0,0.0,0.0,0.0,0.0,0.0,0.0,0.0,0.0,0.0,0.0,0.0,0.0,0.0,0.0,0.0,0.0,0.0,-4.197,-4.2294,-4.2634,-4.2634,-4.2634,-4.2634,-4.2634,-4.2634,-4.2634,0.0,0.0,0.0,0.0,0.0,-4.3157,-4.3814,-4.4226,-4.4365,-4.4177,-4.3898,-4.3625,-4.3131,-4.2662,-4.2287,-4.2287,-4.2287,-4.2287,-4.2287,-4.2709,-4.3214,-4.3214,-4.3563,-4.4005,-4.4005,-4.4005,-4.4005,-4.4005,-4.4005,-4.4005,-4.4005,-4.4005,-4.4005,-4.4005,-4.4005,-4.4005,-4.4005,-4.4005,-4.4005,-4.4005,-4.4005,-4.4005,-4.4005,-4.4005,-4.4005,-4.4005,-4.4005,-4.4005,-4.4005,-4.4005,-4.4005,-4.4005,-4.4005,-4.4005,-4.4005,-4.4005,-4.4005,-4.4005,-4.4005,-4.4005,-4.4005,-4.4151,-4.4151,-4.4005,-4.4308,-4.443,-4.4383,-4.4546,-4.4676,-1.9004,-2.145,-2.3768,-2.3133,-2.316,-2.3169,-2.2476,0.0,0.0,0.0,0.0,0.0,0.0,0.0,0.0,0.0,0.0,0.0,0.0,0.0,0.0,0.0,0.0,0.0,0.0,0.0,0.0,0.0,0.0,0.0,0.0,0.0,0.0,-4.0496,-4.1096,-4.1695,-4.2294,-4.252,-4.2634,-4.2634,-4.2634,-4.2634,-4.2634,-4.2634,0.0,0.0,0.0,0.0,-4.3157,-4.342,-4.3511,-4.341,-4.3202,-4.2967,-4.274,-4.2572,-4.2394,-4.2287,-4.2287,-4.2287,-4.2287,-4.2287,-4.2709,-4.3214,-4.3214,-4.3563,-4.4005,-4.4005,-4.4005,-4.4005,-4.4005,-4.4005,-4.4005,-4.4005,-4.4005,-4.4005,-4.4005,-4.4005,-4.4005,-4.4005,-4.4005,-4.4005,-4.4005,-4.4005,-4.4005,-4.4005,-4.4005,-4.4005,-4.4005,-4.4005,-4.4005,-4.4005,-4.4005,-4.4005,-4.4005,-4.4005,-4.4005,-4.4005,-4.4005,-4.4005,-4.4005,-4.4005,-4.4005,-4.4005,-4.4005,-4.4005,-4.4005,-4.4005,-4.4121,-4.4346,-4.4346,-4.4438,-1.9543,-2.2361,-2.4194,-2.1265,-2.1563,-2.2389,-2.1724,0.0,0.0,0.0,0.0,0.0,0.0,0.0,0.0,0.0,0.0,0.0,0.0,0.0,0.0,0.0,0.0,0.0,0.0,0.0,0.0,0.0,0.0,0.0,0.0,0.0,0.0,-4.048,-4.0594,-4.0707,-4.082,-4.2019,-4.2634,-4.2634,-4.2634,-4.2634,-4.2634,-4.2634,-4.2696,0.0,0.0,-4.3174,-4.3383,-4.3377,-4.3579,-4.3941,-4.375,-4.355,-4.3337,-4.3315,-4.2876,-4.2287,-4.2287,-4.2287,-4.2287,-4.2287,-4.2709,-4.3214,-4.3214,-4.3563,-4.4005,-4.4005,-4.4005,-4.4005,-4.4005,-4.4005,-4.4005,-4.4005,-4.4005,-4.4005,-4.4005,-4.4005,-4.4005,-4.4005,-4.4005,-4.4005,-4.4005,-4.4005,-4.4005,-4.4005,-4.4005,-4.4005,-4.4005,-4.4005,-4.4005,-4.4005,-4.4005,-4.4005,-4.4005,-4.4005,-4.4005,-4.4005,-4.4005,-4.4005,-4.4005,-4.4005,-4.4005,-4.4005,-4.4005,-4.4005,-4.4005,-4.4005,-4.4036,-4.4079,-4.4079,-4.4079,-1.8569,-2.0932,-2.2795,-2.1806,-2.3792,-2.5826,-2.5203,0.0,0.0,0.0,0.0,0.0,0.0,0.0,0.0,0.0,0.0,0.0,0.0,0.0,0.0,0.0,0.0,0.0,0.0,0.0,0.0,0.0,0.0,0.0,0.0,0.0,0.0,0.0,-3.9735,-3.9946,-3.9946,-4.0966,-4.1484,-4.1484,-4.1484,-4.1484,-4.1484,-4.1484,-4.1545,-4.1727,0.0,-4.2085,-4.2244,-4.2546,-4.2788,-4.2923,-4.3109,-4.3032,-4.2858,-4.2858,-4.2608,-4.2287,-4.2287,-4.2287,-4.2287,-4.2287,-4.2591,-4.2957,-4.316,-4.3461,-4.3828,-4.3974,-4.4005,-4.4005,-4.4005,-4.4005,-4.4005,-4.4005,-4.4005,-4.4005,-4.4005,-4.4005,-4.4005,-4.4005,-4.4005,-4.4005,-4.4005,-4.4005,-4.4005,-4.4005,-4.4005,-4.4005,-4.4005,-4.4005,-4.4005,-4.4005,-4.4005,-4.4005,-4.4005,-4.4005,-4.4005,-4.4005,-4.4005,-4.4005,-4.4005,-4.4005,-4.4005,-4.4005,-4.4005,-4.4005,-4.4005,-4.4005,-4.4005,-4.4005,-4.4005,-4.4005,-1.8129,-2.0029,-2.1966,-2.3235,0.0,-2.8175,-2.8443,0.0,0.0,0.0,0.0,0.0,0.0,0.0,0.0,0.0,0.0,0.0,0.0,0.0,0.0,0.0,0.0,0.0,0.0,0.0,0.0,0.0,0.0,0.0,0.0,0.0,0.0,0.0,-3.8942,-3.9233,-3.9233,-3.9735,-4.0156,-4.0496,-4.0496,-4.0496,-4.0496,-4.0496,-4.0615,-4.0792,-4.0925,-4.1157,-4.1465,-4.1923,-4.2108,-4.2098,-4.2419,-4.243,-4.2287,-4.2287,-4.2287,-4.2287,-4.2287,-4.2287,-4.2287,-4.2287,-4.2494,-4.275,-4.3087,-4.341,-4.3664,-4.3923,-4.4005,-4.4005,-4.4005,-4.4005,-4.4005,-4.4005,-4.4005,-4.4005,-4.4005,-4.4005,-4.4005,-4.4005,-4.4005,-4.4005,-4.4005,-4.4005,-4.4005,-4.4005,-4.4005,-4.4005,-4.4005,-4.4005,-4.4005,-4.4005,-4.4005,-4.4005,-4.4005,-4.4005,-4.4005,-4.4005,-4.4005,-4.4005,-4.4005,-4.4005,-4.4005,-4.4005,-4.4005,-4.4005,-4.4005,-4.4005,-4.4005,-4.4005,-4.4005,-4.4005,-1.9486,-2.1389,-2.3142,-2.5023,-2.5425,0.0,-2.8798,-2.9225,0.0,0.0,0.0,0.0,0.0,0.0,0.0,0.0,0.0,0.0,0.0,0.0,0.0,0.0,0.0,0.0,0.0,0.0,0.0,0.0,0.0,0.0,0.0,0.0,0.0,0.0,0.0,-3.8472,-3.8472,-3.8521,-3.9201,-4.0496,-4.0496,-4.0496,-4.0496,-4.0496,-4.0674,-4.0983,-4.0983,-4.1409,-4.2095,-4.1971,-4.2168,-4.2542,-4.2356,-4.2323,-4.2287,-4.2287,-4.2287,-4.2287,-4.2287,-4.2287,-4.2287,-4.2287,-4.2494,-4.275,-4.3087,-4.341,-4.3664,-4.3923,-4.4005,-4.4005,-4.4005,-4.4005,-4.4005,-4.4005,-4.4005,-4.4005,-4.4005,-4.4005,-4.4005,-4.4005,-4.4005,-4.4005,-4.4005,-4.4005,-4.4005,-4.4005,-4.4005,-4.4005,-4.4005,-4.4005,-4.4005,-4.4005,-4.4005,-4.4005,-4.4005,-4.4005,-4.4005,-4.4005,-4.4005,-4.4005,-4.4005,-4.4005,-4.4005,-4.4005,-4.4005,-4.4005,-4.4005,-4.4005,-4.4005,-4.4005,-4.4005,-4.4005,-1.8145,-2.0493,-2.268,-2.4498,-2.6469,0.0,0.0,0.0,0.0,0.0,0.0,0.0,0.0,0.0,0.0,0.0,0.0,0.0,0.0,0.0,0.0,0.0,0.0,0.0,0.0,0.0,0.0,0.0,0.0,0.0,0.0,0.0,0.0,0.0,0.0,-3.8391,-3.8391,-3.8391,-3.8667,-3.9185,-3.9185,-3.9185,-3.9185,-3.9185,-3.9357,-3.9624,-3.9624,-4.0088,-4.0832,-4.1094,-4.1499,-4.192,-4.221,-4.2287,-4.2287,-4.2287,-4.2287,-4.2287,-4.2287,-4.2287,-4.2287,-4.2287,-4.2351,-4.2534,-4.305,-4.3268,-4.3426,-4.3878,-4.4005,-4.4005,-4.4005,-4.4005,-4.4005,-4.4005,-4.4005,-4.4005,-4.4005,-4.4005,-4.4005,-4.4005,-4.4005,-4.4005,-4.4005,-4.4005,-4.4005,-4.4005,-4.4005,-4.4005,-4.4005,-4.4005,-4.4005,-4.4005,-4.4005,-4.4005,-4.4005,-4.4005,-4.4005,-4.4005,-4.4005,-4.4005,-4.4005,-4.4005,-4.4005,-4.4005,-4.4005,-4.4005,-4.4005,-4.4005,-4.4005,-4.4005,-4.4005,-4.4005,-1.7839,-2.0063,-2.2342,0.0,0.0,0.0,-3.2505,0.0,0.0,0.0,0.0,0.0,0.0,0.0,0.0,0.0,0.0,0.0,0.0,0.0,0.0,0.0,0.0,0.0,0.0,0.0,0.0,0.0,0.0,0.0,0.0,0.0,0.0,0.0,0.0,0.0,-3.8391,-3.8391,-3.8391,-3.8391,-3.8391,-3.8391,-3.8391,-3.8448,-3.86,-3.8805,-3.899,-3.9542,-4.0302,-4.0784,-4.1311,-4.1813,-4.2145,-4.2287,-4.2287,-4.2287,-4.2287,-4.2287,-4.2287,-4.2287,-4.2287,-4.2287,-4.2287,-4.2391,-4.3013,-4.3214,-4.3304,-4.3828,-4.4005,-4.4005,-4.4005,-4.4005,-4.4005,-4.4005,-4.4005,-4.4005,-4.4005,-4.4005,-4.4005,-4.4005,-4.4005,-4.4005,-4.4005,-4.4005,-4.4005,-4.4005,-4.4005,-4.4005,-4.4005,-4.4005,-4.4005,-4.4005,-4.4005,-4.4005,-4.4005,-4.4005,-4.4005,-4.4005,-4.4005,-4.4005,-4.4005,-4.4005,-4.4005,-4.4005,-4.4005,-4.4005,-4.4005,-4.4005,-4.4005,-4.4005,-4.4005,-4.4005,-1.9124,-2.0549,0.0,0.0,0.0,0.0,0.0,0.0,0.0,0.0,0.0,0.0,0.0,0.0,0.0,0.0,0.0,0.0,0.0,0.0,0.0,0.0,0.0,0.0,0.0,0.0,0.0,0.0,0.0,0.0,0.0,0.0,0.0,0.0,0.0,0.0,-3.8408,-3.8391,-3.8391,-3.8391,-3.8391,-3.8391,-3.8391,-3.856,-3.8655,-3.886,-3.9489,-4.0186,-4.0849,-4.1293,-4.1813,-4.2287,-4.2287,-4.2287,-4.2287,-4.2287,-4.2287,-4.2287,-4.2287,-4.2287,-4.2287,-4.2287,-4.2287,-4.2409,-4.3013,-4.3214,-4.3304,-4.3846,-4.4005,-4.4005,-4.4005,-4.4005,-4.4005,-4.4005,-4.4005,-4.4005,-4.4005,-4.4005,-4.4005,-4.4005,-4.4005,-4.4005,-4.4005,-4.4005,-4.4005,-4.4005,-4.4005,-4.4005,-4.4005,-4.4005,-4.4005,-4.4005,-4.4005,-4.4005,-4.4005,-4.4005,-4.4005,-4.4005,-4.4005,-4.4005,-4.4005,-4.4005,-4.4005,-4.4005,-4.4005,-4.4005,-4.4005,-4.4005,-4.4005,-4.4005,-4.4005,-4.4005,-1.9154,0.0,0.0,0.0,0.0,0.0,0.0,0.0,0.0,0.0,0.0,0.0,0.0,0.0,0.0,0.0,0.0,0.0,0.0,0.0,0.0,0.0,0.0,0.0,0.0,0.0,0.0,0.0,0.0,0.0,0.0,0.0,0.0,0.0,0.0,0.0,-3.8576,-3.856,-3.8504,-3.8391,-3.852,-3.8504,-3.8391,-3.856,-3.8655,-3.886,-3.9489,-4.0186,-4.0849,-4.1727,-4.2145,-4.2287,-4.2287,-4.2287,-4.2287,-4.2287,-4.2287,-4.2287,-4.2287,-4.2287,-4.2287,-4.2287,-4.2287,-4.2369,-4.2729,-4.2995,-4.3268,-4.3631,-4.386,-4.4005,-4.4005,-4.4005,-4.4005,-4.4005,-4.4005,-4.4005,-4.4005,-4.4005,-4.4005,-4.4005,-4.4005,-4.4005,-4.4005,-4.4005,-4.4005,-4.4005,-4.4005,-4.4005,-4.4005,-4.4005,-4.4005,-4.4005,-4.4005,-4.4005,-4.4005,-4.4005,-4.4005,-4.4005,-4.4005,-4.4005,-4.4005,-4.4005,-4.4005,-4.4005,-4.4005,-4.4005,-4.4005,-4.4005,-4.4005,-4.4005,-4.4005,-4.4005,-2.037,0.0,0.0,0.0,0.0,0.0,0.0,0.0,0.0,0.0,0.0,0.0,0.0,0.0,0.0,0.0,0.0,0.0,0.0,0.0,0.0,0.0,0.0,0.0,0.0,0.0,0.0,0.0,0.0,0.0,0.0,0.0,0.0,0.0,0.0,0.0,-3.9023,-3.8821,-3.8616,-3.8448,-3.8616,-3.8616,-3.8504,-3.8616,-3.886,-3.9152,-4.0069,-4.0814,-4.1445,-4.2044,-4.2287,-4.2287,-4.2287,-4.2287,-4.2287,-4.2287,-4.2287,-4.2287,-4.2287,-4.2287,-4.2287,-4.2287,-4.2287,-4.2351,-4.2768,-4.3032,-4.3268,-4.3664,-4.386,-4.4005,-4.4005,-4.4005,-4.4005,-4.4005,-4.4005,-4.4005,-4.4005,-4.4005,-4.4005,-4.4005,-4.4005,-4.4005,-4.4005,-4.4005,-4.4005,-4.4005,-4.4005,-4.4005,-4.4005,-4.4005,-4.4005,-4.4005,-4.4005,-4.4005,-4.4005,-4.4005,-4.4005,-4.4005,-4.4005,-4.4005,-4.4005,-4.4005,-4.4005,-4.4005,-4.4005,-4.4005,-4.4005,-4.4005,-4.4005,-4.4005,-4.4005,-4.4005,0.0,0.0,0.0,0.0,0.0,0.0,0.0,0.0,0.0,0.0,0.0,0.0,0.0,0.0,0.0,0.0,0.0,0.0,0.0,0.0,0.0,0.0,0.0,0.0,0.0,0.0,0.0,0.0,0.0,0.0,0.0,0.0,0.0,0.0,0.0,0.0,-3.9594,-3.9098,-3.875,0.0,-3.875,-3.8766,-3.8616,-3.8766,-3.9152,-3.98,-4.1001,-4.1813,-4.2287,-4.2287,-4.2287,-4.2287,-4.2287,-4.2287,-4.2287,-4.2287,-4.2287,-4.2287,-4.2287,-4.2287,-4.2287,-4.2328,-4.2328,-4.2432,-4.3013,-4.3214,-4.3339,-4.3828,-4.3974,-4.4005,-4.4005,-4.4005,-4.4005,-4.4005,-4.4005,-4.4005,-4.4005,-4.4005,-4.4005,-4.4005,-4.4005,-4.4005,-4.4005,-4.4005,-4.4005,-4.4005,-4.4005,-4.4005,-4.4005,-4.4005,-4.4005,-4.4005,-4.4005,-4.4005,-4.4005,-4.4005,-4.4005,-4.4005,-4.4005,-4.4005,-4.4005,-4.4005,-4.4005,-4.4005,-4.4005,-4.4005,-4.4005,-4.4005,-4.4005,-4.4005,-4.4005,-4.4005,0.0,-2.4844,0.0,0.0,0.0,0.0,0.0,0.0,0.0,0.0,0.0,0.0,0.0,0.0,0.0,0.0,0.0,0.0,0.0,0.0,0.0,0.0,0.0,0.0,0.0,0.0,0.0,0.0,0.0,0.0,0.0,0.0,0.0,0.0,0.0,-4.0285,-3.9732,-3.9206,-3.8914,0.0,-3.8914,-3.886,-3.875,-3.8914,-3.9523,-4.0594,-4.1202,-4.1813,-4.2287,-4.2287,-4.2287,-4.2287,-4.2287,-4.2287,-4.2287,-4.2287,-4.2287,-4.2287,-4.2287,-4.2287,-4.231,-4.2534,-4.2595,-4.2691,-4.3087,-4.3339,-4.3529,-4.3664,-4.3828,-4.4005,-4.4005,-4.4005,-4.4005,-4.4005,-4.4005,-4.4005,-4.4005,-4.4005,-4.4005,-4.4005,-4.4005,-4.4005,-4.4005,-4.4005,-4.4005,-4.4005,-4.4005,-4.4005,-4.4005,-4.4005,-4.4005,-4.4005,-4.4005,-4.4005,-4.4005,-4.4005,-4.4005,-4.4005,-4.4005,-4.4005,-4.4005,-4.4005,-4.4005,-4.4005,-4.4005,-4.4005,-4.4005,-4.4005,-4.4005,-4.4005,-4.4005,-4.4005,0.0,0.0,0.0,0.0,0.0,0.0,0.0,0.0,0.0,0.0,0.0,0.0,0.0,0.0,0.0,0.0,0.0,0.0,0.0,0.0,0.0,0.0,0.0,0.0,0.0,0.0,0.0,0.0,0.0,0.0,0.0,0.0,0.0,0.0,-4.1338,-4.0908,-4.0607,-3.9851,-3.9401,-3.9295,-3.9185,-3.9222,-3.9401,-3.9662,-4.0285,-4.1157,-4.1683,-4.2044,-4.2287,-4.2287,-4.2287,-4.2287,-4.2287,-4.2287,-4.2287,-4.2287,-4.2287,-4.2287,-4.2287,-4.2287,-4.2328,-4.2454,-4.2613,-4.275,-4.3087,-4.341,-4.3631,-4.3763,-4.3892,-4.4005,-4.4005,-4.4005,-4.4005,-4.4005,-4.4005,-4.4005,-4.4005,-4.4005,-4.4005,-4.4005,-4.4005,-4.4005,-4.4005,-4.4005,-4.4005,-4.4005,-4.4005,-4.4005,-4.4005,-4.4005,-4.4005,-4.4005,-4.4005,-4.4005,-4.4005,-4.4005,-4.4005,-4.4005,-4.4005,-4.4005,-4.4005,-4.4005,-4.4005,-4.4005,-4.4005,-4.4005,-4.4005,-4.4005,-4.4005,-4.4005,-4.4005,-4.4005,0.0,0.0,0.0,0.0,0.0,0.0,0.0,0.0,0.0,0.0,0.0,0.0,0.0,0.0,0.0,0.0,0.0,0.0,0.0,0.0,0.0,0.0,0.0,0.0,0.0,0.0,0.0,0.0,0.0,0.0,0.0,0.0,-4.2287,-4.2287,-4.177,-4.1472,-4.1472,-4.0528,-3.9935,-3.9834,-3.954,-3.9696,-4.0153,-4.0577,-4.1001,-4.1516,-4.2061,-4.2287,-4.2287,-4.2287,-4.2287,-4.2287,-4.2287,-4.2287,-4.2287,-4.2287,-4.2287,-4.2287,-4.2287,-4.2287,-4.2328,-4.2351,-4.2534,-4.2788,-4.3142,-4.3426,-4.3664,-4.3923,-4.4005,-4.4005,-4.4005,-4.4005,-4.4005,-4.4005,-4.4005,-4.4005,-4.4005,-4.4005,-4.4005,-4.4005,-4.4005,-4.4005,-4.4005,-4.4005,-4.4005,-4.4005,-4.4005,-4.4005,-4.4005,-4.4005,-4.4005,-4.4005,-4.4005,-4.4005,-4.4005,-4.4005,-4.4005,-4.4005,-4.4005,-4.4005,-4.4005,-4.4005,-4.4005,-4.4005,-4.4005,-4.4005,-4.4005,-4.4005,-4.4005,-4.4005,-4.4005,-4.4005,0.0,0.0,0.0,0.0,0.0,0.0,0.0,0.0,0.0,0.0,0.0,0.0,0.0,0.0,0.0,0.0,0.0,0.0,0.0,0.0,0.0,0.0,0.0,0.0,0.0,0.0,0.0,0.0,0.0,0.0,0.0,-4.2287,-4.2287,-4.2287,-4.177,-4.1472,-4.1472,-4.0528,-4.0003,-3.9952,-3.9902,-4.0153,-4.0707,-4.1157,-4.1428,-4.1516,-4.2061,-4.2287,-4.2287,-4.2287,-4.2287,-4.2287,-4.2287,-4.2287,-4.2287,-4.2287,-4.2287,-4.2287,-4.2287,-4.2287,-4.2328,-4.2555,-4.2673,-4.2826,-4.3373,-4.3563,-4.3664,-4.3923,-4.4005,-4.4005,-4.4005,-4.4005,-4.4005,-4.4005,-4.4005,-4.4005,-4.4005,-4.4005,-4.4005,-4.4005,-4.4005,-4.4005,-4.4005,-4.4005,-4.4005,-4.4005,-4.4005,-4.4005,-4.4005,-4.4005,-4.4005,-4.4005,-4.4005,-4.4005,-4.4005,-4.4005,-4.4005,-4.4005,-4.4005,-4.4005,-4.4005,-4.4005,-4.4005,-4.4005,-4.4005,-4.4005,-4.4005,-4.4005,-4.4005,-4.4005,-4.4005,-4.4005,-1.913,0.0,0.0,0.0,0.0,0.0,0.0,0.0,0.0,0.0,0.0,0.0,0.0,0.0,0.0,0.0,0.0,0.0,0.0,0.0,0.0,0.0,0.0,0.0,0.0,0.0,0.0,0.0,0.0,0.0,-4.2287,-4.2287,-4.2287,-4.2287,-4.2044,-4.1813,-4.1516,-4.0784,-4.017,-3.9592,-3.9868,-4.0302,-4.0802,-4.1311,-4.1666,-4.1959,-4.2187,-4.2287,-4.2287,-4.2287,-4.2287,-4.2287,-4.2287,-4.2287,-4.2287,-4.2287,-4.2287,-4.2287,-4.2287,-4.2287,-4.2328,-4.2432,-4.2573,-4.2732,-4.3032,-4.3232,-4.3426,-4.3697,-4.3763,-4.3795,-4.3974,-4.4005,-4.4005,-4.4005,-4.4005,-4.4005,-4.4005,-4.4005,-4.4005,-4.4005,-4.4005,-4.4005,-4.4005,-4.4005,-4.4005,-4.4005,-4.4005,-4.4005,-4.4005,-4.4005,-4.4005,-4.4005,-4.4005,-4.4005,-4.4005,-4.4005,-4.4005,-4.4005,-4.4005,-4.4005,-4.4005,-4.4005,-4.4005,-4.4005,-4.4005,-4.4005,-4.4005,-4.4005,-4.4005,-4.4005,-4.4005,-4.4005,0.0,0.0,-2.5029,0.0,0.0,0.0,0.0,0.0,0.0,0.0,0.0,0.0,0.0,0.0,0.0,0.0,0.0,0.0,0.0,0.0,0.0,0.0,0.0,0.0,0.0,0.0,0.0,0.0,0.0,0.0,-4.1966,-4.1984,-4.2073,-4.2287,-4.2187,-4.1899,-4.1516,-4.0879,-4.022,-3.9504,-3.9969,-4.0497,-4.0972,-4.149,-4.1899,-4.2287,-4.2287,-4.2287,-4.2287,-4.2287,-4.2287,-4.2287,-4.2287,-4.2287,-4.2287,-4.2287,-4.2287,-4.2287,-4.2287,-4.2287,-4.2287,-4.2287,-4.2432,-4.2595,-4.2673,-4.2864,-4.3105,-4.3426,-4.3495,-4.3529,-4.373,-4.3828,-4.386,-4.3795,-4.391,-4.4005,-4.4005,-4.4005,-4.4005,-4.4005,-4.4005,-4.4005,-4.4005,-4.4005,-4.4005,-4.4005,-4.4005,-4.4005,-4.4005,-4.4005,-4.4005,-4.4005,-4.4005,-4.4005,-4.4005,-4.4005,-4.4005,-4.4005,-4.4005,-4.4005,-4.4005,-4.4005,-4.4005,-4.4005,-4.4005,-4.4005,-4.4005,-4.4005,-4.4005,-4.4005,-4.4005,-4.4005,0.0,-1.9056,0.0,-2.4726,0.0,0.0,0.0,0.0,0.0,0.0,0.0,0.0,0.0,0.0,0.0,0.0,0.0,0.0,0.0,0.0,0.0,0.0,0.0,0.0,0.0,0.0,0.0,0.0,0.0,0.0,-4.1127,-4.1163,-4.1502,-4.2269,-4.1813,-4.1534,-4.1472,-4.0528,-4.0003,-3.9952,-4.0497,-4.1036,-4.1472,-4.2002,-4.2287,-4.2287,-4.2287,-4.2287,-4.2287,-4.2287,-4.2287,-4.2287,-4.2287,-4.2287,-4.2287,-4.2287,-4.2287,-4.2287,-4.2287,-4.2287,-4.2287,-4.2287,-4.2328,-4.2351,-4.2634,-4.2711,-4.2788,-4.3123,-4.3196,-4.3232,-4.3232,-4.3426,-4.3563,-4.3304,-4.3631,-4.4005,-4.4005,-4.4005,-4.4005,-4.4005,-4.4005,-4.4005,-4.4005,-4.4005,-4.4005,-4.4005,-4.4005,-4.4005,-4.4005,-4.4005,-4.4005,-4.4005,-4.4005,-4.4005,-4.4005,-4.4005,-4.4005,-4.4005,-4.4005,-4.4005,-4.4005,-4.4005,-4.4005,-4.4005,-4.4005,-4.4005,-4.4005,-4.4005,-4.4005,-4.4005,-4.4005,-4.4005,0.0,0.0,0.0,-2.2646,0.0,0.0,0.0,0.0,0.0,0.0,0.0,0.0,0.0,0.0,0.0,0.0,0.0,0.0,0.0,0.0,0.0,0.0,0.0,0.0,0.0,0.0,0.0,0.0,0.0,0.0,-4.0324,-4.0342,-4.0699,-4.1502,-4.1071,-4.0697,-4.0528,-3.9868,-3.9679,-4.0003,-4.0546,-4.1036,-4.1534,-4.2061,-4.2287,-4.2287,-4.2287,-4.2287,-4.2287,-4.2287,-4.2287,-4.2287,-4.2287,-4.2287,-4.2287,-4.2287,-4.2287,-4.2287,-4.2287,-4.2287,-4.2287,-4.2287,-4.2287,-4.2328,-4.2432,-4.2432,-4.2494,-4.2806,-4.2882,-4.292,-4.316,-4.3268,-4.3339,-4.3232,-4.325,-4.3338,-4.3461,-4.3479,-4.3479,-4.3479,-4.3479,-4.3479,-4.3479,-4.3479,-4.3479,-4.3479,-4.3631,-4.373,-4.373,-4.3892,-4.4005,-4.4005,-4.4005,-4.4005,-4.4005,-4.4005,-4.4005,-4.4005,-4.4005,-4.4005,-4.4005,-4.4005,-4.4005,-4.4005,-4.4005,-4.4005,-4.4005,-4.4005,-4.4005,-4.4005,-4.4005,-4.4005,-1.3785,0.0,0.0,0.0,0.0,0.0,0.0,0.0,0.0,0.0,0.0,0.0,0.0,0.0,0.0,0.0,0.0,0.0,0.0,0.0,0.0,0.0,0.0,0.0,0.0,0.0,0.0,0.0,0.0,0.0,-3.9521,-3.9539,-3.9722,-4.0223,-4.0019,-3.9748,-3.9412,-3.9335,-3.9556,-4.0003,-4.0351,-4.0879,-4.1516,-4.1856,-4.2145,-4.2287,-4.2287,-4.2287,-4.2287,-4.2287,-4.2287,-4.2287,-4.2287,-4.2287,-4.2287,-4.2287,-4.2287,-4.2287,-4.2287,-4.2287,-4.2287,-4.2287,-4.2287,-4.2287,-4.2287,-4.2287,-4.2328,-4.2534,-4.2573,-4.2613,-4.2862,-4.29,-4.2938,-4.316,-4.2938,-4.2768,-4.2995,-4.3123,-4.3214,-4.3214,-4.3214,-4.3214,-4.3214,-4.3214,-4.3214,-4.3214,-4.3375,-4.3495,-4.3597,-4.3763,-4.3892,-4.4005,-4.4005,-4.4005,-4.4005,-4.4005,-4.4005,-4.4005,-4.4005,-4.4005,-4.4005,-4.4005,-4.4005,-4.4005,-4.4005,-4.4005,-4.4005,-4.4005,-4.4005,-4.4005,-4.4005,-4.4005,0.0,0.0,0.0,0.0,0.0,0.0,0.0,0.0,0.0,0.0,0.0,0.0,0.0,0.0,0.0,0.0,0.0,0.0,0.0,0.0,0.0,0.0,0.0,0.0,0.0,0.0,0.0,0.0,0.0,-3.7933,-3.8736,-3.8752,-3.8664,-3.8456,-3.8751,-3.8639,-3.8179,-3.8891,-3.9523,-3.9969,-3.9986,-4.0528,-4.1472,-4.1472,-4.1813,-4.2287,-4.2287,-4.2287,-4.2287,-4.2287,-4.2287,-4.2287,-4.2287,-4.2287,-4.2287,-4.2287,-4.2287,-4.2287,-4.2287,-4.2287,-4.2287,-4.2287,-4.2287,-4.2287,-4.2287,-4.2287,-4.2287,-4.2287,-4.2287,-4.2287,-4.2287,-4.2287,-4.245,-4.3013,-4.2709,-4.2351,-4.2634,-4.2957,-4.316,-4.316,-4.316,-4.316,-4.316,-4.316,-4.316,-4.316,-4.316,-4.3268,-4.3545,-4.3579,-4.3697,-4.3974,-4.4005,-4.4005,-4.4005,-4.4005,-4.4005,-4.4005,-4.4005,-4.4005,-4.4005,-4.4005,-4.4005,-4.4005,-4.4005,-4.4005,-4.4005,-4.4005,-4.4005,-4.4005,-4.4005,-4.4005,-1.344,0.0,0.0,0.0,0.0,0.0,0.0,0.0,0.0,0.0,0.0,0.0,0.0,0.0,0.0,0.0,0.0,0.0,0.0,0.0,0.0,0.0,0.0,0.0,0.0,0.0,0.0,0.0,-3.7649,-3.7684,-3.7916,-3.8167,-3.8082,-3.7637,-3.795,-3.7866,-3.7417,-3.8146,-3.872,-3.9191,-3.9749,-4.0528,-4.1472,-4.1472,-4.1813,-4.2287,-4.2287,-4.2287,-4.2287,-4.2287,-4.2287,-4.2287,-4.2287,-4.2287,-4.2287,-4.2287,-4.2287,-4.2287,-4.2287,-4.2287,-4.2287,-4.2287,-4.2287,-4.2287,-4.2287,-4.2287,-4.2287,-4.2287,-4.2287,-4.2287,-4.2287,-4.2287,-4.2328,-4.2512,-4.2391,-4.2328,-4.2391,-4.2472,-4.2552,-4.2552,-4.2552,-4.2552,-4.2552,-4.2552,-4.2552,-4.2552,-4.2729,-4.2864,-4.2921,-4.3178,-4.3391,-4.3697,-4.373,-4.3795,-4.3974,-4.4005,-4.4005,-4.4005,-4.4005,-4.4005,-4.4005,-4.4005,-4.4005,-4.4005,-4.4005,-4.4005,-4.4005,-4.4005,-4.4005,-4.4005,-4.4005,-4.4067,-1.5282,0.0,0.0,0.0,0.0,0.0,0.0,0.0,0.0,0.0,0.0,0.0,0.0,0.0,0.0,0.0,0.0,0.0,0.0,0.0,0.0,0.0,0.0,0.0,0.0,0.0,0.0,0.0,-3.7095,-3.7147,-3.7301,-3.7299,-3.7074,-3.66,-3.6895,-3.6933,-3.6638,-3.7384,-3.7868,-3.817,-3.8874,-3.9793,-4.0777,-4.1063,-4.1622,-4.2287,-4.2287,-4.2287,-4.2287,-4.2287,-4.2287,-4.2287,-4.2287,-4.2287,-4.2287,-4.2287,-4.2287,-4.2287,-4.2287,-4.2287,-4.2287,-4.2287,-4.2287,-4.2287,-4.2287,-4.2287,-4.2287,-4.2287,-4.2287,-4.2287,-4.2287,-4.2287,-4.2287,-4.2287,-4.2287,-4.2287,-4.2287,-4.2287,-4.2287,-4.2287,-4.2287,-4.2287,-4.2287,-4.2287,-4.2287,-4.2287,-4.2432,-4.2555,-4.2673,-4.2864,-4.3105,-4.3391,-4.3529,-4.3631,-4.3664,-4.3763,-4.3828,-4.3828,-4.3828,-4.3892,-4.4005,-4.4005,-4.4005,-4.4005,-4.4005,-4.4005,-4.4005,-4.4005,-4.4005,-4.4005,-4.4005,-4.4067,-1.7521,-1.8278,0.0,0.0,0.0,0.0,-2.2836,-2.3367,0.0,0.0,0.0,0.0,0.0,0.0,0.0,0.0,0.0,0.0,0.0,0.0,0.0,0.0,0.0,0.0,0.0,0.0,-3.5418,-3.6203,-3.631,-3.645,-3.6742,-3.6347,-3.5977,-3.5616,-3.5799,-3.5876,-3.5876,-3.6622,-3.6986,-3.7003,-3.7748,-3.8589,-3.9497,-4.0272,-4.108,-4.2021,-4.2151,-4.2187,-4.2246,-4.2287,-4.2287,-4.2287,-4.2287,-4.2287,-4.2287,-4.2287,-4.2287,-4.2287,-4.2287,-4.2287,-4.2287,-4.2287,-4.2287,-4.2287,-4.2287,-4.2287,-4.2287,-4.2287,-4.2287,-4.2287,-4.2287,-4.2287,-4.2287,-4.2287,-4.2287,-4.2287,-4.2287,-4.2287,-4.2287,-4.2287,-4.2287,-4.2287,-4.2287,-4.2287,-4.2287,-4.2287,-4.2287,-4.2391,-4.2634,-4.2673,-4.2788,-4.3123,-4.3356,-4.3426,-4.3214,-4.3426,-4.3563,-4.3563,-4.3579,-4.3697,-4.3942,-4.3986,-4.4005,-4.4005,-4.4005,-4.4005,-4.4005,-4.4005,-4.4005,-4.4005,-4.4005,-4.4005,-1.9518,-2.0339,-2.1311,-2.0452,0.0,0.0,0.0,-2.1225,0.0,0.0,0.0,0.0,0.0,0.0,0.0,0.0,0.0,0.0,0.0,0.0,0.0,0.0,0.0,0.0,0.0,0.0,-3.4633,-3.5382,-3.5667,-3.5849,-3.5913,-3.5778,-3.5705,-3.5616,-3.5282,-3.5114,-3.5114,-3.5843,-3.6224,-3.6224,-3.697,-3.7619,-3.818,-3.8945,-3.962,-4.0269,-4.1209,-4.1666,-4.1709,-4.2145,-4.2287,-4.2287,-4.2287,-4.2287,-4.2287,-4.2287,-4.2287,-4.2287,-4.2287,-4.2287,-4.2287,-4.2287,-4.2287,-4.2287,-4.2287,-4.2287,-4.2287,-4.2287,-4.2287,-4.2287,-4.2287,-4.2287,-4.2287,-4.2287,-4.2287,-4.2287,-4.2287,-4.2287,-4.2287,-4.2287,-4.2287,-4.2287,-4.2287,-4.2287,-4.2287,-4.2287,-4.2287,-4.2328,-4.2351,-4.2391,-4.2512,-4.275,-4.2846,-4.2976,-4.316,-4.3232,-4.3268,-4.3268,-4.3495,-4.3612,-4.3697,-4.391,-4.4005,-4.4005,-4.4005,-4.4005,-4.4005,-4.4005,-4.4005,-4.4005,-4.4005,-4.4085,0.0,0.0,-2.2615,-2.2248,0.0,0.0,0.0,0.0,0.0,0.0,0.0,0.0,0.0,0.0,0.0,0.0,0.0,0.0,0.0,0.0,0.0,0.0,0.0,0.0,0.0,0.0,-3.3648,-3.4033,-3.4782,-3.5104,-3.4874,-3.4993,-3.4941,-3.4734,-3.4825,-3.4899,-3.4899,-3.5263,-3.5446,-3.5462,-3.6208,-3.6818,-3.7326,-3.8038,-3.8849,-3.9772,-4.0604,-4.1165,-4.1516,-4.2086,-4.2287,-4.2287,-4.2287,-4.2287,-4.2287,-4.2287,-4.2287,-4.2287,-4.2287,-4.2287,-4.2287,-4.2287,-4.2287,-4.2287,-4.2287,-4.2287,-4.2287,-4.2287,-4.2287,-4.2287,-4.2287,-4.2287,-4.2287,-4.2287,-4.2287,-4.2287,-4.2287,-4.2287,-4.2287,-4.2287,-4.2287,-4.2287,-4.2287,-4.2287,-4.2287,-4.2287,-4.2287,-4.2287,-4.2287,-4.2287,-4.2351,-4.2494,-4.2634,-4.2711,-4.2747,-4.2882,-4.2957,-4.2957,-4.3087,-4.3232,-4.3391,-4.3664,-4.386,-4.4005,-4.4005,-4.4005,-4.4005,-4.4005,-4.4005,-4.4005,-4.4005,-4.4036,0.0,0.0,0.0,0.0,0.0,-2.4514,0.0,0.0,0.0,-2.5158,0.0,0.0,0.0,0.0,0.0,0.0,0.0,0.0,0.0,0.0,0.0,0.0,0.0,0.0,0.0,0.0,-3.201,-3.2305,-3.3108,-3.3532,-3.3441,-3.4041,-3.4181,-3.3789,-3.4518,-3.4899,-3.4899,-3.4899,-3.4899,-3.4899,-3.5495,-3.6019,-3.646,-3.7135,-3.8031,-3.9003,-3.978,-4.0428,-4.1066,-4.1743,-4.2002,-4.2044,-4.2228,-4.2246,-4.2145,-4.2145,-4.2145,-4.2145,-4.2044,-4.2145,-4.2287,-4.2187,-4.2246,-4.2287,-4.2287,-4.2287,-4.2287,-4.2287,-4.2287,-4.2287,-4.2287,-4.2287,-4.2287,-4.2287,-4.2287,-4.2287,-4.2287,-4.2287,-4.2287,-4.2287,-4.2287,-4.2287,-4.2287,-4.2287,-4.2287,-4.2287,-4.2287,-4.2287,-4.2287,-4.2287,-4.2287,-4.2287,-4.2494,-4.2534,-4.2328,-4.2494,-4.2634,-4.2634,-4.2673,-4.2826,-4.3087,-4.3391,-4.3631,-4.3828,-4.391,-4.3923,-4.3923,-4.3955,-4.4005,-4.4005,-4.4005,-4.4005,0.0,0.0,0.0,0.0,-2.732,0.0,0.0,0.0,-2.3938,-2.2657,0.0,0.0,0.0,0.0,0.0,0.0,0.0,0.0,0.0,0.0,0.0,0.0,0.0,0.0,0.0,0.0,0.0,-3.024,-2.9851,-3.0105,-3.137,-3.2971,-3.3835,-3.3789,-3.4518,-3.4899,-3.4899,-3.4899,-3.4899,-3.4899,-3.4982,-3.5063,-3.5143,-3.5874,-3.6305,-3.6536,-3.8311,-3.9115,-3.9299,-4.0461,-4.099,-4.1082,-4.1959,-4.2002,-4.1578,-4.1578,-4.1578,-4.1534,-4.1111,-4.1534,-4.2228,-4.177,-4.1899,-4.2287,-4.2287,-4.2287,-4.2287,-4.2287,-4.2287,-4.2287,-4.2287,-4.2287,-4.2287,-4.2287,-4.2287,-4.2287,-4.2287,-4.2287,-4.2287,-4.2287,-4.2287,-4.2287,-4.2287,-4.2287,-4.2287,-4.2287,-4.2287,-4.2287,-4.2287,-4.2287,-4.2287,-4.2287,-4.2328,-4.2328,-4.2287,-4.2328,-4.2369,-4.2369,-4.2573,-4.2711,-4.275,-4.3069,-4.3268,-4.3304,-4.3529,-4.3664,-4.3664,-4.3892,-4.4005,-4.4005,-4.4005,-4.4005,0.0,0.0,0.0,0.0,0.0,0.0,0.0,0.0,-2.4334,0.0,0.0,0.0,0.0,0.0,0.0,0.0,0.0,0.0,0.0,0.0,0.0,0.0,0.0,0.0,0.0,0.0,0.0,0.0,0.0,-2.8318,-2.9736,-3.1116,-3.2282,-3.3127,-3.3872,-3.4468,-3.4899,-3.4899,-3.4899,-3.4899,-3.4899,-3.4899,-3.4916,-3.5214,-3.5595,-3.6074,-3.7175,-3.8156,-3.8952,-3.9804,-4.0388,-4.0849,-4.1265,-4.1311,-4.1065,-4.1065,-4.1065,-4.1082,-4.0849,-4.1082,-4.1401,-4.1174,-4.1265,-4.1445,-4.1445,-4.1622,-4.1856,-4.1856,-4.2044,-4.2287,-4.2287,-4.2287,-4.2287,-4.2287,-4.2287,-4.2287,-4.2287,-4.2287,-4.2287,-4.2287,-4.2287,-4.2287,-4.2287,-4.2287,-4.2287,-4.2287,-4.2287,-4.2287,-4.2287,-4.2287,-4.2287,-4.2287,-4.2287,-4.2287,-4.2287,-4.2287,-4.2287,-4.2287,-4.2391,-4.2534,-4.2711,-4.2826,-4.2995,-4.3214,-4.3304,-4.3426,-4.3579,-4.373,-4.386,-4.4005,-4.4005,-4.4005,-2.7211,0.0,0.0,0.0,0.0,0.0,0.0,0.0,0.0,0.0,0.0,0.0,0.0,0.0,0.0,0.0,0.0,0.0,0.0,0.0,0.0,0.0,0.0,0.0,0.0,0.0,0.0,0.0,0.0,0.0,-2.8073,-2.9459,-3.0791,-3.205,-3.3193,-3.4054,-3.4584,-3.48,-3.4899,-3.4899,-3.4899,-3.4899,-3.4899,-3.4899,-3.5197,-3.5711,-3.6326,-3.7141,-3.8183,-3.8976,-3.9614,-4.0095,-4.03,-4.0368,-4.0417,-4.0514,-4.0594,-4.0546,-4.0417,-4.0466,-4.0594,-4.0754,-4.0802,-4.0802,-4.0802,-4.1036,-4.1338,-4.1472,-4.177,-4.2103,-4.2287,-4.2287,-4.2287,-4.2287,-4.2287,-4.2287,-4.2287,-4.2287,-4.2287,-4.2287,-4.2287,-4.2287,-4.2287,-4.2287,-4.2287,-4.2287,-4.2287,-4.2287,-4.2287,-4.2287,-4.2287,-4.2287,-4.2287,-4.2287,-4.2287,-4.2287,-4.2287,-4.2287,-4.2287,-4.2391,-4.2555,-4.2595,-4.2691,-4.2938,-4.305,-4.3178,-4.3355,-4.3461,-4.3631,-4.3892,-4.3974,-4.4005,0.0,0.0,0.0,-2.7524,0.0,0.0,0.0,0.0,-2.5719,0.0,0.0,0.0,0.0,0.0,0.0,-2.1335,0.0,0.0,0.0,0.0,0.0,0.0,0.0,0.0,0.0,0.0,0.0,0.0,0.0,0.0,-2.612,-2.829,-2.9798,-3.0576,-3.268,-3.3806,-3.3822,-3.4535,-3.4899,-3.4899,-3.4899,-3.4899,-3.4899,-3.4899,-3.4916,-3.4982,-3.5694,-3.6074,-3.6224,-3.7667,-3.828,-3.8363,-3.906,-3.9325,-3.9415,-3.9868,-4.0003,-3.9969,-3.952,-3.9644,-4.0103,-4.0659,-4.0802,-4.0802,-4.0802,-4.0802,-4.0943,-4.1383,-4.1516,-4.1666,-4.2187,-4.2287,-4.2287,-4.2287,-4.2287,-4.2287,-4.2287,-4.2287,-4.2287,-4.2287,-4.2287,-4.2287,-4.2287,-4.2287,-4.2287,-4.2287,-4.2287,-4.2287,-4.2287,-4.2287,-4.2287,-4.2287,-4.2287,-4.2287,-4.2287,-4.2287,-4.2287,-4.2287,-4.2287,-4.2287,-4.2328,-4.2328,-4.2328,-4.2328,-4.2555,-4.2711,-4.2732,-4.3032,-4.3375,-4.3631,-4.386,-4.4005,0.0,0.0,-3.1273,-2.8651,0.0,0.0,0.0,0.0,0.0,0.0,0.0,0.0,0.0,0.0,-2.2321,-2.1971,-2.1057,0.0,0.0,0.0,0.0,0.0,0.0,0.0,0.0,0.0,0.0,0.0,0.0,0.0,0.0,-2.7081,-2.8771,-3.0477,-3.2166,-3.3292,-3.3789,-3.4535,-3.4899,-3.4899,-3.4899,-3.4899,-3.4899,-3.4899,-3.4899,-3.4916,-3.5164,-3.5545,-3.6042,-3.6539,-3.7334,-3.8228,-3.8477,-3.8858,-3.9325,-3.9451,-3.9556,-3.9504,-3.9379,-3.9415,-3.9556,-3.9747,-3.9799,-3.9799,-3.9799,-4.002,-4.0302,-4.048,-4.0767,-4.1082,-4.1265,-4.1534,-4.177,-4.177,-4.2044,-4.2287,-4.2287,-4.2287,-4.2287,-4.2287,-4.2287,-4.2287,-4.2287,-4.2287,-4.2287,-4.2287,-4.2287,-4.2287,-4.2287,-4.2287,-4.2287,-4.2287,-4.2287,-4.2287,-4.2287,-4.2287,-4.2287,-4.2287,-4.2287,-4.2287,-4.2287,-4.2287,-4.2287,-4.2287,-4.2391,-4.2534,-4.2711,-4.2826,-4.3032,-4.3339,-4.3444,-4.3664,-3.093,-3.1582,0.0,-2.9554,-2.9029,0.0,-2.5986,0.0,0.0,0.0,0.0,0.0,0.0,0.0,0.0,-2.2307,-2.0921,0.0,0.0,0.0,0.0,0.0,0.0,0.0,0.0,0.0,-1.8704,-2.0185,0.0,0.0,0.0,0.0,-2.7661,-2.9317,-3.1288,-3.2663,-3.3392,-3.4137,-3.4634,-3.4899,-3.4899,-3.4899,-3.4899,-3.4899,-3.4899,-3.4899,-3.4899,-3.5164,-3.5628,-3.5893,-3.6572,-3.7483,-3.8013,-3.8493,-3.8924,-3.9172,-3.9272,-3.9272,-3.9272,-3.9272,-3.9272,-3.9272,-3.9272,-3.9272,-3.9272,-3.9504,-3.9782,-3.9952,-4.0252,-4.0546,-4.0754,-4.1019,-4.1293,-4.1472,-4.1753,-4.2061,-4.2246,-4.2287,-4.2287,-4.2287,-4.2287,-4.2287,-4.2287,-4.2287,-4.2287,-4.2287,-4.2287,-4.2287,-4.2287,-4.2287,-4.2287,-4.2287,-4.2287,-4.2287,-4.2287,-4.2287,-4.2287,-4.2287,-4.2287,-4.2287,-4.2287,-4.2287,-4.2287,-4.2287,-4.2287,-4.2391,-4.2573,-4.2573,-4.2729,-4.3032,-4.3032,-4.3286]}]]